<?xml version='1.0' encoding='UTF-8'?><gpx version="1.1" creator="JPX - https://github.com/jenetics/jpx" xmlns="http://www.topografix.com/GPX/1/1"><trk><trkseg><trkpt lat="50.677229348494755" lon="3.140911927691858"><ele>33.0</ele><time>2026-04-19T09:25:01.015Z</time></trkpt><trkpt lat="50.677304871232984" lon="3.140930807394978"><ele>33.0</ele><time>2026-04-19T09:25:18.013Z</time></trkpt><trkpt lat="50.67728089765647" lon="3.141060226929937"><ele>33.0</ele><time>2026-04-19T09:25:20.019Z</time></trkpt><trkpt lat="50.67721803346843" lon="3.1411460586220183"><ele>33.0</ele><time>2026-04-19T09:25:23.016Z</time></trkpt><trkpt lat="50.67718043650872" lon="3.141231074279047"><ele>33.0</ele><time>2026-04-19T09:25:25.014Z</time></trkpt><trkpt lat="50.677142476928644" lon="3.141323080061256"><ele>33.0</ele><time>2026-04-19T09:25:27.015Z</time></trkpt><trkpt lat="50.6770899392399" lon="3.141425726453447"><ele>33.0</ele><time>2026-04-19T09:25:29.013Z</time></trkpt><trkpt lat="50.677044254359686" lon="3.1415335656543713"><ele>33.0</ele><time>2026-04-19T09:25:31.016Z</time></trkpt><trkpt lat="50.6769822709787" lon="3.14161104094006"><ele>33.0</ele><time>2026-04-19T09:25:33.015Z</time></trkpt><trkpt lat="50.676921947558434" lon="3.141688868316925"><ele>33.0</ele><time>2026-04-19T09:25:35.013Z</time></trkpt><trkpt lat="50.676887465042725" lon="3.1417930685382314"><ele>33.0</ele><time>2026-04-19T09:25:37.018Z</time></trkpt><trkpt lat="50.676815591357474" lon="3.1418785511407497"><ele>33.0</ele><time>2026-04-19T09:25:39.02Z</time></trkpt><trkpt lat="50.6767535993896" lon="3.141981129382095"><ele>32.666666666666664</ele><time>2026-04-19T09:25:41.018Z</time></trkpt><trkpt lat="50.67669508901968" lon="3.142086969123463"><ele>32.333333333333336</ele><time>2026-04-19T09:25:43.017Z</time></trkpt><trkpt lat="50.676624201174846" lon="3.1421925357350355"><ele>32.0</ele><time>2026-04-19T09:25:45.018Z</time></trkpt><trkpt lat="50.67654211216492" lon="3.142239623274517"><ele>31.666666666666668</ele><time>2026-04-19T09:25:47.02Z</time></trkpt><trkpt lat="50.67649347308578" lon="3.1423114636221317"><ele>31.333333333333336</ele><time>2026-04-19T09:25:48.021Z</time></trkpt><trkpt lat="50.676452337595364" lon="3.1424680392759115"><ele>31.0</ele><time>2026-04-19T09:25:50.021Z</time></trkpt><trkpt lat="50.67639398599961" lon="3.1425713461958984"><ele>31.0</ele><time>2026-04-19T09:25:52.021Z</time></trkpt><trkpt lat="50.67632467131019" lon="3.1426848901410214"><ele>31.0</ele><time>2026-04-19T09:25:54.017Z</time></trkpt><trkpt lat="50.67625071004002" lon="3.1428139245369766"><ele>31.0</ele><time>2026-04-19T09:25:56.018Z</time></trkpt><trkpt lat="50.67618018277755" lon="3.142945534277292"><ele>31.0</ele><time>2026-04-19T09:25:58.023Z</time></trkpt><trkpt lat="50.67609804780403" lon="3.143071614500082"><ele>31.0</ele><time>2026-04-19T09:26:00.019Z</time></trkpt><trkpt lat="50.67603030196662" lon="3.143206760772237"><ele>30.833333333333336</ele><time>2026-04-19T09:26:02.017Z</time></trkpt><trkpt lat="50.67593904270456" lon="3.1433186870458076"><ele>30.666666666666668</ele><time>2026-04-19T09:26:04.019Z</time></trkpt><trkpt lat="50.6759039978298" lon="3.143409771161694"><ele>30.5</ele><time>2026-04-19T09:26:05.017Z</time></trkpt><trkpt lat="50.67585368610465" lon="3.143470148390997"><ele>30.333333333333336</ele><time>2026-04-19T09:26:06.017Z</time></trkpt><trkpt lat="50.67581642685789" lon="3.1435520194164623"><ele>30.166666666666668</ele><time>2026-04-19T09:26:07.02Z</time></trkpt><trkpt lat="50.675732948856336" lon="3.1436978638284403"><ele>30.0</ele><time>2026-04-19T09:26:09.02Z</time></trkpt><trkpt lat="50.67568511320326" lon="3.143762567599326"><ele>30.0</ele><time>2026-04-19T09:26:10.021Z</time></trkpt><trkpt lat="50.67561585977072" lon="3.1439163721157404"><ele>30.0</ele><time>2026-04-19T09:26:12.022Z</time></trkpt><trkpt lat="50.675529778510615" lon="3.1440427083346445"><ele>30.0</ele><time>2026-04-19T09:26:14.02Z</time></trkpt><trkpt lat="50.675450313529055" lon="3.1441693081788795"><ele>30.0</ele><time>2026-04-19T09:26:16.011Z</time></trkpt><trkpt lat="50.675368152626156" lon="3.1443025710922896"><ele>30.166666666666668</ele><time>2026-04-19T09:26:18.014Z</time></trkpt><trkpt lat="50.67532381995" lon="3.144390851152687"><ele>30.333333333333336</ele><time>2026-04-19T09:26:19.014Z</time></trkpt><trkpt lat="50.67527357779807" lon="3.144453412413755"><ele>30.5</ele><time>2026-04-19T09:26:20.014Z</time></trkpt><trkpt lat="50.67519813384731" lon="3.1445933976876708"><ele>30.666666666666668</ele><time>2026-04-19T09:26:22.014Z</time></trkpt><trkpt lat="50.67513048428829" lon="3.1447365700298135"><ele>30.833333333333336</ele><time>2026-04-19T09:26:24.014Z</time></trkpt><trkpt lat="50.67508088382838" lon="3.1448018567618106"><ele>31.0</ele><time>2026-04-19T09:26:25.021Z</time></trkpt><trkpt lat="50.67504917303066" lon="3.144888290258003"><ele>30.5</ele><time>2026-04-19T09:26:26.013Z</time></trkpt><trkpt lat="50.67494398648791" lon="3.1450691331233367"><ele>30.0</ele><time>2026-04-19T09:26:29.012Z</time></trkpt><trkpt lat="50.67484734910287" lon="3.1452382485455437"><ele>29.5</ele><time>2026-04-19T09:26:31.021Z</time></trkpt><trkpt lat="50.674800976311445" lon="3.145319400937322"><ele>29.0</ele><time>2026-04-19T09:26:32.02Z</time></trkpt><trkpt lat="50.67477667183083" lon="3.1454544290397126"><ele>29.0</ele><time>2026-04-19T09:26:33.014Z</time></trkpt><trkpt lat="50.6747288397991" lon="3.1455195074680695"><ele>29.0</ele><time>2026-04-19T09:26:34.022Z</time></trkpt><trkpt lat="50.67464548538107" lon="3.145639852350573"><ele>29.0</ele><time>2026-04-19T09:26:36.016Z</time></trkpt><trkpt lat="50.67456802771882" lon="3.1457819827120734"><ele>29.0</ele><time>2026-04-19T09:26:38.02Z</time></trkpt><trkpt lat="50.67449105444678" lon="3.1458982174203416"><ele>29.0</ele><time>2026-04-19T09:26:40.018Z</time></trkpt><trkpt lat="50.67444849483947" lon="3.145973147645961"><ele>28.833333333333332</ele><time>2026-04-19T09:26:41.013Z</time></trkpt><trkpt lat="50.674380007273555" lon="3.1460863771565206"><ele>28.666666666666664</ele><time>2026-04-19T09:26:43.022Z</time></trkpt><trkpt lat="50.67430837757525" lon="3.146192475936874"><ele>28.5</ele><time>2026-04-19T09:26:45.013Z</time></trkpt><trkpt lat="50.67423815637468" lon="3.1462298860286646"><ele>28.333333333333336</ele><time>2026-04-19T09:26:46.021Z</time></trkpt><trkpt lat="50.674183307563936" lon="3.1463117905040763"><ele>28.166666666666668</ele><time>2026-04-19T09:26:48.023Z</time></trkpt><trkpt lat="50.67413286649129" lon="3.1463871130122985"><ele>28.0</ele><time>2026-04-19T09:26:50.02Z</time></trkpt><trkpt lat="50.67407093774976" lon="3.146481969266528"><ele>28.000000000000004</ele><time>2026-04-19T09:26:53.019Z</time></trkpt><trkpt lat="50.674012863695424" lon="3.146573040483895"><ele>28.0</ele><time>2026-04-19T09:27:01.995Z</time></trkpt><trkpt lat="50.673962727571094" lon="3.1466382642686526"><ele>28.0</ele><time>2026-04-19T09:27:04.996Z</time></trkpt><trkpt lat="50.67390038480231" lon="3.146570244258487"><ele>28.0</ele><time>2026-04-19T09:27:07.996Z</time></trkpt><trkpt lat="50.67382749078155" lon="3.1464655464746065"><ele>28.000000000000004</ele><time>2026-04-19T09:27:09.997Z</time></trkpt><trkpt lat="50.67374780215481" lon="3.1463540286557317"><ele>28.0</ele><time>2026-04-19T09:27:11.997Z</time></trkpt><trkpt lat="50.673663643328354" lon="3.146234751493576"><ele>28.000000000000004</ele><time>2026-04-19T09:27:13.998Z</time></trkpt><trkpt lat="50.67360621317302" lon="3.1461639864187236"><ele>28.0</ele><time>2026-04-19T09:27:15.998Z</time></trkpt><trkpt lat="50.67354352929187" lon="3.1460735582209147"><ele>28.0</ele><time>2026-04-19T09:27:34.999Z</time></trkpt><trkpt lat="50.673482208456385" lon="3.1459917026877102"><ele>28.0</ele><time>2026-04-19T09:27:37.999Z</time></trkpt><trkpt lat="50.67341950685225" lon="3.1459380463833093"><ele>28.000000000000004</ele><time>2026-04-19T09:27:40Z</time></trkpt><trkpt lat="50.67335213992863" lon="3.145860090584413"><ele>28.0</ele><time>2026-04-19T09:27:42Z</time></trkpt><trkpt lat="50.673274909337465" lon="3.145752471261998"><ele>27.500000000000004</ele><time>2026-04-19T09:27:44Z</time></trkpt><trkpt lat="50.6731762735653" lon="3.145643256984006"><ele>27.0</ele><time>2026-04-19T09:27:46Z</time></trkpt><trkpt lat="50.673064338908645" lon="3.1455546652515167"><ele>26.5</ele><time>2026-04-19T09:27:48Z</time></trkpt><trkpt lat="50.67300260246168" lon="3.1455131646285177"><ele>26.0</ele><time>2026-04-19T09:27:49Z</time></trkpt><trkpt lat="50.672941958139866" lon="3.145470609339136"><ele>25.500000000000004</ele><time>2026-04-19T09:27:50Z</time></trkpt><trkpt lat="50.67288312197338" lon="3.145429997628908"><ele>25.0</ele><time>2026-04-19T09:27:51Z</time></trkpt><trkpt lat="50.672817974755404" lon="3.1453849113346735"><ele>24.857142857142858</ele><time>2026-04-19T09:27:52Z</time></trkpt><trkpt lat="50.6727553936804" lon="3.145341692318236"><ele>24.714285714285715</ele><time>2026-04-19T09:27:53Z</time></trkpt><trkpt lat="50.67269402635493" lon="3.145290443677692"><ele>24.57142857142857</ele><time>2026-04-19T09:27:54Z</time></trkpt><trkpt lat="50.67263369708699" lon="3.1452368709335587"><ele>24.42857142857143</ele><time>2026-04-19T09:27:55Z</time></trkpt><trkpt lat="50.672573148186316" lon="3.1451797802037915"><ele>24.285714285714285</ele><time>2026-04-19T09:27:56Z</time></trkpt><trkpt lat="50.67249976589711" lon="3.145140939968641"><ele>24.142857142857142</ele><time>2026-04-19T09:27:57Z</time></trkpt><trkpt lat="50.67242977317842" lon="3.145097079798722"><ele>24.0</ele><time>2026-04-19T09:27:58Z</time></trkpt><trkpt lat="50.6723734485926" lon="3.1450474938070014"><ele>23.999999999999996</ele><time>2026-04-19T09:27:59Z</time></trkpt><trkpt lat="50.672282591748306" lon="3.145023767222689"><ele>24.0</ele><time>2026-04-19T09:28:00Z</time></trkpt><trkpt lat="50.67220411273969" lon="3.1450030452671043"><ele>24.0</ele><time>2026-04-19T09:28:01Z</time></trkpt><trkpt lat="50.672144758752474" lon="3.1449679423607764"><ele>24.0</ele><time>2026-04-19T09:28:02Z</time></trkpt><trkpt lat="50.67207943095955" lon="3.144931586900386"><ele>24.0</ele><time>2026-04-19T09:28:03Z</time></trkpt><trkpt lat="50.67201191223797" lon="3.1449048434859685"><ele>23.999999999999996</ele><time>2026-04-19T09:28:04Z</time></trkpt><trkpt lat="50.671949599834086" lon="3.1448768398820883"><ele>24.0</ele><time>2026-04-19T09:28:05Z</time></trkpt><trkpt lat="50.6718898516449" lon="3.144844892351395"><ele>23.4</ele><time>2026-04-19T09:28:06Z</time></trkpt><trkpt lat="50.67182849240546" lon="3.1448144191955887"><ele>22.799999999999997</ele><time>2026-04-19T09:28:07Z</time></trkpt><trkpt lat="50.671764887391504" lon="3.1447910490379805"><ele>22.200000000000003</ele><time>2026-04-19T09:28:08Z</time></trkpt><trkpt lat="50.671584996644555" lon="3.1447090110923814"><ele>21.6</ele><time>2026-04-19T09:28:11Z</time></trkpt><trkpt lat="50.67146692378906" lon="3.144657006640355"><ele>21.0</ele><time>2026-04-19T09:28:13Z</time></trkpt><trkpt lat="50.67140460681513" lon="3.1446293156540466"><ele>21.0</ele><time>2026-04-19T09:28:14Z</time></trkpt><trkpt lat="50.67134129462355" lon="3.1446033727450855"><ele>21.0</ele><time>2026-04-19T09:28:15Z</time></trkpt><trkpt lat="50.67127431560996" lon="3.1445784345023275"><ele>21.0</ele><time>2026-04-19T09:28:16Z</time></trkpt><trkpt lat="50.67120865925663" lon="3.144549281085342"><ele>21.0</ele><time>2026-04-19T09:28:17Z</time></trkpt><trkpt lat="50.67114205084718" lon="3.1445207115140876"><ele>21.0</ele><time>2026-04-19T09:28:18Z</time></trkpt><trkpt lat="50.67101967185132" lon="3.144459216962104"><ele>21.0</ele><time>2026-04-19T09:28:20Z</time></trkpt><trkpt lat="50.67095726907102" lon="3.1444210360920435"><ele>20.857142857142858</ele><time>2026-04-19T09:28:21Z</time></trkpt><trkpt lat="50.67089548921946" lon="3.1443896597001673"><ele>20.714285714285715</ele><time>2026-04-19T09:28:22Z</time></trkpt><trkpt lat="50.670835508639776" lon="3.144358916523285"><ele>20.57142857142857</ele><time>2026-04-19T09:28:23Z</time></trkpt><trkpt lat="50.6707750759061" lon="3.1443213818957023"><ele>20.42857142857143</ele><time>2026-04-19T09:28:24Z</time></trkpt><trkpt lat="50.67071114465981" lon="3.144283781570878"><ele>20.285714285714285</ele><time>2026-04-19T09:28:25Z</time></trkpt><trkpt lat="50.670650349870144" lon="3.144243740614508"><ele>20.142857142857142</ele><time>2026-04-19T09:28:26Z</time></trkpt><trkpt lat="50.670585829997364" lon="3.144214824121609"><ele>20.0</ele><time>2026-04-19T09:28:27Z</time></trkpt><trkpt lat="50.670525487724184" lon="3.144177951604811"><ele>20.0</ele><time>2026-04-19T09:28:28Z</time></trkpt><trkpt lat="50.67046550056241" lon="3.14413715271662"><ele>20.0</ele><time>2026-04-19T09:28:29Z</time></trkpt><trkpt lat="50.6704082538084" lon="3.1440957685313915"><ele>20.0</ele><time>2026-04-19T09:28:30Z</time></trkpt><trkpt lat="50.6703477868891" lon="3.144050876203215"><ele>20.0</ele><time>2026-04-19T09:28:31Z</time></trkpt><trkpt lat="50.67028952946383" lon="3.1440066326797314"><ele>20.0</ele><time>2026-04-19T09:28:32Z</time></trkpt><trkpt lat="50.67022829196161" lon="3.1439652307581514"><ele>20.0</ele><time>2026-04-19T09:28:33Z</time></trkpt><trkpt lat="50.67011071564388" lon="3.143899444872304"><ele>20.166666666666668</ele><time>2026-04-19T09:28:35Z</time></trkpt><trkpt lat="50.67005971460171" lon="3.1438380010357423"><ele>20.333333333333336</ele><time>2026-04-19T09:28:36Z</time></trkpt><trkpt lat="50.66999230342594" lon="3.1438137743121697"><ele>20.5</ele><time>2026-04-19T09:28:37Z</time></trkpt><trkpt lat="50.66987359530712" lon="3.1437423412433776"><ele>20.666666666666668</ele><time>2026-04-19T09:28:39Z</time></trkpt><trkpt lat="50.6698104787698" lon="3.1437038599986162"><ele>20.833333333333332</ele><time>2026-04-19T09:28:40Z</time></trkpt><trkpt lat="50.6697521589154" lon="3.1436483517488147"><ele>21.0</ele><time>2026-04-19T09:28:41Z</time></trkpt><trkpt lat="50.669630332307875" lon="3.1435766555208158"><ele>21.0</ele><time>2026-04-19T09:28:43Z</time></trkpt><trkpt lat="50.669566455703986" lon="3.143539096250173"><ele>21.0</ele><time>2026-04-19T09:28:44Z</time></trkpt><trkpt lat="50.669501535158375" lon="3.143500923145059"><ele>21.0</ele><time>2026-04-19T09:28:45Z</time></trkpt><trkpt lat="50.669433581172" lon="3.1434609663914816"><ele>21.0</ele><time>2026-04-19T09:28:46Z</time></trkpt><trkpt lat="50.66936663753612" lon="3.143421888779806"><ele>21.0</ele><time>2026-04-19T09:28:47Z</time></trkpt><trkpt lat="50.66930297885882" lon="3.143384673765539"><ele>21.0</ele><time>2026-04-19T09:28:48Z</time></trkpt><trkpt lat="50.66919169882438" lon="3.143319555237771"><ele>21.333333333333332</ele><time>2026-04-19T09:28:50Z</time></trkpt><trkpt lat="50.669132647785304" lon="3.1432848660644264"><ele>21.666666666666668</ele><time>2026-04-19T09:28:51Z</time></trkpt><trkpt lat="50.669068934228136" lon="3.1432474379215516"><ele>22.0</ele><time>2026-04-19T09:28:52Z</time></trkpt><trkpt lat="50.66895176659051" lon="3.1431786085020543"><ele>22.333333333333336</ele><time>2026-04-19T09:28:54Z</time></trkpt><trkpt lat="50.6688918107534" lon="3.14314338782042"><ele>22.666666666666668</ele><time>2026-04-19T09:28:55Z</time></trkpt><trkpt lat="50.66877240326361" lon="3.1430735061202912"><ele>23.0</ele><time>2026-04-19T09:28:57Z</time></trkpt><trkpt lat="50.668708082775204" lon="3.143035501819034"><ele>23.0</ele><time>2026-04-19T09:28:58Z</time></trkpt><trkpt lat="50.668647854019746" lon="3.1429999151521506"><ele>23.0</ele><time>2026-04-19T09:28:59Z</time></trkpt><trkpt lat="50.66858777058644" lon="3.1429644143501503"><ele>23.0</ele><time>2026-04-19T09:29:00Z</time></trkpt><trkpt lat="50.66852831192447" lon="3.1429292826998942"><ele>23.0</ele><time>2026-04-19T09:29:01Z</time></trkpt><trkpt lat="50.668411125537524" lon="3.1428602863349644"><ele>23.0</ele><time>2026-04-19T09:29:03Z</time></trkpt><trkpt lat="50.66834546080056" lon="3.1428217053278247"><ele>23.0</ele><time>2026-04-19T09:29:04Z</time></trkpt><trkpt lat="50.66823646783228" lon="3.142757667023065"><ele>22.833333333333336</ele><time>2026-04-19T09:29:05.999Z</time></trkpt><trkpt lat="50.668176610111146" lon="3.1427224979015365"><ele>22.666666666666668</ele><time>2026-04-19T09:29:06.999Z</time></trkpt><trkpt lat="50.668053474651074" lon="3.1426744621786864"><ele>22.5</ele><time>2026-04-19T09:29:08.999Z</time></trkpt><trkpt lat="50.667997412497165" lon="3.142625046349096"><ele>22.333333333333332</ele><time>2026-04-19T09:29:09.999Z</time></trkpt><trkpt lat="50.66793569435492" lon="3.1425871738467412"><ele>22.166666666666664</ele><time>2026-04-19T09:29:10.999Z</time></trkpt><trkpt lat="50.66787341001463" lon="3.142556301564343"><ele>22.0</ele><time>2026-04-19T09:29:11.999Z</time></trkpt><trkpt lat="50.66776149781283" lon="3.142480210943742"><ele>21.8</ele><time>2026-04-19T09:29:13.999Z</time></trkpt><trkpt lat="50.66769872389177" lon="3.142451191001142"><ele>21.6</ele><time>2026-04-19T09:29:14.999Z</time></trkpt><trkpt lat="50.66758220526485" lon="3.142381647730122"><ele>21.400000000000002</ele><time>2026-04-19T09:29:16.999Z</time></trkpt><trkpt lat="50.66746388786461" lon="3.1423114767287963"><ele>21.200000000000003</ele><time>2026-04-19T09:29:18.999Z</time></trkpt><trkpt lat="50.66735717486261" lon="3.1422326090207804"><ele>21.0</ele><time>2026-04-19T09:29:20.999Z</time></trkpt><trkpt lat="50.66724455658091" lon="3.142158863974164"><ele>21.0</ele><time>2026-04-19T09:29:23Z</time></trkpt><trkpt lat="50.66713422040366" lon="3.1420866258785147"><ele>21.0</ele><time>2026-04-19T09:29:25Z</time></trkpt><trkpt lat="50.66702466939811" lon="3.1420165694607944"><ele>21.0</ele><time>2026-04-19T09:29:27Z</time></trkpt><trkpt lat="50.66691814620967" lon="3.1419545071425814"><ele>21.0</ele><time>2026-04-19T09:29:29Z</time></trkpt><trkpt lat="50.66680857047422" lon="3.1418834322746996"><ele>21.4</ele><time>2026-04-19T09:29:31Z</time></trkpt><trkpt lat="50.66670670583636" lon="3.1418053236777914"><ele>21.8</ele><time>2026-04-19T09:29:33Z</time></trkpt><trkpt lat="50.66664438450784" lon="3.1417637530604985"><ele>22.2</ele><time>2026-04-19T09:29:34Z</time></trkpt><trkpt lat="50.66653834943576" lon="3.141680252233358"><ele>22.599999999999998</ele><time>2026-04-19T09:29:36Z</time></trkpt><trkpt lat="50.66641883820336" lon="3.1416070271417476"><ele>23.0</ele><time>2026-04-19T09:29:38Z</time></trkpt><trkpt lat="50.66635194553606" lon="3.1415397003985435"><ele>23.0</ele><time>2026-04-19T09:29:39Z</time></trkpt><trkpt lat="50.66625002907374" lon="3.1414628390514454"><ele>23.0</ele><time>2026-04-19T09:29:41Z</time></trkpt><trkpt lat="50.666192484159154" lon="3.141417652071421"><ele>23.0</ele><time>2026-04-19T09:29:42Z</time></trkpt><trkpt lat="50.666084185505724" lon="3.1413322082270008"><ele>23.0</ele><time>2026-04-19T09:29:44Z</time></trkpt><trkpt lat="50.66602428426912" lon="3.1412849482519243"><ele>23.0</ele><time>2026-04-19T09:29:45Z</time></trkpt><trkpt lat="50.6659188469613" lon="3.141200796888554"><ele>23.5</ele><time>2026-04-19T09:29:47Z</time></trkpt><trkpt lat="50.665817418939305" lon="3.141148393114789"><ele>24.0</ele><time>2026-04-19T09:29:49Z</time></trkpt><trkpt lat="50.66574557908427" lon="3.14108249968017"><ele>24.5</ele><time>2026-04-19T09:29:51Z</time></trkpt><trkpt lat="50.66568898738516" lon="3.141037381786117"><ele>25.0</ele><time>2026-04-19T09:29:55Z</time></trkpt><trkpt lat="50.665580386785784" lon="3.141360577000249"><ele>25.000000000000004</ele><time>2026-04-19T09:30:05Z</time></trkpt><trkpt lat="50.66554214871271" lon="3.141470851345486"><ele>25.0</ele><time>2026-04-19T09:30:07Z</time></trkpt><trkpt lat="50.66551746109485" lon="3.1415653704123176"><ele>25.0</ele><time>2026-04-19T09:30:09Z</time></trkpt><trkpt lat="50.66547244499584" lon="3.141673913886802"><ele>25.0</ele><time>2026-04-19T09:30:11Z</time></trkpt><trkpt lat="50.66542925948599" lon="3.141789844835163"><ele>25.000000000000004</ele><time>2026-04-19T09:30:13Z</time></trkpt><trkpt lat="50.66538494314802" lon="3.1419108640725537"><ele>25.0</ele><time>2026-04-19T09:30:15Z</time></trkpt><trkpt lat="50.66532003478036" lon="3.142033007874872"><ele>25.0</ele><time>2026-04-19T09:30:17Z</time></trkpt><trkpt lat="50.66526661758576" lon="3.142163765891296"><ele>25.0</ele><time>2026-04-19T09:30:19Z</time></trkpt><trkpt lat="50.665212665682326" lon="3.1422989267293926"><ele>25.0</ele><time>2026-04-19T09:30:21Z</time></trkpt><trkpt lat="50.66515450931711" lon="3.1424388327370685"><ele>25.0</ele><time>2026-04-19T09:30:23Z</time></trkpt><trkpt lat="50.66509233699911" lon="3.142577493658921"><ele>25.0</ele><time>2026-04-19T09:30:25Z</time></trkpt><trkpt lat="50.66503788765842" lon="3.142730761764217"><ele>24.75</ele><time>2026-04-19T09:30:27Z</time></trkpt><trkpt lat="50.664976169642294" lon="3.1428859418930397"><ele>24.5</ele><time>2026-04-19T09:30:29Z</time></trkpt><trkpt lat="50.66490652893597" lon="3.1430269250088734"><ele>24.25</ele><time>2026-04-19T09:30:31Z</time></trkpt><trkpt lat="50.66484661360222" lon="3.1431717874778107"><ele>24.0</ele><time>2026-04-19T09:30:33Z</time></trkpt><trkpt lat="50.66478108077091" lon="3.143313806246184"><ele>24.0</ele><time>2026-04-19T09:30:35Z</time></trkpt><trkpt lat="50.66471000200903" lon="3.1434401951977824"><ele>24.0</ele><time>2026-04-19T09:30:37Z</time></trkpt><trkpt lat="50.6646348769882" lon="3.14358282645848"><ele>24.0</ele><time>2026-04-19T09:30:39Z</time></trkpt><trkpt lat="50.6645743530256" lon="3.143727045571792"><ele>24.0</ele><time>2026-04-19T09:30:41Z</time></trkpt><trkpt lat="50.66451032305537" lon="3.1438603421146025"><ele>24.0</ele><time>2026-04-19T09:30:43Z</time></trkpt><trkpt lat="50.66445491572833" lon="3.1440011739467324"><ele>23.799999999999997</ele><time>2026-04-19T09:30:45Z</time></trkpt><trkpt lat="50.6644297118089" lon="3.1441666647173134"><ele>23.599999999999998</ele><time>2026-04-19T09:30:47Z</time></trkpt><trkpt lat="50.664439906683576" lon="3.144332532070269"><ele>23.4</ele><time>2026-04-19T09:30:49Z</time></trkpt><trkpt lat="50.664453628901356" lon="3.144499676472018"><ele>23.2</ele><time>2026-04-19T09:30:51Z</time></trkpt><trkpt lat="50.664464632918985" lon="3.1446545811446445"><ele>23.0</ele><time>2026-04-19T09:30:53Z</time></trkpt><trkpt lat="50.66446448948925" lon="3.144825063993075"><ele>23.0</ele><time>2026-04-19T09:30:55Z</time></trkpt><trkpt lat="50.664459678539274" lon="3.1449666047767453"><ele>23.0</ele><time>2026-04-19T09:30:57Z</time></trkpt><trkpt lat="50.66447740410136" lon="3.1450826489044386"><ele>23.0</ele><time>2026-04-19T09:30:59Z</time></trkpt><trkpt lat="50.664495229085354" lon="3.145202467590294"><ele>23.0</ele><time>2026-04-19T09:31:03Z</time></trkpt><trkpt lat="50.66451771041879" lon="3.1453127242190253"><ele>23.0</ele><time>2026-04-19T09:31:52Z</time></trkpt><trkpt lat="50.66452845953454" lon="3.145432842362865"><ele>23.0</ele><time>2026-04-19T09:31:55Z</time></trkpt><trkpt lat="50.66451694309768" lon="3.1455657813937967"><ele>23.0</ele><time>2026-04-19T09:31:58Z</time></trkpt><trkpt lat="50.66446277550844" lon="3.1455016034545094"><ele>23.0</ele><time>2026-04-19T09:32:01Z</time></trkpt><trkpt lat="50.664391806867556" lon="3.14545631713562"><ele>23.0</ele><time>2026-04-19T09:32:03Z</time></trkpt><trkpt lat="50.66434436235787" lon="3.1453668315052554"><ele>23.0</ele><time>2026-04-19T09:32:05Z</time></trkpt><trkpt lat="50.664296966865656" lon="3.1452650542564045"><ele>23.0</ele><time>2026-04-19T09:32:07Z</time></trkpt><trkpt lat="50.6642404489523" lon="3.14516710991449"><ele>23.0</ele><time>2026-04-19T09:32:09Z</time></trkpt><trkpt lat="50.6641833459373" lon="3.1450680946496603"><ele>23.0</ele><time>2026-04-19T09:32:11Z</time></trkpt><trkpt lat="50.66412613861061" lon="3.1449675656959695"><ele>23.0</ele><time>2026-04-19T09:32:13Z</time></trkpt><trkpt lat="50.6640726046035" lon="3.144870096910445"><ele>23.0</ele><time>2026-04-19T09:32:15Z</time></trkpt><trkpt lat="50.66402588823568" lon="3.144793346932947"><ele>23.0</ele><time>2026-04-19T09:32:17Z</time></trkpt><trkpt lat="50.663988690019266" lon="3.1447117609044537"><ele>23.0</ele><time>2026-04-19T09:32:19Z</time></trkpt><trkpt lat="50.66393068812049" lon="3.1446025203946117"><ele>23.0</ele><time>2026-04-19T09:32:22Z</time></trkpt><trkpt lat="50.66387322829649" lon="3.1445261537297244"><ele>23.0</ele><time>2026-04-19T09:32:24Z</time></trkpt><trkpt lat="50.663825657860045" lon="3.1444494076886857"><ele>23.0</ele><time>2026-04-19T09:32:26Z</time></trkpt><trkpt lat="50.663780271885734" lon="3.1443668359473493"><ele>23.0</ele><time>2026-04-19T09:32:28Z</time></trkpt><trkpt lat="50.663741967787175" lon="3.144282513214596"><ele>23.0</ele><time>2026-04-19T09:32:30Z</time></trkpt><trkpt lat="50.66370447341639" lon="3.1441520029591774"><ele>23.0</ele><time>2026-04-19T09:32:33Z</time></trkpt><trkpt lat="50.66375121409212" lon="3.144268541956938"><ele>23.0</ele><time>2026-04-19T09:32:58Z</time></trkpt><trkpt lat="50.66380561657075" lon="3.1444024070491627"><ele>23.0</ele><time>2026-04-19T09:33:01Z</time></trkpt><trkpt lat="50.663849154449316" lon="3.1444894622769963"><ele>23.0</ele><time>2026-04-19T09:33:03Z</time></trkpt><trkpt lat="50.663897630201596" lon="3.144578429898467"><ele>23.0</ele><time>2026-04-19T09:33:05Z</time></trkpt><trkpt lat="50.66394310266592" lon="3.1446552437462865"><ele>23.0</ele><time>2026-04-19T09:33:07Z</time></trkpt><trkpt lat="50.66397258968422" lon="3.1447430621724184"><ele>23.0</ele><time>2026-04-19T09:33:09Z</time></trkpt><trkpt lat="50.664029694967354" lon="3.144895839325221"><ele>23.0</ele><time>2026-04-19T09:33:11Z</time></trkpt><trkpt lat="50.66409827854132" lon="3.144988579125054"><ele>22.833333333333336</ele><time>2026-04-19T09:33:13Z</time></trkpt><trkpt lat="50.66415242611821" lon="3.1450870534795863"><ele>22.666666666666668</ele><time>2026-04-19T09:33:15Z</time></trkpt><trkpt lat="50.66420572995968" lon="3.1451731116052977"><ele>22.5</ele><time>2026-04-19T09:33:17Z</time></trkpt><trkpt lat="50.66425518390285" lon="3.145255306400975"><ele>22.333333333333332</ele><time>2026-04-19T09:33:19Z</time></trkpt><trkpt lat="50.66430190496977" lon="3.1453447922742503"><ele>22.166666666666664</ele><time>2026-04-19T09:33:21Z</time></trkpt><trkpt lat="50.66435182999502" lon="3.1454218862662966"><ele>22.0</ele><time>2026-04-19T09:33:23Z</time></trkpt><trkpt lat="50.66440339517111" lon="3.14551804521472"><ele>22.0</ele><time>2026-04-19T09:33:27Z</time></trkpt><trkpt lat="50.664385708883835" lon="3.145629970369662"><ele>22.0</ele><time>2026-04-19T09:33:43Z</time></trkpt><trkpt lat="50.66432652146924" lon="3.1456905942040017"><ele>22.0</ele><time>2026-04-19T09:33:48Z</time></trkpt><trkpt lat="50.664268117011154" lon="3.1457510315979516"><ele>22.0</ele><time>2026-04-19T09:33:52Z</time></trkpt><trkpt lat="50.66420134818911" lon="3.145810918502625"><ele>22.0</ele><time>2026-04-19T09:33:57Z</time></trkpt><trkpt lat="50.66418805978657" lon="3.145938395519828"><ele>22.0</ele><time>2026-04-19T09:34:09Z</time></trkpt><trkpt lat="50.66412878205013" lon="3.1460091579241083"><ele>22.0</ele><time>2026-04-19T09:34:13Z</time></trkpt><trkpt lat="50.66404805434293" lon="3.1460395041314473"><ele>21.833333333333332</ele><time>2026-04-19T09:34:16Z</time></trkpt><trkpt lat="50.663959670806754" lon="3.1460616948857063"><ele>21.666666666666664</ele><time>2026-04-19T09:34:19Z</time></trkpt><trkpt lat="50.66388238715857" lon="3.1460936614389987"><ele>21.5</ele><time>2026-04-19T09:34:22Z</time></trkpt><trkpt lat="50.66380084237693" lon="3.146135531985335"><ele>21.333333333333332</ele><time>2026-04-19T09:34:25Z</time></trkpt><trkpt lat="50.663737493561" lon="3.1461550173842268"><ele>21.166666666666668</ele><time>2026-04-19T09:34:27Z</time></trkpt><trkpt lat="50.663675360079" lon="3.1461832765416"><ele>21.0</ele><time>2026-04-19T09:34:29Z</time></trkpt><trkpt lat="50.6635994149757" lon="3.1462144870194035"><ele>21.200000000000003</ele><time>2026-04-19T09:34:31Z</time></trkpt><trkpt lat="50.66351278103074" lon="3.1462446464416827"><ele>21.400000000000002</ele><time>2026-04-19T09:34:33Z</time></trkpt><trkpt lat="50.663430190590546" lon="3.1462881658047364"><ele>21.6</ele><time>2026-04-19T09:34:35Z</time></trkpt><trkpt lat="50.66335062184987" lon="3.1463655761691927"><ele>21.8</ele><time>2026-04-19T09:34:37Z</time></trkpt><trkpt lat="50.663265841709425" lon="3.1464611134850977"><ele>22.0</ele><time>2026-04-19T09:34:39Z</time></trkpt><trkpt lat="50.663200445494645" lon="3.1465659874945646"><ele>22.0</ele><time>2026-04-19T09:34:41Z</time></trkpt><trkpt lat="50.66313083261263" lon="3.1466809544360355"><ele>22.0</ele><time>2026-04-19T09:34:43Z</time></trkpt><trkpt lat="50.663062798610284" lon="3.1467896075485493"><ele>22.0</ele><time>2026-04-19T09:34:45Z</time></trkpt><trkpt lat="50.662986674182164" lon="3.146896940079713"><ele>22.0</ele><time>2026-04-19T09:34:47Z</time></trkpt><trkpt lat="50.66289620823314" lon="3.146971315226298"><ele>22.0</ele><time>2026-04-19T09:34:49Z</time></trkpt><trkpt lat="50.66279257696457" lon="3.1469960882425494"><ele>22.200000000000003</ele><time>2026-04-19T09:34:51Z</time></trkpt><trkpt lat="50.66269156593873" lon="3.146958577436712"><ele>22.4</ele><time>2026-04-19T09:34:53Z</time></trkpt><trkpt lat="50.66261178950623" lon="3.1468304643634286"><ele>22.6</ele><time>2026-04-19T09:34:55Z</time></trkpt><trkpt lat="50.66255988718489" lon="3.1466779928797037"><ele>22.799999999999997</ele><time>2026-04-19T09:34:57Z</time></trkpt><trkpt lat="50.662492046830174" lon="3.146534463812367"><ele>23.0</ele><time>2026-04-19T09:34:59Z</time></trkpt><trkpt lat="50.662431425124325" lon="3.146398303743293"><ele>23.2</ele><time>2026-04-19T09:35:01Z</time></trkpt><trkpt lat="50.66237391699955" lon="3.146249206951517"><ele>23.4</ele><time>2026-04-19T09:35:03Z</time></trkpt><trkpt lat="50.66231088713878" lon="3.146111307110958"><ele>23.599999999999998</ele><time>2026-04-19T09:35:05Z</time></trkpt><trkpt lat="50.66225126077916" lon="3.1459650847434433"><ele>23.799999999999997</ele><time>2026-04-19T09:35:07Z</time></trkpt><trkpt lat="50.66219315716524" lon="3.1458133922464766"><ele>24.0</ele><time>2026-04-19T09:35:09Z</time></trkpt><trkpt lat="50.662127727446695" lon="3.145671112467271"><ele>24.0</ele><time>2026-04-19T09:35:11Z</time></trkpt><trkpt lat="50.662030577343984" lon="3.1455739140578096"><ele>24.0</ele><time>2026-04-19T09:35:13Z</time></trkpt><trkpt lat="50.661923542181675" lon="3.1455393613585203"><ele>24.0</ele><time>2026-04-19T09:35:15Z</time></trkpt><trkpt lat="50.66180906358192" lon="3.145585148246413"><ele>24.0</ele><time>2026-04-19T09:35:17Z</time></trkpt><trkpt lat="50.66169968493214" lon="3.1456320083144282"><ele>24.0</ele><time>2026-04-19T09:35:19Z</time></trkpt><trkpt lat="50.66158538420913" lon="3.1456961542484185"><ele>24.0</ele><time>2026-04-19T09:35:21Z</time></trkpt><trkpt lat="50.66152102998223" lon="3.1457219358089805"><ele>24.0</ele><time>2026-04-19T09:35:22Z</time></trkpt><trkpt lat="50.661415417984834" lon="3.1457726677244833"><ele>24.0</ele><time>2026-04-19T09:35:24Z</time></trkpt><trkpt lat="50.66130348927142" lon="3.1458341474661733"><ele>24.0</ele><time>2026-04-19T09:35:26Z</time></trkpt><trkpt lat="50.66119277406621" lon="3.145888759134715"><ele>23.75</ele><time>2026-04-19T09:35:28Z</time></trkpt><trkpt lat="50.6610882004041" lon="3.145947115060705"><ele>23.5</ele><time>2026-04-19T09:35:30Z</time></trkpt><trkpt lat="50.66097062222077" lon="3.145985238622721"><ele>23.25</ele><time>2026-04-19T09:35:32Z</time></trkpt><trkpt lat="50.66085297771571" lon="3.1460231517568547"><ele>23.0</ele><time>2026-04-19T09:35:34Z</time></trkpt><trkpt lat="50.66073714134866" lon="3.146048862889274"><ele>23.0</ele><time>2026-04-19T09:35:36Z</time></trkpt><trkpt lat="50.66062160282418" lon="3.1460825367453316"><ele>23.0</ele><time>2026-04-19T09:35:38Z</time></trkpt><trkpt lat="50.660506148758486" lon="3.146115100455222"><ele>23.0</ele><time>2026-04-19T09:35:40Z</time></trkpt><trkpt lat="50.660394253726935" lon="3.1461685092008596"><ele>23.0</ele><time>2026-04-19T09:35:42Z</time></trkpt><trkpt lat="50.660333494402565" lon="3.1461978536543307"><ele>23.0</ele><time>2026-04-19T09:35:43Z</time></trkpt><trkpt lat="50.66021882046058" lon="3.146260237756575"><ele>22.799999999999997</ele><time>2026-04-19T09:35:45Z</time></trkpt><trkpt lat="50.660159436357624" lon="3.1462998563687297"><ele>22.6</ele><time>2026-04-19T09:35:46Z</time></trkpt><trkpt lat="50.660056014011914" lon="3.146385538854488"><ele>22.4</ele><time>2026-04-19T09:35:48Z</time></trkpt><trkpt lat="50.65992454367321" lon="3.146446843984899"><ele>22.200000000000003</ele><time>2026-04-19T09:35:50Z</time></trkpt><trkpt lat="50.65985580298058" lon="3.146503155726479"><ele>22.0</ele><time>2026-04-19T09:35:52Z</time></trkpt><trkpt lat="50.659755543395704" lon="3.1465762879149084"><ele>22.0</ele><time>2026-04-19T09:35:54Z</time></trkpt><trkpt lat="50.65965847121986" lon="3.1466595080530193"><ele>22.0</ele><time>2026-04-19T09:35:56Z</time></trkpt><trkpt lat="50.65956646316359" lon="3.14674422375685"><ele>22.0</ele><time>2026-04-19T09:35:58Z</time></trkpt><trkpt lat="50.659464294608405" lon="3.14681916474175"><ele>22.0</ele><time>2026-04-19T09:36:00Z</time></trkpt><trkpt lat="50.65935694131997" lon="3.1469111004661197"><ele>22.0</ele><time>2026-04-19T09:36:02Z</time></trkpt><trkpt lat="50.659268796920585" lon="3.147000590749295"><ele>22.0</ele><time>2026-04-19T09:36:04Z</time></trkpt><trkpt lat="50.65921121544134" lon="3.1470670765047983"><ele>22.0</ele><time>2026-04-19T09:36:05Z</time></trkpt><trkpt lat="50.659158099273775" lon="3.147269131808541"><ele>22.0</ele><time>2026-04-19T09:36:07Z</time></trkpt><trkpt lat="50.659125162837256" lon="3.147421569780883"><ele>22.0</ele><time>2026-04-19T09:36:09Z</time></trkpt><trkpt lat="50.65906042973053" lon="3.1475762936693563"><ele>22.0</ele><time>2026-04-19T09:36:11Z</time></trkpt><trkpt lat="50.6589917413766" lon="3.1477056807399952"><ele>22.0</ele><time>2026-04-19T09:36:13Z</time></trkpt><trkpt lat="50.65890719953849" lon="3.1478243068241816"><ele>22.0</ele><time>2026-04-19T09:36:15Z</time></trkpt><trkpt lat="50.65880976041513" lon="3.1479175009856846"><ele>22.0</ele><time>2026-04-19T09:36:17Z</time></trkpt><trkpt lat="50.65871447022881" lon="3.1479756903653744"><ele>22.0</ele><time>2026-04-19T09:36:19Z</time></trkpt><trkpt lat="50.65861172592461" lon="3.148030242620295"><ele>22.5</ele><time>2026-04-19T09:36:21Z</time></trkpt><trkpt lat="50.658503356103154" lon="3.1480835165648386"><ele>23.0</ele><time>2026-04-19T09:36:23Z</time></trkpt><trkpt lat="50.65838885754372" lon="3.148073501415203"><ele>23.5</ele><time>2026-04-19T09:36:25Z</time></trkpt><trkpt lat="50.658280313643964" lon="3.1480449549785803"><ele>24.0</ele><time>2026-04-19T09:36:27Z</time></trkpt><trkpt lat="50.658164046701856" lon="3.148018289380153"><ele>24.0</ele><time>2026-04-19T09:36:29Z</time></trkpt><trkpt lat="50.65805161796772" lon="3.147990040446904"><ele>24.0</ele><time>2026-04-19T09:36:31Z</time></trkpt><trkpt lat="50.65793962350545" lon="3.147974189788397"><ele>24.0</ele><time>2026-04-19T09:36:33Z</time></trkpt><trkpt lat="50.65783086757583" lon="3.1479713985492594"><ele>24.0</ele><time>2026-04-19T09:36:35Z</time></trkpt><trkpt lat="50.657733304304365" lon="3.14796311838574"><ele>24.0</ele><time>2026-04-19T09:36:37Z</time></trkpt><trkpt lat="50.65764227982467" lon="3.1480404949666476"><ele>23.6</ele><time>2026-04-19T09:36:39Z</time></trkpt><trkpt lat="50.65764477610867" lon="3.148153668239832"><ele>23.2</ele><time>2026-04-19T09:36:40Z</time></trkpt><trkpt lat="50.6576190268074" lon="3.148316415212983"><ele>22.8</ele><time>2026-04-19T09:36:42Z</time></trkpt><trkpt lat="50.65755636604021" lon="3.14844070021471"><ele>22.400000000000002</ele><time>2026-04-19T09:36:44Z</time></trkpt><trkpt lat="50.657497815528245" lon="3.1485688560160896"><ele>22.0</ele><time>2026-04-19T09:36:46Z</time></trkpt><trkpt lat="50.65743559240006" lon="3.1486911862777567"><ele>22.0</ele><time>2026-04-19T09:36:48Z</time></trkpt><trkpt lat="50.6573688325185" lon="3.1488261510671083"><ele>22.0</ele><time>2026-04-19T09:36:50Z</time></trkpt><trkpt lat="50.65731346598446" lon="3.1489616833810947"><ele>22.0</ele><time>2026-04-19T09:36:52Z</time></trkpt><trkpt lat="50.65726082542538" lon="3.149090681016315"><ele>22.0</ele><time>2026-04-19T09:36:54Z</time></trkpt><trkpt lat="50.657210449972965" lon="3.149221190948887"><ele>22.0</ele><time>2026-04-19T09:36:56Z</time></trkpt><trkpt lat="50.657147437498196" lon="3.149352346717084"><ele>21.8</ele><time>2026-04-19T09:36:58Z</time></trkpt><trkpt lat="50.657085255347546" lon="3.1494824041578817"><ele>21.6</ele><time>2026-04-19T09:37:00Z</time></trkpt><trkpt lat="50.65702233329176" lon="3.149597513154967"><ele>21.400000000000002</ele><time>2026-04-19T09:37:02Z</time></trkpt><trkpt lat="50.65695478144546" lon="3.1497187855545206"><ele>21.200000000000003</ele><time>2026-04-19T09:37:04Z</time></trkpt><trkpt lat="50.656886122020865" lon="3.149830638808089"><ele>21.0</ele><time>2026-04-19T09:37:06Z</time></trkpt><trkpt lat="50.656807839224506" lon="3.1499317873626285"><ele>21.4</ele><time>2026-04-19T09:37:08Z</time></trkpt><trkpt lat="50.65672640975844" lon="3.1500431042422115"><ele>21.8</ele><time>2026-04-19T09:37:10Z</time></trkpt><trkpt lat="50.656658874673134" lon="3.1501614066716948"><ele>22.2</ele><time>2026-04-19T09:37:12Z</time></trkpt><trkpt lat="50.65657759343492" lon="3.1502692080502164"><ele>22.599999999999998</ele><time>2026-04-19T09:37:14Z</time></trkpt><trkpt lat="50.656492111609296" lon="3.1503849377348336"><ele>23.0</ele><time>2026-04-19T09:37:16Z</time></trkpt><trkpt lat="50.65640827582603" lon="3.150508719347004"><ele>23.0</ele><time>2026-04-19T09:37:18Z</time></trkpt><trkpt lat="50.65631769360947" lon="3.150633387911696"><ele>23.0</ele><time>2026-04-19T09:37:20Z</time></trkpt><trkpt lat="50.656231291349535" lon="3.1507335190326997"><ele>23.0</ele><time>2026-04-19T09:37:22Z</time></trkpt><trkpt lat="50.656142212588314" lon="3.1508473572618034"><ele>23.0</ele><time>2026-04-19T09:37:24Z</time></trkpt><trkpt lat="50.65604713288033" lon="3.1509495853307103"><ele>23.0</ele><time>2026-04-19T09:37:26Z</time></trkpt><trkpt lat="50.65595702404932" lon="3.151066777227612"><ele>23.0</ele><time>2026-04-19T09:37:28Z</time></trkpt><trkpt lat="50.655858484721" lon="3.151144790533653"><ele>23.0</ele><time>2026-04-19T09:37:30Z</time></trkpt><trkpt lat="50.65575478633336" lon="3.1512114602506975"><ele>23.0</ele><time>2026-04-19T09:37:32Z</time></trkpt><trkpt lat="50.65565344134932" lon="3.1512867518028562"><ele>23.0</ele><time>2026-04-19T09:37:34Z</time></trkpt><trkpt lat="50.655550021515225" lon="3.151360562518494"><ele>23.0</ele><time>2026-04-19T09:37:36Z</time></trkpt><trkpt lat="50.65544986176453" lon="3.1514417195363364"><ele>23.0</ele><time>2026-04-19T09:37:38Z</time></trkpt><trkpt lat="50.6553451096269" lon="3.1515246981876586"><ele>23.0</ele><time>2026-04-19T09:37:40Z</time></trkpt><trkpt lat="50.65526913450121" lon="3.1516606197681063"><ele>23.2</ele><time>2026-04-19T09:37:42Z</time></trkpt><trkpt lat="50.655228980933245" lon="3.1518127454073053"><ele>23.4</ele><time>2026-04-19T09:37:44Z</time></trkpt><trkpt lat="50.655200315858025" lon="3.15196510389399"><ele>23.599999999999998</ele><time>2026-04-19T09:37:46Z</time></trkpt><trkpt lat="50.65518205310467" lon="3.152120094878826"><ele>23.799999999999997</ele><time>2026-04-19T09:37:48Z</time></trkpt><trkpt lat="50.655158433069474" lon="3.1522843412627313"><ele>24.0</ele><time>2026-04-19T09:37:50Z</time></trkpt><trkpt lat="50.65512311097868" lon="3.1524397137096236"><ele>24.0</ele><time>2026-04-19T09:37:52Z</time></trkpt><trkpt lat="50.655095746164605" lon="3.1525983922307135"><ele>24.0</ele><time>2026-04-19T09:37:54Z</time></trkpt><trkpt lat="50.655060902134885" lon="3.1527563648575665"><ele>24.0</ele><time>2026-04-19T09:37:56Z</time></trkpt><trkpt lat="50.65502566683783" lon="3.1529029053813744"><ele>24.0</ele><time>2026-04-19T09:37:58Z</time></trkpt><trkpt lat="50.65499443660888" lon="3.153070088127685"><ele>24.0</ele><time>2026-04-19T09:38:00Z</time></trkpt><trkpt lat="50.65496385305167" lon="3.1532272662443988"><ele>24.2</ele><time>2026-04-19T09:38:02Z</time></trkpt><trkpt lat="50.65492288789291" lon="3.1533818639372613"><ele>24.4</ele><time>2026-04-19T09:38:04Z</time></trkpt><trkpt lat="50.65487519295151" lon="3.153475675615293"><ele>24.6</ele><time>2026-04-19T09:38:06Z</time></trkpt><trkpt lat="50.654828318877286" lon="3.1535995497345177"><ele>24.8</ele><time>2026-04-19T09:38:07Z</time></trkpt><trkpt lat="50.654768552808825" lon="3.1537193658062095"><ele>25.0</ele><time>2026-04-19T09:38:09Z</time></trkpt><trkpt lat="50.65469614191728" lon="3.153848795495693"><ele>25.0</ele><time>2026-04-19T09:38:11Z</time></trkpt><trkpt lat="50.65462220875897" lon="3.153980051824922"><ele>25.0</ele><time>2026-04-19T09:38:13Z</time></trkpt><trkpt lat="50.65454941772889" lon="3.154119938535146"><ele>25.0</ele><time>2026-04-19T09:38:15Z</time></trkpt><trkpt lat="50.65447952830556" lon="3.1542528193030805"><ele>25.0</ele><time>2026-04-19T09:38:17Z</time></trkpt><trkpt lat="50.65440566032203" lon="3.154383991068396"><ele>25.0</ele><time>2026-04-19T09:38:19Z</time></trkpt><trkpt lat="50.65433285035655" lon="3.1545144153279643"><ele>24.5</ele><time>2026-04-19T09:38:21Z</time></trkpt><trkpt lat="50.6542563497787" lon="3.1546492070287635"><ele>24.0</ele><time>2026-04-19T09:38:23Z</time></trkpt><trkpt lat="50.654178562401555" lon="3.1547863857771072"><ele>23.5</ele><time>2026-04-19T09:38:25Z</time></trkpt><trkpt lat="50.65410597314315" lon="3.154931714451567"><ele>23.0</ele><time>2026-04-19T09:38:27Z</time></trkpt><trkpt lat="50.65402994255543" lon="3.155078318683292"><ele>23.0</ele><time>2026-04-19T09:38:29Z</time></trkpt><trkpt lat="50.65395389120204" lon="3.1552231318469146"><ele>23.0</ele><time>2026-04-19T09:38:31Z</time></trkpt><trkpt lat="50.65392159028877" lon="3.155308879913102"><ele>23.0</ele><time>2026-04-19T09:38:32Z</time></trkpt><trkpt lat="50.65385886873453" lon="3.1554654650815093"><ele>23.0</ele><time>2026-04-19T09:38:34Z</time></trkpt><trkpt lat="50.65379879204644" lon="3.1556293372996294"><ele>23.0</ele><time>2026-04-19T09:38:36Z</time></trkpt><trkpt lat="50.65376245688792" lon="3.155819752417208"><ele>22.799999999999997</ele><time>2026-04-19T09:38:38Z</time></trkpt><trkpt lat="50.65371946236647" lon="3.155998339176918"><ele>22.6</ele><time>2026-04-19T09:38:40Z</time></trkpt><trkpt lat="50.65367949112457" lon="3.15617729832707"><ele>22.4</ele><time>2026-04-19T09:38:42Z</time></trkpt><trkpt lat="50.65365883284249" lon="3.1562720110758584"><ele>22.200000000000003</ele><time>2026-04-19T09:38:43Z</time></trkpt><trkpt lat="50.65361053854996" lon="3.1564384148310403"><ele>22.0</ele><time>2026-04-19T09:38:45Z</time></trkpt><trkpt lat="50.65357240676373" lon="3.156518241684629"><ele>22.200000000000003</ele><time>2026-04-19T09:38:46Z</time></trkpt><trkpt lat="50.65353495806547" lon="3.1565993865014494"><ele>22.4</ele><time>2026-04-19T09:38:47Z</time></trkpt><trkpt lat="50.653469872765626" lon="3.156758917752601"><ele>22.6</ele><time>2026-04-19T09:38:49Z</time></trkpt><trkpt lat="50.65341225125977" lon="3.156927284326923"><ele>22.799999999999997</ele><time>2026-04-19T09:38:51Z</time></trkpt><trkpt lat="50.653357147423996" lon="3.157098802617694"><ele>23.0</ele><time>2026-04-19T09:38:53Z</time></trkpt><trkpt lat="50.65328795913086" lon="3.1572569909260144"><ele>23.0</ele><time>2026-04-19T09:38:55Z</time></trkpt><trkpt lat="50.65323107177213" lon="3.157423789125653"><ele>23.0</ele><time>2026-04-19T09:38:57Z</time></trkpt><trkpt lat="50.65316306105229" lon="3.157554791021042"><ele>23.0</ele><time>2026-04-19T09:38:59Z</time></trkpt><trkpt lat="50.65311945318535" lon="3.157708890517411"><ele>23.0</ele><time>2026-04-19T09:39:01Z</time></trkpt><trkpt lat="50.65308538023384" lon="3.157805025191865"><ele>23.0</ele><time>2026-04-19T09:39:02Z</time></trkpt><trkpt lat="50.653028259734626" lon="3.1579704647416764"><ele>23.0</ele><time>2026-04-19T09:39:04Z</time></trkpt><trkpt lat="50.65296711748889" lon="3.1581366071952597"><ele>23.0</ele><time>2026-04-19T09:39:06Z</time></trkpt><trkpt lat="50.6529200194075" lon="3.1583032199661387"><ele>23.0</ele><time>2026-04-19T09:39:08Z</time></trkpt><trkpt lat="50.652872076194754" lon="3.1584404856249773"><ele>23.0</ele><time>2026-04-19T09:39:10Z</time></trkpt><trkpt lat="50.65284152862348" lon="3.158530007479647"><ele>23.0</ele><time>2026-04-19T09:39:11Z</time></trkpt><trkpt lat="50.65278787666343" lon="3.158689377228207"><ele>23.2</ele><time>2026-04-19T09:39:13Z</time></trkpt><trkpt lat="50.65276294173197" lon="3.158785669775473"><ele>23.4</ele><time>2026-04-19T09:39:14Z</time></trkpt><trkpt lat="50.652717456104234" lon="3.158925693442152"><ele>23.599999999999998</ele><time>2026-04-19T09:39:16Z</time></trkpt><trkpt lat="50.652657375543704" lon="3.1590687461402416"><ele>23.799999999999997</ele><time>2026-04-19T09:39:18Z</time></trkpt><trkpt lat="50.6525887293629" lon="3.159186571434094"><ele>24.0</ele><time>2026-04-19T09:39:20Z</time></trkpt><trkpt lat="50.65251551104471" lon="3.1593005686091002"><ele>24.0</ele><time>2026-04-19T09:39:22Z</time></trkpt><trkpt lat="50.65244268056179" lon="3.1594112394322096"><ele>24.0</ele><time>2026-04-19T09:39:24Z</time></trkpt><trkpt lat="50.65235829470494" lon="3.159516142629038"><ele>24.0</ele><time>2026-04-19T09:39:26Z</time></trkpt><trkpt lat="50.65227316909129" lon="3.1596011150537864"><ele>24.0</ele><time>2026-04-19T09:39:28Z</time></trkpt><trkpt lat="50.65218545785113" lon="3.159662479063315"><ele>24.0</ele><time>2026-04-19T09:39:30Z</time></trkpt><trkpt lat="50.65209713764119" lon="3.1597219450030583"><ele>24.0</ele><time>2026-04-19T09:39:32Z</time></trkpt><trkpt lat="50.65199317951885" lon="3.159788249977667"><ele>24.0</ele><time>2026-04-19T09:39:34Z</time></trkpt><trkpt lat="50.651896253806164" lon="3.15985513707648"><ele>24.0</ele><time>2026-04-19T09:39:36Z</time></trkpt><trkpt lat="50.65179780364848" lon="3.1599247994375226"><ele>24.0</ele><time>2026-04-19T09:39:38Z</time></trkpt><trkpt lat="50.65169977553854" lon="3.1599907546511585"><ele>24.0</ele><time>2026-04-19T09:39:40Z</time></trkpt><trkpt lat="50.65159497920449" lon="3.160010860577282"><ele>24.2</ele><time>2026-04-19T09:39:42Z</time></trkpt><trkpt lat="50.651493506750114" lon="3.160035380240837"><ele>24.4</ele><time>2026-04-19T09:39:44Z</time></trkpt><trkpt lat="50.65140615278027" lon="3.1600698387326935"><ele>24.6</ele><time>2026-04-19T09:39:46Z</time></trkpt><trkpt lat="50.65129683697635" lon="3.160118360411689"><ele>24.8</ele><time>2026-04-19T09:39:48Z</time></trkpt><trkpt lat="50.651192592826106" lon="3.160177728227235"><ele>25.0</ele><time>2026-04-19T09:39:50Z</time></trkpt><trkpt lat="50.65108871358088" lon="3.1602415383938887"><ele>25.2</ele><time>2026-04-19T09:39:52Z</time></trkpt><trkpt lat="50.65099376744888" lon="3.1603104344972004"><ele>25.4</ele><time>2026-04-19T09:39:54Z</time></trkpt><trkpt lat="50.65091258072917" lon="3.160399094615842"><ele>25.6</ele><time>2026-04-19T09:39:56Z</time></trkpt><trkpt lat="50.65081932117988" lon="3.160494788083265"><ele>25.8</ele><time>2026-04-19T09:39:58Z</time></trkpt><trkpt lat="50.6507511438801" lon="3.1606197074356785"><ele>26.0</ele><time>2026-04-19T09:40:00Z</time></trkpt><trkpt lat="50.65067810001386" lon="3.1607658382019683"><ele>26.200000000000003</ele><time>2026-04-19T09:40:02Z</time></trkpt><trkpt lat="50.65062932929781" lon="3.160830284534913"><ele>26.400000000000002</ele><time>2026-04-19T09:40:03Z</time></trkpt><trkpt lat="50.65055383874668" lon="3.160963472166967"><ele>26.6</ele><time>2026-04-19T09:40:05Z</time></trkpt><trkpt lat="50.65050129566892" lon="3.1610264823871037"><ele>26.8</ele><time>2026-04-19T09:40:06Z</time></trkpt><trkpt lat="50.65043378710343" lon="3.1611725484292474"><ele>27.0</ele><time>2026-04-19T09:40:08Z</time></trkpt><trkpt lat="50.650350364492034" lon="3.161301675969339"><ele>26.5</ele><time>2026-04-19T09:40:10Z</time></trkpt><trkpt lat="50.65026274601028" lon="3.1614304657701577"><ele>26.0</ele><time>2026-04-19T09:40:12Z</time></trkpt><trkpt lat="50.650191018531515" lon="3.16155806837841"><ele>25.5</ele><time>2026-04-19T09:40:14Z</time></trkpt><trkpt lat="50.650106912373396" lon="3.1616841329130967"><ele>25.0</ele><time>2026-04-19T09:40:16Z</time></trkpt><trkpt lat="50.65004169994898" lon="3.161815884339706"><ele>25.000000000000004</ele><time>2026-04-19T09:40:18Z</time></trkpt><trkpt lat="50.64997139717784" lon="3.161953307225064"><ele>25.0</ele><time>2026-04-19T09:40:20Z</time></trkpt><trkpt lat="50.64991292098901" lon="3.162079071824531"><ele>25.0</ele><time>2026-04-19T09:40:22Z</time></trkpt><trkpt lat="50.649871927175184" lon="3.1621656122730495"><ele>25.0</ele><time>2026-04-19T09:40:24Z</time></trkpt><trkpt lat="50.64987738411175" lon="3.1622912174597673"><ele>25.000000000000004</ele><time>2026-04-19T09:40:27Z</time></trkpt><trkpt lat="50.64994599093438" lon="3.162317796957227"><ele>25.0</ele><time>2026-04-19T09:40:29Z</time></trkpt><trkpt lat="50.6499974208647" lon="3.162448543075473"><ele>24.8</ele><time>2026-04-19T09:40:31Z</time></trkpt><trkpt lat="50.650055057603865" lon="3.1625443305801375"><ele>24.6</ele><time>2026-04-19T09:40:33Z</time></trkpt><trkpt lat="50.65011039417432" lon="3.1626718723775924"><ele>24.4</ele><time>2026-04-19T09:40:35Z</time></trkpt><trkpt lat="50.65016935298227" lon="3.1628179943088375"><ele>24.2</ele><time>2026-04-19T09:40:37Z</time></trkpt><trkpt lat="50.65020520327253" lon="3.1629788874538267"><ele>24.0</ele><time>2026-04-19T09:40:39Z</time></trkpt><trkpt lat="50.65024263115686" lon="3.1631452066168353"><ele>23.799999999999997</ele><time>2026-04-19T09:40:41Z</time></trkpt><trkpt lat="50.65027899385146" lon="3.163307656529579"><ele>23.599999999999998</ele><time>2026-04-19T09:40:43Z</time></trkpt><trkpt lat="50.650308133058886" lon="3.163488685647286"><ele>23.4</ele><time>2026-04-19T09:40:45Z</time></trkpt><trkpt lat="50.65034838290616" lon="3.1636517386800547"><ele>23.2</ele><time>2026-04-19T09:40:47Z</time></trkpt><trkpt lat="50.650387460681344" lon="3.163811816048868"><ele>23.0</ele><time>2026-04-19T09:40:49Z</time></trkpt><trkpt lat="50.65042615977139" lon="3.1639517129172146"><ele>23.2</ele><time>2026-04-19T09:40:51Z</time></trkpt><trkpt lat="50.65044229387983" lon="3.164056465675414"><ele>23.4</ele><time>2026-04-19T09:40:52Z</time></trkpt><trkpt lat="50.65048142597105" lon="3.164232709757973"><ele>23.599999999999998</ele><time>2026-04-19T09:40:54Z</time></trkpt><trkpt lat="50.65052824860263" lon="3.164398283409812"><ele>23.799999999999997</ele><time>2026-04-19T09:40:56Z</time></trkpt><trkpt lat="50.65057061854748" lon="3.164565117483297"><ele>24.0</ele><time>2026-04-19T09:40:58Z</time></trkpt><trkpt lat="50.65059949105383" lon="3.1647394192370055"><ele>24.0</ele><time>2026-04-19T09:41:00Z</time></trkpt><trkpt lat="50.650628680127085" lon="3.1648349653013916"><ele>24.0</ele><time>2026-04-19T09:41:01Z</time></trkpt><trkpt lat="50.65063817926816" lon="3.164992056885126"><ele>24.0</ele><time>2026-04-19T09:41:03Z</time></trkpt><trkpt lat="50.650649715747036" lon="3.165164085679676"><ele>24.0</ele><time>2026-04-19T09:41:05Z</time></trkpt><trkpt lat="50.6506660868254" lon="3.1653277512838867"><ele>24.0</ele><time>2026-04-19T09:41:07Z</time></trkpt><trkpt lat="50.65067510326235" lon="3.165495821072133"><ele>24.0</ele><time>2026-04-19T09:41:09Z</time></trkpt><trkpt lat="50.65068622131427" lon="3.1656686449985227"><ele>24.0</ele><time>2026-04-19T09:41:11Z</time></trkpt><trkpt lat="50.650698229697014" lon="3.165838686164865"><ele>24.0</ele><time>2026-04-19T09:41:13Z</time></trkpt><trkpt lat="50.650712317544766" lon="3.166007279395379"><ele>24.0</ele><time>2026-04-19T09:41:15Z</time></trkpt><trkpt lat="50.65071628633177" lon="3.1661796067385453"><ele>24.0</ele><time>2026-04-19T09:41:17Z</time></trkpt><trkpt lat="50.65070961780227" lon="3.166332972628319"><ele>24.0</ele><time>2026-04-19T09:41:19Z</time></trkpt><trkpt lat="50.650674859453076" lon="3.1665078779030753"><ele>24.0</ele><time>2026-04-19T09:41:21Z</time></trkpt><trkpt lat="50.65064929626051" lon="3.1666695093160087"><ele>24.0</ele><time>2026-04-19T09:41:23Z</time></trkpt><trkpt lat="50.65061195108359" lon="3.166827574703231"><ele>24.0</ele><time>2026-04-19T09:41:25Z</time></trkpt><trkpt lat="50.65055358233736" lon="3.1669686542631132"><ele>24.0</ele><time>2026-04-19T09:41:27Z</time></trkpt><trkpt lat="50.65045809025986" lon="3.16704924133787"><ele>24.0</ele><time>2026-04-19T09:41:29Z</time></trkpt><trkpt lat="50.65036220811651" lon="3.167136822232084"><ele>24.0</ele><time>2026-04-19T09:41:31Z</time></trkpt><trkpt lat="50.650296703745084" lon="3.167277647847073"><ele>24.0</ele><time>2026-04-19T09:41:33Z</time></trkpt><trkpt lat="50.650262668913896" lon="3.167449825839478"><ele>24.0</ele><time>2026-04-19T09:41:35Z</time></trkpt><trkpt lat="50.65026669541688" lon="3.1676354005099"><ele>24.5</ele><time>2026-04-19T09:41:37Z</time></trkpt><trkpt lat="50.65031345888683" lon="3.1678089824924305"><ele>25.0</ele><time>2026-04-19T09:41:39Z</time></trkpt><trkpt lat="50.65039767679603" lon="3.16793829228627"><ele>25.5</ele><time>2026-04-19T09:41:41Z</time></trkpt><trkpt lat="50.65049776728093" lon="3.1680377615270414"><ele>26.0</ele><time>2026-04-19T09:41:43Z</time></trkpt><trkpt lat="50.65055915512537" lon="3.168204377262847"><ele>25.200000000000003</ele><time>2026-04-19T09:41:45Z</time></trkpt><trkpt lat="50.65056418291922" lon="3.1683092234902936"><ele>24.400000000000002</ele><time>2026-04-19T09:41:46Z</time></trkpt><trkpt lat="50.65059434783388" lon="3.168401172444583"><ele>23.6</ele><time>2026-04-19T09:41:47Z</time></trkpt><trkpt lat="50.65058654094325" lon="3.1685854586298654"><ele>22.8</ele><time>2026-04-19T09:41:49Z</time></trkpt><trkpt lat="50.65059899992282" lon="3.168767241044289"><ele>22.0</ele><time>2026-04-19T09:41:51Z</time></trkpt><trkpt lat="50.650618315032936" lon="3.1689480253637248"><ele>21.8</ele><time>2026-04-19T09:41:53Z</time></trkpt><trkpt lat="50.65063969859105" lon="3.169119408141995"><ele>21.6</ele><time>2026-04-19T09:41:55Z</time></trkpt><trkpt lat="50.65066125010681" lon="3.169289355920054"><ele>21.400000000000002</ele><time>2026-04-19T09:41:57Z</time></trkpt><trkpt lat="50.65068307862043" lon="3.1694614879807785"><ele>21.200000000000003</ele><time>2026-04-19T09:41:59Z</time></trkpt><trkpt lat="50.650705106685656" lon="3.169635193599097"><ele>21.0</ele><time>2026-04-19T09:42:01Z</time></trkpt><trkpt lat="50.6507264128531" lon="3.16981024487581"><ele>21.4</ele><time>2026-04-19T09:42:03Z</time></trkpt><trkpt lat="50.650744721253275" lon="3.169977797577471"><ele>21.8</ele><time>2026-04-19T09:42:05Z</time></trkpt><trkpt lat="50.65076268163855" lon="3.1701489616349736"><ele>22.2</ele><time>2026-04-19T09:42:07Z</time></trkpt><trkpt lat="50.650778754235304" lon="3.1703053536265218"><ele>22.599999999999998</ele><time>2026-04-19T09:42:09Z</time></trkpt><trkpt lat="50.65079352421728" lon="3.170450447036695"><ele>23.0</ele><time>2026-04-19T09:42:11Z</time></trkpt><trkpt lat="50.65080845187395" lon="3.1705884158898114"><ele>23.833333333333336</ele><time>2026-04-19T09:42:13Z</time></trkpt><trkpt lat="50.650828602653384" lon="3.1707159217346446"><ele>24.666666666666668</ele><time>2026-04-19T09:42:15Z</time></trkpt><trkpt lat="50.650852185219605" lon="3.1708297892495225"><ele>25.5</ele><time>2026-04-19T09:42:17Z</time></trkpt><trkpt lat="50.65088913236864" lon="3.170965868434389"><ele>26.333333333333336</ele><time>2026-04-19T09:42:20Z</time></trkpt><trkpt lat="50.650922893066785" lon="3.1710596446169292"><ele>27.166666666666668</ele><time>2026-04-19T09:42:22Z</time></trkpt><trkpt lat="50.65096410712168" lon="3.1711519067743543"><ele>28.0</ele><time>2026-04-19T09:42:24Z</time></trkpt><trkpt lat="50.651029687915404" lon="3.1712662951299184"><ele>28.000000000000004</ele><time>2026-04-19T09:42:26Z</time></trkpt><trkpt lat="50.65111416249566" lon="3.1713828732834073"><ele>28.0</ele><time>2026-04-19T09:42:28Z</time></trkpt><trkpt lat="50.651211556358604" lon="3.1714942822893817"><ele>28.0</ele><time>2026-04-19T09:42:30Z</time></trkpt><trkpt lat="50.65126463731012" lon="3.1715521821901462"><ele>28.0</ele><time>2026-04-19T09:42:31Z</time></trkpt><trkpt lat="50.65131817090946" lon="3.1716061518608787"><ele>28.000000000000004</ele><time>2026-04-19T09:42:32Z</time></trkpt><trkpt lat="50.65137151423845" lon="3.171660674438926"><ele>28.0</ele><time>2026-04-19T09:42:33Z</time></trkpt><trkpt lat="50.651470842441654" lon="3.171762198525777"><ele>26.599999999999998</ele><time>2026-04-19T09:42:35Z</time></trkpt><trkpt lat="50.65157088260395" lon="3.17183997804627"><ele>25.199999999999996</ele><time>2026-04-19T09:42:37Z</time></trkpt><trkpt lat="50.65165888505039" lon="3.171935718657628"><ele>23.8</ele><time>2026-04-19T09:42:39Z</time></trkpt><trkpt lat="50.65174705127892" lon="3.1720444154497183"><ele>22.4</ele><time>2026-04-19T09:42:41Z</time></trkpt><trkpt lat="50.65181942707342" lon="3.172169729037253"><ele>21.0</ele><time>2026-04-19T09:42:43Z</time></trkpt><trkpt lat="50.6519006112423" lon="3.1722822947357656"><ele>20.8</ele><time>2026-04-19T09:42:45Z</time></trkpt><trkpt lat="50.65198197390947" lon="3.1723976212003446"><ele>20.6</ele><time>2026-04-19T09:42:47Z</time></trkpt><trkpt lat="50.65206526585483" lon="3.1725138397705703"><ele>20.4</ele><time>2026-04-19T09:42:49Z</time></trkpt><trkpt lat="50.65214714535768" lon="3.172625168104501"><ele>20.2</ele><time>2026-04-19T09:42:51Z</time></trkpt><trkpt lat="50.65223566233316" lon="3.1727336215350066"><ele>20.0</ele><time>2026-04-19T09:42:53Z</time></trkpt><trkpt lat="50.65232646003966" lon="3.1728361851636575"><ele>20.0</ele><time>2026-04-19T09:42:55Z</time></trkpt><trkpt lat="50.65241904893572" lon="3.1729357568399634"><ele>20.0</ele><time>2026-04-19T09:42:57Z</time></trkpt><trkpt lat="50.65251298891191" lon="3.1730310783671247"><ele>20.0</ele><time>2026-04-19T09:42:59Z</time></trkpt><trkpt lat="50.65260815191018" lon="3.173111254927989"><ele>20.0</ele><time>2026-04-19T09:43:01Z</time></trkpt><trkpt lat="50.65271011612846" lon="3.173174476022039"><ele>20.0</ele><time>2026-04-19T09:43:03Z</time></trkpt><trkpt lat="50.65281382847111" lon="3.17321898817186"><ele>20.4</ele><time>2026-04-19T09:43:05Z</time></trkpt><trkpt lat="50.652915489558126" lon="3.173262831775144"><ele>20.8</ele><time>2026-04-19T09:43:07Z</time></trkpt><trkpt lat="50.65298980640025" lon="3.17323317527478"><ele>21.200000000000003</ele><time>2026-04-19T09:43:08Z</time></trkpt><trkpt lat="50.65309309018703" lon="3.173216433080616"><ele>21.6</ele><time>2026-04-19T09:43:10Z</time></trkpt><trkpt lat="50.653196936993616" lon="3.173174166773724"><ele>22.0</ele><time>2026-04-19T09:43:12Z</time></trkpt><trkpt lat="50.65329971513446" lon="3.1731620117091075"><ele>22.0</ele><time>2026-04-19T09:43:14Z</time></trkpt><trkpt lat="50.653395168064414" lon="3.1731393117043085"><ele>22.0</ele><time>2026-04-19T09:43:16Z</time></trkpt><trkpt lat="50.65348830175914" lon="3.173099703125028"><ele>22.0</ele><time>2026-04-19T09:43:18Z</time></trkpt><trkpt lat="50.653589914297" lon="3.1730832745859807"><ele>22.0</ele><time>2026-04-19T09:43:20Z</time></trkpt><trkpt lat="50.65368158364927" lon="3.1730661734862284"><ele>22.0</ele><time>2026-04-19T09:43:22Z</time></trkpt><trkpt lat="50.65377151140233" lon="3.1730472938399643"><ele>22.0</ele><time>2026-04-19T09:43:24Z</time></trkpt><trkpt lat="50.65387109157027" lon="3.1730424603995586"><ele>22.0</ele><time>2026-04-19T09:43:26Z</time></trkpt><trkpt lat="50.6539750576737" lon="3.1730474392118007"><ele>22.0</ele><time>2026-04-19T09:43:28Z</time></trkpt><trkpt lat="50.65406615768017" lon="3.1730520938840736"><ele>22.0</ele><time>2026-04-19T09:43:30Z</time></trkpt><trkpt lat="50.654164313130345" lon="3.173059429587696"><ele>22.0</ele><time>2026-04-19T09:43:32Z</time></trkpt><trkpt lat="50.65426362612994" lon="3.173051306071289"><ele>22.0</ele><time>2026-04-19T09:43:34Z</time></trkpt><trkpt lat="50.654356609097434" lon="3.1730497830852333"><ele>22.0</ele><time>2026-04-19T09:43:36Z</time></trkpt><trkpt lat="50.65445158092938" lon="3.173094421702013"><ele>22.0</ele><time>2026-04-19T09:43:38Z</time></trkpt><trkpt lat="50.65450902956514" lon="3.1733045285604016"><ele>22.0</ele><time>2026-04-19T09:43:41Z</time></trkpt><trkpt lat="50.6545599521487" lon="3.173504361268929"><ele>22.8</ele><time>2026-04-19T09:43:43Z</time></trkpt><trkpt lat="50.65458622315452" lon="3.173638144326462"><ele>23.6</ele><time>2026-04-19T09:43:45Z</time></trkpt><trkpt lat="50.654608821461025" lon="3.1738056951417373"><ele>24.400000000000002</ele><time>2026-04-19T09:43:47Z</time></trkpt><trkpt lat="50.654635880674526" lon="3.1739664633879596"><ele>25.200000000000003</ele><time>2026-04-19T09:43:49Z</time></trkpt><trkpt lat="50.65467359748936" lon="3.174120923601717"><ele>26.0</ele><time>2026-04-19T09:43:51Z</time></trkpt><trkpt lat="50.654691700037134" lon="3.174298132363117"><ele>26.0</ele><time>2026-04-19T09:43:53Z</time></trkpt><trkpt lat="50.65472613040023" lon="3.174466820753928"><ele>26.0</ele><time>2026-04-19T09:43:55Z</time></trkpt><trkpt lat="50.65475175329085" lon="3.1746191442830676"><ele>26.0</ele><time>2026-04-19T09:43:57Z</time></trkpt><trkpt lat="50.654773735093634" lon="3.174731382175856"><ele>26.0</ele><time>2026-04-19T09:43:58Z</time></trkpt><trkpt lat="50.65480194764573" lon="3.174907061486904"><ele>26.0</ele><time>2026-04-19T09:44:00Z</time></trkpt><trkpt lat="50.65483672225149" lon="3.1750780480801195"><ele>26.0</ele><time>2026-04-19T09:44:02Z</time></trkpt><trkpt lat="50.65487041102858" lon="3.175262233199753"><ele>26.0</ele><time>2026-04-19T09:44:04Z</time></trkpt><trkpt lat="50.65490405598324" lon="3.1754397823573193"><ele>26.0</ele><time>2026-04-19T09:44:06Z</time></trkpt><trkpt lat="50.654932844027726" lon="3.175619011484615"><ele>26.0</ele><time>2026-04-19T09:44:08Z</time></trkpt><trkpt lat="50.65494989887366" lon="3.175716915529667"><ele>26.0</ele><time>2026-04-19T09:44:09Z</time></trkpt><trkpt lat="50.65497310119173" lon="3.1758129794279557"><ele>25.999999999999996</ele><time>2026-04-19T09:44:10Z</time></trkpt><trkpt lat="50.65501969840963" lon="3.1759954480322503"><ele>26.0</ele><time>2026-04-19T09:44:12Z</time></trkpt><trkpt lat="50.65506420849617" lon="3.1761511676270824"><ele>26.0</ele><time>2026-04-19T09:44:14Z</time></trkpt><trkpt lat="50.65507794154147" lon="3.176249528788265"><ele>26.0</ele><time>2026-04-19T09:44:15Z</time></trkpt><trkpt lat="50.65510033814214" lon="3.1763511288201838"><ele>25.999999999999996</ele><time>2026-04-19T09:44:16Z</time></trkpt><trkpt lat="50.65511855989473" lon="3.176451371981044"><ele>26.0</ele><time>2026-04-19T09:44:17Z</time></trkpt><trkpt lat="50.655139784837715" lon="3.1765451742372823"><ele>25.75</ele><time>2026-04-19T09:44:18Z</time></trkpt><trkpt lat="50.65516869687971" lon="3.1767259746694467"><ele>25.5</ele><time>2026-04-19T09:44:20Z</time></trkpt><trkpt lat="50.655172990508504" lon="3.1769297064165736"><ele>25.25</ele><time>2026-04-19T09:44:22Z</time></trkpt><trkpt lat="50.65516808476399" lon="3.1770982905218723"><ele>25.0</ele><time>2026-04-19T09:44:24Z</time></trkpt><trkpt lat="50.655154939949355" lon="3.1772609238611897"><ele>25.2</ele><time>2026-04-19T09:44:26Z</time></trkpt><trkpt lat="50.655145347527416" lon="3.1774280098847365"><ele>25.4</ele><time>2026-04-19T09:44:28Z</time></trkpt><trkpt lat="50.65509907435956" lon="3.177565315288391"><ele>25.6</ele><time>2026-04-19T09:44:30Z</time></trkpt><trkpt lat="50.65507926650659" lon="3.1777082983550717"><ele>25.8</ele><time>2026-04-19T09:44:32Z</time></trkpt><trkpt lat="50.655035329064134" lon="3.177820942762978"><ele>26.0</ele><time>2026-04-19T09:44:34Z</time></trkpt><trkpt lat="50.655006566808694" lon="3.177962464732643"><ele>25.999999999999996</ele><time>2026-04-19T09:44:36Z</time></trkpt><trkpt lat="50.654963917009496" lon="3.1780957017811016"><ele>26.0</ele><time>2026-04-19T09:44:38Z</time></trkpt><trkpt lat="50.65491268489434" lon="3.178215970234007"><ele>26.0</ele><time>2026-04-19T09:44:40Z</time></trkpt><trkpt lat="50.654884936583834" lon="3.1783469261323263"><ele>26.0</ele><time>2026-04-19T09:44:42Z</time></trkpt><trkpt lat="50.65484793521875" lon="3.1784618304232017"><ele>25.999999999999996</ele><time>2026-04-19T09:44:44Z</time></trkpt><trkpt lat="50.654809504723815" lon="3.1785769744539785"><ele>26.0</ele><time>2026-04-19T09:44:46Z</time></trkpt><trkpt lat="50.654770527316614" lon="3.1786966173366875"><ele>25.999999999999996</ele><time>2026-04-19T09:44:48Z</time></trkpt><trkpt lat="50.654723570709045" lon="3.178800321519859"><ele>26.0</ele><time>2026-04-19T09:44:50Z</time></trkpt><trkpt lat="50.654671391476974" lon="3.178906211928895"><ele>26.0</ele><time>2026-04-19T09:44:52Z</time></trkpt><trkpt lat="50.65460893595904" lon="3.1790002114493134"><ele>26.0</ele><time>2026-04-19T09:44:54Z</time></trkpt><trkpt lat="50.65454966907574" lon="3.1790924937981946"><ele>25.999999999999996</ele><time>2026-04-19T09:44:56Z</time></trkpt><trkpt lat="50.65448887811713" lon="3.1791897459590004"><ele>26.0</ele><time>2026-04-19T09:44:58Z</time></trkpt><trkpt lat="50.65442299551161" lon="3.1792946255540553"><ele>25.999999999999996</ele><time>2026-04-19T09:45:00Z</time></trkpt><trkpt lat="50.654359418973286" lon="3.1794110914697398"><ele>26.0</ele><time>2026-04-19T09:45:02Z</time></trkpt><trkpt lat="50.654319284907146" lon="3.17951557855991"><ele>26.0</ele><time>2026-04-19T09:45:04Z</time></trkpt><trkpt lat="50.65428801802571" lon="3.179635029757355"><ele>26.0</ele><time>2026-04-19T09:45:06Z</time></trkpt><trkpt lat="50.65425927636942" lon="3.1797518907840887"><ele>25.999999999999996</ele><time>2026-04-19T09:45:08Z</time></trkpt><trkpt lat="50.65423927064461" lon="3.1798736597068817"><ele>26.0</ele><time>2026-04-19T09:45:10Z</time></trkpt><trkpt lat="50.654228046932346" lon="3.180008957657148"><ele>26.333333333333332</ele><time>2026-04-19T09:45:12Z</time></trkpt><trkpt lat="50.654218263134084" lon="3.180126748897381"><ele>26.666666666666664</ele><time>2026-04-19T09:45:14Z</time></trkpt><trkpt lat="50.65421533553043" lon="3.180230585018228"><ele>27.0</ele><time>2026-04-19T09:45:16Z</time></trkpt><trkpt lat="50.65422059139139" lon="3.1803767596719066"><ele>27.333333333333336</ele><time>2026-04-19T09:45:19Z</time></trkpt><trkpt lat="50.65421018809891" lon="3.180488042749247"><ele>27.666666666666668</ele><time>2026-04-19T09:45:21Z</time></trkpt><trkpt lat="50.65423324092893" lon="3.1806107363467735"><ele>28.0</ele><time>2026-04-19T09:45:23Z</time></trkpt><trkpt lat="50.65424316440033" lon="3.1807359258774675"><ele>28.42857142857143</ele><time>2026-04-19T09:45:25Z</time></trkpt><trkpt lat="50.6542596157766" lon="3.180858604224348"><ele>28.857142857142858</ele><time>2026-04-19T09:45:27Z</time></trkpt><trkpt lat="50.65427258436472" lon="3.1809733689425848"><ele>29.285714285714285</ele><time>2026-04-19T09:45:29Z</time></trkpt><trkpt lat="50.65429587861706" lon="3.1810815862607407"><ele>29.714285714285715</ele><time>2026-04-19T09:45:31Z</time></trkpt><trkpt lat="50.65431484096305" lon="3.1811917526679463"><ele>30.142857142857146</ele><time>2026-04-19T09:45:33Z</time></trkpt><trkpt lat="50.654328397496435" lon="3.1812953517484313"><ele>30.571428571428573</ele><time>2026-04-19T09:45:35Z</time></trkpt><trkpt lat="50.65434023286407" lon="3.1814025234749326"><ele>31.0</ele><time>2026-04-19T09:45:37Z</time></trkpt><trkpt lat="50.65434871426509" lon="3.1815205174898824"><ele>31.166666666666668</ele><time>2026-04-19T09:45:39Z</time></trkpt><trkpt lat="50.6543711857776" lon="3.1816362525559523"><ele>31.333333333333336</ele><time>2026-04-19T09:45:41Z</time></trkpt><trkpt lat="50.65438731553269" lon="3.181750595551232"><ele>31.5</ele><time>2026-04-19T09:45:43Z</time></trkpt><trkpt lat="50.65441186899723" lon="3.1818742450122435"><ele>31.666666666666664</ele><time>2026-04-19T09:45:45Z</time></trkpt><trkpt lat="50.654413786427966" lon="3.181995408007927"><ele>31.833333333333332</ele><time>2026-04-19T09:45:47Z</time></trkpt><trkpt lat="50.65440713821509" lon="3.182120039458616"><ele>32.0</ele><time>2026-04-19T09:45:49Z</time></trkpt><trkpt lat="50.654400333509855" lon="3.182249147900496"><ele>31.999999999999996</ele><time>2026-04-19T09:45:51Z</time></trkpt><trkpt lat="50.654390712131566" lon="3.182393853757425"><ele>32.0</ele><time>2026-04-19T09:45:53Z</time></trkpt><trkpt lat="50.654363768071946" lon="3.182530311227147"><ele>32.0</ele><time>2026-04-19T09:45:55.001Z</time></trkpt><trkpt lat="50.65433509308449" lon="3.182650095220934"><ele>32.0</ele><time>2026-04-19T09:45:57.001Z</time></trkpt><trkpt lat="50.65430321703293" lon="3.182770353269385"><ele>31.999999999999996</ele><time>2026-04-19T09:45:59.001Z</time></trkpt><trkpt lat="50.6542658219264" lon="3.1828728411264415"><ele>32.0</ele><time>2026-04-19T09:46:01.001Z</time></trkpt><trkpt lat="50.65422450041283" lon="3.183026958870416"><ele>31.999999999999996</ele><time>2026-04-19T09:46:04Z</time></trkpt><trkpt lat="50.65417915164208" lon="3.183124411402641"><ele>32.0</ele><time>2026-04-19T09:46:06Z</time></trkpt><trkpt lat="50.65412789755001" lon="3.183220392697992"><ele>32.0</ele><time>2026-04-19T09:46:08Z</time></trkpt><trkpt lat="50.65409937967621" lon="3.1833226201868827"><ele>32.0</ele><time>2026-04-19T09:46:10Z</time></trkpt><trkpt lat="50.654066095467066" lon="3.183469005187796"><ele>31.999999999999996</ele><time>2026-04-19T09:46:13Z</time></trkpt><trkpt lat="50.654035980511004" lon="3.183605091137142"><ele>32.0</ele><time>2026-04-19T09:46:15Z</time></trkpt><trkpt lat="50.65397773853701" lon="3.1837298327844623"><ele>32.2</ele><time>2026-04-19T09:46:17Z</time></trkpt><trkpt lat="50.65393496729325" lon="3.1838640803127958"><ele>32.400000000000006</ele><time>2026-04-19T09:46:19Z</time></trkpt><trkpt lat="50.65389601670817" lon="3.1840060809398087"><ele>32.599999999999994</ele><time>2026-04-19T09:46:21Z</time></trkpt><trkpt lat="50.65384928610514" lon="3.184154158085372"><ele>32.8</ele><time>2026-04-19T09:46:23Z</time></trkpt><trkpt lat="50.6538020985969" lon="3.1843093504806865"><ele>33.0</ele><time>2026-04-19T09:46:25Z</time></trkpt><trkpt lat="50.65374877764009" lon="3.1844599051527744"><ele>33.0</ele><time>2026-04-19T09:46:27Z</time></trkpt><trkpt lat="50.6536896312397" lon="3.184622630363702"><ele>33.0</ele><time>2026-04-19T09:46:29Z</time></trkpt><trkpt lat="50.65363690829784" lon="3.1847896245592926"><ele>33.0</ele><time>2026-04-19T09:46:31Z</time></trkpt><trkpt lat="50.653581323966115" lon="3.1849595849189365"><ele>33.0</ele><time>2026-04-19T09:46:33Z</time></trkpt><trkpt lat="50.65352457828623" lon="3.185125562914539"><ele>33.0</ele><time>2026-04-19T09:46:35Z</time></trkpt><trkpt lat="50.65348026998152" lon="3.1852487359274857"><ele>33.0</ele><time>2026-04-19T09:46:37Z</time></trkpt><trkpt lat="50.65345404246507" lon="3.1853404903494686"><ele>33.0</ele><time>2026-04-19T09:46:38Z</time></trkpt><trkpt lat="50.65338753611339" lon="3.1854967991714234"><ele>33.0</ele><time>2026-04-19T09:46:40Z</time></trkpt><trkpt lat="50.65331956045275" lon="3.185642096034395"><ele>33.0</ele><time>2026-04-19T09:46:42Z</time></trkpt><trkpt lat="50.65326894319518" lon="3.185805642385491"><ele>33.0</ele><time>2026-04-19T09:46:44Z</time></trkpt><trkpt lat="50.6532177717889" lon="3.185965873585679"><ele>33.0</ele><time>2026-04-19T09:46:46Z</time></trkpt><trkpt lat="50.65313561101473" lon="3.186109856909617"><ele>33.0</ele><time>2026-04-19T09:46:48Z</time></trkpt><trkpt lat="50.65306476495342" lon="3.1862390662597027"><ele>33.0</ele><time>2026-04-19T09:46:50Z</time></trkpt><trkpt lat="50.65297667943914" lon="3.186368897053873"><ele>32.75</ele><time>2026-04-19T09:46:52Z</time></trkpt><trkpt lat="50.65289189184116" lon="3.186514104109024"><ele>32.5</ele><time>2026-04-19T09:46:54Z</time></trkpt><trkpt lat="50.65280680935719" lon="3.1866398265665064"><ele>32.25</ele><time>2026-04-19T09:46:56Z</time></trkpt><trkpt lat="50.65273238235035" lon="3.186775889292589"><ele>32.0</ele><time>2026-04-19T09:46:58Z</time></trkpt><trkpt lat="50.652642022215645" lon="3.1869031473654115"><ele>32.0</ele><time>2026-04-19T09:47:00Z</time></trkpt><trkpt lat="50.652562335632744" lon="3.187037662121976"><ele>32.0</ele><time>2026-04-19T09:47:02Z</time></trkpt><trkpt lat="50.65247108170798" lon="3.1871849572242223"><ele>32.0</ele><time>2026-04-19T09:47:04Z</time></trkpt><trkpt lat="50.65239293006101" lon="3.1873322199815544"><ele>32.0</ele><time>2026-04-19T09:47:06Z</time></trkpt><trkpt lat="50.65235059695988" lon="3.187408534221216"><ele>32.0</ele><time>2026-04-19T09:47:07Z</time></trkpt><trkpt lat="50.65226637975645" lon="3.1875537692563536"><ele>32.0</ele><time>2026-04-19T09:47:09Z</time></trkpt><trkpt lat="50.65218221814469" lon="3.1876978479096394"><ele>32.0</ele><time>2026-04-19T09:47:11Z</time></trkpt><trkpt lat="50.65210893948133" lon="3.1878436438043036"><ele>32.0</ele><time>2026-04-19T09:47:13Z</time></trkpt><trkpt lat="50.652024764242505" lon="3.187986791544514"><ele>32.0</ele><time>2026-04-19T09:47:15Z</time></trkpt><trkpt lat="50.65194380508566" lon="3.188126696474035"><ele>31.75</ele><time>2026-04-19T09:47:17Z</time></trkpt><trkpt lat="50.65186344014227" lon="3.18827295484514"><ele>31.5</ele><time>2026-04-19T09:47:19Z</time></trkpt><trkpt lat="50.65178498212774" lon="3.188411895130681"><ele>31.25</ele><time>2026-04-19T09:47:21Z</time></trkpt><trkpt lat="50.65170426770014" lon="3.1885489766922577"><ele>31.0</ele><time>2026-04-19T09:47:23Z</time></trkpt><trkpt lat="50.65163748790286" lon="3.188679739135682"><ele>31.0</ele><time>2026-04-19T09:47:25Z</time></trkpt><trkpt lat="50.65156699044014" lon="3.1888142416979286"><ele>31.0</ele><time>2026-04-19T09:47:27Z</time></trkpt><trkpt lat="50.6514928714616" lon="3.18894716822053"><ele>31.0</ele><time>2026-04-19T09:47:29Z</time></trkpt><trkpt lat="50.65141612448069" lon="3.1890906999383746"><ele>31.0</ele><time>2026-04-19T09:47:31Z</time></trkpt><trkpt lat="50.65134285152441" lon="3.189238180409534"><ele>31.0</ele><time>2026-04-19T09:47:33Z</time></trkpt><trkpt lat="50.651261407003865" lon="3.189383767234284"><ele>31.0</ele><time>2026-04-19T09:47:35Z</time></trkpt><trkpt lat="50.65117951041213" lon="3.1895211990563195"><ele>31.0</ele><time>2026-04-19T09:47:37Z</time></trkpt><trkpt lat="50.65108674941863" lon="3.1896524424416377"><ele>31.0</ele><time>2026-04-19T09:47:39Z</time></trkpt><trkpt lat="50.65103968102013" lon="3.1897213050083213"><ele>31.0</ele><time>2026-04-19T09:47:40Z</time></trkpt><trkpt lat="50.65100087595834" lon="3.1898110447293555"><ele>31.4</ele><time>2026-04-19T09:47:41Z</time></trkpt><trkpt lat="50.650937380762294" lon="3.1899567726258184"><ele>31.8</ele><time>2026-04-19T09:47:43Z</time></trkpt><trkpt lat="50.65090692079542" lon="3.19004444689127"><ele>32.199999999999996</ele><time>2026-04-19T09:47:44Z</time></trkpt><trkpt lat="50.65088501748105" lon="3.1902413639027016"><ele>32.6</ele><time>2026-04-19T09:47:46Z</time></trkpt><trkpt lat="50.650852517246285" lon="3.190423928678323"><ele>33.0</ele><time>2026-04-19T09:47:48Z</time></trkpt><trkpt lat="50.65081516439393" lon="3.190591658755347"><ele>33.5</ele><time>2026-04-19T09:47:50Z</time></trkpt><trkpt lat="50.65077421795083" lon="3.1907633547337264"><ele>34.0</ele><time>2026-04-19T09:47:52Z</time></trkpt><trkpt lat="50.65072100553237" lon="3.190932326060625"><ele>34.5</ele><time>2026-04-19T09:47:54Z</time></trkpt><trkpt lat="50.65065110829801" lon="3.191070697054401"><ele>35.0</ele><time>2026-04-19T09:47:56Z</time></trkpt><trkpt lat="50.65059426330688" lon="3.191224451139093"><ele>35.0</ele><time>2026-04-19T09:47:58Z</time></trkpt><trkpt lat="50.65048971706664" lon="3.191308553312262"><ele>35.0</ele><time>2026-04-19T09:48:00Z</time></trkpt><trkpt lat="50.65037005934582" lon="3.1912683058403304"><ele>35.0</ele><time>2026-04-19T09:48:02Z</time></trkpt><trkpt lat="50.650301559693354" lon="3.1912407373977096"><ele>35.0</ele><time>2026-04-19T09:48:03Z</time></trkpt><trkpt lat="50.65023179103321" lon="3.191248054278106"><ele>35.0</ele><time>2026-04-19T09:48:04Z</time></trkpt><trkpt lat="50.65016522099334" lon="3.191250896181974"><ele>35.0</ele><time>2026-04-19T09:48:05Z</time></trkpt><trkpt lat="50.65009609314098" lon="3.1912585434830163"><ele>34.857142857142854</ele><time>2026-04-19T09:48:06Z</time></trkpt><trkpt lat="50.650024471283366" lon="3.1912874956593726"><ele>34.714285714285715</ele><time>2026-04-19T09:48:07Z</time></trkpt><trkpt lat="50.64995698374524" lon="3.1913236361790207"><ele>34.57142857142857</ele><time>2026-04-19T09:48:08Z</time></trkpt><trkpt lat="50.649895554046935" lon="3.1913591435894704"><ele>34.42857142857143</ele><time>2026-04-19T09:48:09Z</time></trkpt><trkpt lat="50.64983210717465" lon="3.191420194679807"><ele>34.285714285714285</ele><time>2026-04-19T09:48:10Z</time></trkpt><trkpt lat="50.649767602698006" lon="3.1914421570441354"><ele>34.14285714285714</ele><time>2026-04-19T09:48:11Z</time></trkpt><trkpt lat="50.64970318911902" lon="3.1914843363633336"><ele>34.0</ele><time>2026-04-19T09:48:12Z</time></trkpt><trkpt lat="50.64964249312689" lon="3.1915116813062703"><ele>33.99999999999999</ele><time>2026-04-19T09:48:13Z</time></trkpt><trkpt lat="50.649569044534424" lon="3.191538422067175"><ele>34.0</ele><time>2026-04-19T09:48:14Z</time></trkpt><trkpt lat="50.64950501488214" lon="3.1915772365353994"><ele>34.0</ele><time>2026-04-19T09:48:15Z</time></trkpt><trkpt lat="50.64944098360202" lon="3.1916159237763644"><ele>34.0</ele><time>2026-04-19T09:48:16Z</time></trkpt><trkpt lat="50.649375963970876" lon="3.1916486605948906"><ele>34.0</ele><time>2026-04-19T09:48:17Z</time></trkpt><trkpt lat="50.64930628062776" lon="3.1916828854985253"><ele>33.99999999999999</ele><time>2026-04-19T09:48:18Z</time></trkpt><trkpt lat="50.6492443776717" lon="3.1917334868299054"><ele>34.0</ele><time>2026-04-19T09:48:19Z</time></trkpt><trkpt lat="50.64917532665085" lon="3.1917625571474417"><ele>33.66666666666667</ele><time>2026-04-19T09:48:20Z</time></trkpt><trkpt lat="50.649111123935036" lon="3.191789939398755"><ele>33.333333333333336</ele><time>2026-04-19T09:48:21Z</time></trkpt><trkpt lat="50.64904384312966" lon="3.1918208677702005"><ele>33.0</ele><time>2026-04-19T09:48:22Z</time></trkpt><trkpt lat="50.6489817698614" lon="3.1918563008591274"><ele>32.666666666666664</ele><time>2026-04-19T09:48:23Z</time></trkpt><trkpt lat="50.6489177110609" lon="3.1918870869922062"><ele>32.33333333333333</ele><time>2026-04-19T09:48:24Z</time></trkpt><trkpt lat="50.64880077542166" lon="3.191946006583778"><ele>32.0</ele><time>2026-04-19T09:48:26Z</time></trkpt><trkpt lat="50.64869060376915" lon="3.192021304097697"><ele>31.999999999999996</ele><time>2026-04-19T09:48:28Z</time></trkpt><trkpt lat="50.64859291902893" lon="3.192047949062656"><ele>32.0</ele><time>2026-04-19T09:48:30Z</time></trkpt><trkpt lat="50.648526256989186" lon="3.1921022982309113"><ele>32.0</ele><time>2026-04-19T09:48:32Z</time></trkpt><trkpt lat="50.648602692229865" lon="3.1920548593456712"><ele>32.0</ele><time>2026-04-19T09:48:38Z</time></trkpt><trkpt lat="50.64866311976945" lon="3.1920226041584843"><ele>31.999999999999996</ele><time>2026-04-19T09:48:41Z</time></trkpt><trkpt lat="50.64876095085338" lon="3.191970383299862"><ele>32.0</ele><time>2026-04-19T09:49:12Z</time></trkpt><trkpt lat="50.64883006899626" lon="3.191933701542455"><ele>32.0</ele><time>2026-04-19T09:49:15Z</time></trkpt><trkpt lat="50.64892073312132" lon="3.191886004643309"><ele>32.0</ele><time>2026-04-19T09:49:18Z</time></trkpt><trkpt lat="50.64899849213071" lon="3.1918450968151375"><ele>32.0</ele><time>2026-04-19T09:49:20Z</time></trkpt><trkpt lat="50.64909965905646" lon="3.191798060541593"><ele>32.0</ele><time>2026-04-19T09:49:22Z</time></trkpt><trkpt lat="50.64920615848137" lon="3.19178062117023"><ele>32.0</ele><time>2026-04-19T09:49:24Z</time></trkpt><trkpt lat="50.6493007854173" lon="3.191712933929622"><ele>31.999999999999996</ele><time>2026-04-19T09:49:26Z</time></trkpt><trkpt lat="50.64937837355532" lon="3.1916753701142637"><ele>32.0</ele><time>2026-04-19T09:49:28Z</time></trkpt><trkpt lat="50.64940396837732" lon="3.1915713806429142"><ele>32.0</ele><time>2026-04-19T09:49:30Z</time></trkpt><trkpt lat="50.64935059026716" lon="3.191483107143752"><ele>32.0</ele><time>2026-04-19T09:49:32Z</time></trkpt><trkpt lat="50.649265102811356" lon="3.1914763900997647"><ele>31.999999999999996</ele><time>2026-04-19T09:49:34Z</time></trkpt><trkpt lat="50.64918686275576" lon="3.1914379180750982"><ele>32.0</ele><time>2026-04-19T09:49:36Z</time></trkpt><trkpt lat="50.64911192186319" lon="3.191386116207299"><ele>31.999999999999996</ele><time>2026-04-19T09:49:38Z</time></trkpt><trkpt lat="50.64903736657508" lon="3.1913299155230144"><ele>32.0</ele><time>2026-04-19T09:49:40Z</time></trkpt><trkpt lat="50.648958067255144" lon="3.1912428250419973"><ele>32.0</ele><time>2026-04-19T09:49:42Z</time></trkpt><trkpt lat="50.64884322732388" lon="3.1911850824675065"><ele>32.0</ele><time>2026-04-19T09:49:44Z</time></trkpt><trkpt lat="50.64878052895678" lon="3.1911471994759815"><ele>31.999999999999996</ele><time>2026-04-19T09:49:45Z</time></trkpt><trkpt lat="50.64871955971952" lon="3.191101777066372"><ele>32.0</ele><time>2026-04-19T09:49:46Z</time></trkpt><trkpt lat="50.648656009979334" lon="3.1910586609006"><ele>31.400000000000002</ele><time>2026-04-19T09:49:47Z</time></trkpt><trkpt lat="50.6485886388475" lon="3.191029816430468"><ele>30.800000000000004</ele><time>2026-04-19T09:49:48Z</time></trkpt><trkpt lat="50.648519960161245" lon="3.190994417568305"><ele>30.2</ele><time>2026-04-19T09:49:49Z</time></trkpt><trkpt lat="50.648455558145926" lon="3.1909277947912633"><ele>29.6</ele><time>2026-04-19T09:49:50Z</time></trkpt><trkpt lat="50.64830433229046" lon="3.1908251335763"><ele>29.0</ele><time>2026-04-19T09:49:52Z</time></trkpt><trkpt lat="50.648179124449264" lon="3.1907449156020276"><ele>28.999999999999996</ele><time>2026-04-19T09:49:54Z</time></trkpt><trkpt lat="50.64811181462562" lon="3.190706640114045"><ele>29.0</ele><time>2026-04-19T09:49:55Z</time></trkpt><trkpt lat="50.648045094824205" lon="3.1906766171552388"><ele>29.0</ele><time>2026-04-19T09:49:56Z</time></trkpt><trkpt lat="50.64798244312319" lon="3.190652844532569"><ele>29.0</ele><time>2026-04-19T09:49:57Z</time></trkpt><trkpt lat="50.647882785588294" lon="3.1905981621507453"><ele>28.999999999999996</ele><time>2026-04-19T09:49:59Z</time></trkpt><trkpt lat="50.647774790305924" lon="3.1904846112366676"><ele>29.0</ele><time>2026-04-19T09:50:01Z</time></trkpt><trkpt lat="50.64770910560476" lon="3.190500831088192"><ele>27.0</ele><time>2026-04-19T09:50:02Z</time></trkpt><trkpt lat="50.647646292898344" lon="3.1904827312702833"><ele>25.0</ele><time>2026-04-19T09:50:04Z</time></trkpt><trkpt lat="50.647665205425156" lon="3.1902129552929095"><ele>23.0</ele><time>2026-04-19T09:50:12Z</time></trkpt><trkpt lat="50.647378059068714" lon="3.1902748198118696"><ele>23.0</ele><time>2026-04-19T09:50:21Z</time></trkpt><trkpt lat="50.64750316682167" lon="3.1901674607092994"><ele>23.0</ele><time>2026-04-19T09:50:35Z</time></trkpt><trkpt lat="50.64746191424477" lon="3.1900921702295024"><ele>23.0</ele><time>2026-04-19T09:50:38Z</time></trkpt><trkpt lat="50.6473885420193" lon="3.190033655553471"><ele>23.0</ele><time>2026-04-19T09:50:40Z</time></trkpt><trkpt lat="50.64732081798831" lon="3.190066457528528"><ele>23.0</ele><time>2026-04-19T09:50:41Z</time></trkpt><trkpt lat="50.64722509679836" lon="3.19005724484038"><ele>23.0</ele><time>2026-04-19T09:50:43Z</time></trkpt><trkpt lat="50.64714927769494" lon="3.1900844335290057"><ele>23.0</ele><time>2026-04-19T09:50:45Z</time></trkpt><trkpt lat="50.6470970062334" lon="3.190144874145541"><ele>23.0</ele><time>2026-04-19T09:50:47Z</time></trkpt><trkpt lat="50.647135633164005" lon="3.190245365038097"><ele>23.0</ele><time>2026-04-19T09:50:50Z</time></trkpt><trkpt lat="50.64720023227148" lon="3.190341236557469"><ele>23.0</ele><time>2026-04-19T09:50:52Z</time></trkpt><trkpt lat="50.64726518316453" lon="3.1904681982861525"><ele>23.0</ele><time>2026-04-19T09:50:54Z</time></trkpt><trkpt lat="50.64725080098156" lon="3.190612336858816"><ele>23.333333333333336</ele><time>2026-04-19T09:50:57Z</time></trkpt><trkpt lat="50.64723935280349" lon="3.1907304382230093"><ele>23.666666666666668</ele><time>2026-04-19T09:50:59Z</time></trkpt><trkpt lat="50.64722739147349" lon="3.190853834258231"><ele>24.0</ele><time>2026-04-19T09:51:01Z</time></trkpt><trkpt lat="50.647213925923" lon="3.1909927487446343"><ele>24.333333333333336</ele><time>2026-04-19T09:51:03Z</time></trkpt><trkpt lat="50.64719607424478" lon="3.191160421839636"><ele>24.666666666666668</ele><time>2026-04-19T09:51:06Z</time></trkpt><trkpt lat="50.64718363552286" lon="3.1912763807667783"><ele>25.0</ele><time>2026-04-19T09:51:08Z</time></trkpt><trkpt lat="50.64716740644704" lon="3.1914253501477305"><ele>25.4</ele><time>2026-04-19T09:51:10Z</time></trkpt><trkpt lat="50.647155067307935" lon="3.1915746223547927"><ele>25.8</ele><time>2026-04-19T09:51:12Z</time></trkpt><trkpt lat="50.647131407019934" lon="3.191733239996904"><ele>26.200000000000003</ele><time>2026-04-19T09:51:15Z</time></trkpt><trkpt lat="50.64712274661758" lon="3.1919260503154865"><ele>26.6</ele><time>2026-04-19T09:51:17Z</time></trkpt><trkpt lat="50.647100818570706" lon="3.192084955466425"><ele>27.0</ele><time>2026-04-19T09:51:19Z</time></trkpt><trkpt lat="50.647076717803415" lon="3.19225465779539"><ele>27.200000000000003</ele><time>2026-04-19T09:51:21Z</time></trkpt><trkpt lat="50.64705304238795" lon="3.192417100641819"><ele>27.400000000000002</ele><time>2026-04-19T09:51:23Z</time></trkpt><trkpt lat="50.64702699554178" lon="3.1925917677924387"><ele>27.599999999999998</ele><time>2026-04-19T09:51:25Z</time></trkpt><trkpt lat="50.64700457700315" lon="3.1927421037409056"><ele>27.799999999999997</ele><time>2026-04-19T09:51:27Z</time></trkpt><trkpt lat="50.64697935883776" lon="3.192904113067253"><ele>28.0</ele><time>2026-04-19T09:51:29Z</time></trkpt><trkpt lat="50.646953906388575" lon="3.193063840408721"><ele>26.666666666666668</ele><time>2026-04-19T09:51:31Z</time></trkpt><trkpt lat="50.64693309839299" lon="3.1931923314827144"><ele>25.333333333333336</ele><time>2026-04-19T09:51:33Z</time></trkpt><trkpt lat="50.64689029380848" lon="3.1932766027334654"><ele>24.0</ele><time>2026-04-19T09:51:35Z</time></trkpt><trkpt lat="50.6465392197966" lon="3.1932265573100374"><ele>24.0</ele><time>2026-04-19T09:51:37Z</time></trkpt><trkpt lat="50.64644165189087" lon="3.1932699871629886"><ele>24.0</ele><time>2026-04-19T09:51:39Z</time></trkpt><trkpt lat="50.64633381176288" lon="3.193322001677285"><ele>24.0</ele><time>2026-04-19T09:51:41Z</time></trkpt><trkpt lat="50.64622743121526" lon="3.1933765250217703"><ele>24.0</ele><time>2026-04-19T09:51:43Z</time></trkpt><trkpt lat="50.646132205765355" lon="3.1934348621960003"><ele>24.0</ele><time>2026-04-19T09:51:45Z</time></trkpt><trkpt lat="50.646036109927955" lon="3.1935015026721323"><ele>24.0</ele><time>2026-04-19T09:51:47Z</time></trkpt><trkpt lat="50.64597092035839" lon="3.193538871133979"><ele>24.0</ele><time>2026-04-19T09:51:48Z</time></trkpt><trkpt lat="50.64585418721016" lon="3.1935857649137693"><ele>24.0</ele><time>2026-04-19T09:51:50Z</time></trkpt><trkpt lat="50.64573888926157" lon="3.1936433735809215"><ele>24.0</ele><time>2026-04-19T09:51:52Z</time></trkpt><trkpt lat="50.64562620259504" lon="3.1936872219694354"><ele>24.0</ele><time>2026-04-19T09:51:54Z</time></trkpt><trkpt lat="50.645518672614585" lon="3.1937309421216757"><ele>24.0</ele><time>2026-04-19T09:51:56Z</time></trkpt><trkpt lat="50.645414815862445" lon="3.1937752049133006"><ele>24.0</ele><time>2026-04-19T09:51:58Z</time></trkpt><trkpt lat="50.64531435241815" lon="3.19383275936675"><ele>24.0</ele><time>2026-04-19T09:52:00Z</time></trkpt><trkpt lat="50.64521770557682" lon="3.1938871322877347"><ele>24.0</ele><time>2026-04-19T09:52:02Z</time></trkpt><trkpt lat="50.64511377769192" lon="3.1939318005474906"><ele>24.0</ele><time>2026-04-19T09:52:04Z</time></trkpt><trkpt lat="50.64501407012329" lon="3.1939780537467612"><ele>24.166666666666668</ele><time>2026-04-19T09:52:06Z</time></trkpt><trkpt lat="50.64491798088609" lon="3.194027596346007"><ele>24.333333333333336</ele><time>2026-04-19T09:52:08Z</time></trkpt><trkpt lat="50.644849326865454" lon="3.194066419055017"><ele>24.5</ele><time>2026-04-19T09:52:10Z</time></trkpt><trkpt lat="50.64478187715207" lon="3.1940304557465806"><ele>24.666666666666668</ele><time>2026-04-19T09:52:12Z</time></trkpt><trkpt lat="50.64473029212318" lon="3.193919842746345"><ele>24.833333333333336</ele><time>2026-04-19T09:52:14Z</time></trkpt><trkpt lat="50.64467002015831" lon="3.1937742619382057"><ele>25.0</ele><time>2026-04-19T09:52:16Z</time></trkpt><trkpt lat="50.64459903995417" lon="3.193660855724835"><ele>25.2</ele><time>2026-04-19T09:52:18Z</time></trkpt><trkpt lat="50.64453182529189" lon="3.1935382108079216"><ele>25.4</ele><time>2026-04-19T09:52:20Z</time></trkpt><trkpt lat="50.64444607320581" lon="3.1934357917259173"><ele>25.6</ele><time>2026-04-19T09:52:22Z</time></trkpt><trkpt lat="50.64436622067936" lon="3.1933264382511894"><ele>25.8</ele><time>2026-04-19T09:52:24Z</time></trkpt><trkpt lat="50.64428864876535" lon="3.1932104330876507"><ele>26.0</ele><time>2026-04-19T09:52:26Z</time></trkpt><trkpt lat="50.6442061978402" lon="3.193093725642914"><ele>25.6</ele><time>2026-04-19T09:52:28Z</time></trkpt><trkpt lat="50.64411385627543" lon="3.192977238361876"><ele>25.200000000000003</ele><time>2026-04-19T09:52:30Z</time></trkpt><trkpt lat="50.644022693457764" lon="3.1928430509223666"><ele>24.799999999999997</ele><time>2026-04-19T09:52:32Z</time></trkpt><trkpt lat="50.643973833326534" lon="3.1927726490500064"><ele>24.4</ele><time>2026-04-19T09:52:33Z</time></trkpt><trkpt lat="50.643880175209674" lon="3.1926469940522377"><ele>24.0</ele><time>2026-04-19T09:52:35Z</time></trkpt><trkpt lat="50.643787938831416" lon="3.192512342326776"><ele>23.999999999999996</ele><time>2026-04-19T09:52:37Z</time></trkpt><trkpt lat="50.64374212940536" lon="3.192444201071337"><ele>24.0</ele><time>2026-04-19T09:52:38Z</time></trkpt><trkpt lat="50.643693689557765" lon="3.192378508754247"><ele>24.0</ele><time>2026-04-19T09:52:39Z</time></trkpt><trkpt lat="50.643642699612386" lon="3.192311596422169"><ele>24.0</ele><time>2026-04-19T09:52:40Z</time></trkpt><trkpt lat="50.64359427406297" lon="3.192242470568672"><ele>24.0</ele><time>2026-04-19T09:52:41Z</time></trkpt><trkpt lat="50.643545421547735" lon="3.192174155498525"><ele>23.999999999999996</ele><time>2026-04-19T09:52:42Z</time></trkpt><trkpt lat="50.64349539379471" lon="3.1921120862603467"><ele>24.0</ele><time>2026-04-19T09:52:43Z</time></trkpt><trkpt lat="50.643399784273655" lon="3.191987986985526"><ele>23.75</ele><time>2026-04-19T09:52:45Z</time></trkpt><trkpt lat="50.6433527295443" lon="3.1919211375254006"><ele>23.5</ele><time>2026-04-19T09:52:46Z</time></trkpt><trkpt lat="50.64330325204551" lon="3.1918548476863724"><ele>23.25</ele><time>2026-04-19T09:52:47Z</time></trkpt><trkpt lat="50.64325581417581" lon="3.1917888904776968"><ele>23.0</ele><time>2026-04-19T09:52:48Z</time></trkpt><trkpt lat="50.64320943208313" lon="3.191719680856189"><ele>22.75</ele><time>2026-04-19T09:52:49Z</time></trkpt><trkpt lat="50.643162329874166" lon="3.1916522945802392"><ele>22.5</ele><time>2026-04-19T09:52:50Z</time></trkpt><trkpt lat="50.643114822943794" lon="3.1915836987491586"><ele>22.25</ele><time>2026-04-19T09:52:51Z</time></trkpt><trkpt lat="50.64306664218017" lon="3.1915147520193083"><ele>22.0</ele><time>2026-04-19T09:52:52Z</time></trkpt><trkpt lat="50.643019174690956" lon="3.1914487177714026"><ele>22.0</ele><time>2026-04-19T09:52:53Z</time></trkpt><trkpt lat="50.64297192183135" lon="3.1913812420637675"><ele>22.0</ele><time>2026-04-19T09:52:54Z</time></trkpt><trkpt lat="50.6428790311301" lon="3.1912484695092465"><ele>22.0</ele><time>2026-04-19T09:52:56Z</time></trkpt><trkpt lat="50.64278446833761" lon="3.1911176785632933"><ele>22.0</ele><time>2026-04-19T09:52:58Z</time></trkpt><trkpt lat="50.642692238839814" lon="3.1909853114956634"><ele>22.0</ele><time>2026-04-19T09:53:00Z</time></trkpt><trkpt lat="50.64264432920306" lon="3.190915753171842"><ele>21.75</ele><time>2026-04-19T09:53:01Z</time></trkpt><trkpt lat="50.64255363495807" lon="3.190795974732761"><ele>21.5</ele><time>2026-04-19T09:53:03Z</time></trkpt><trkpt lat="50.642459313426265" lon="3.190674925196606"><ele>21.25</ele><time>2026-04-19T09:53:05Z</time></trkpt><trkpt lat="50.64236209308421" lon="3.190556982943846"><ele>21.0</ele><time>2026-04-19T09:53:07Z</time></trkpt><trkpt lat="50.64226228621442" lon="3.1904468241620374"><ele>20.833333333333332</ele><time>2026-04-19T09:53:09Z</time></trkpt><trkpt lat="50.64220679180329" lon="3.1903917208544725"><ele>20.666666666666668</ele><time>2026-04-19T09:53:10Z</time></trkpt><trkpt lat="50.64210250342518" lon="3.1902889395614733"><ele>20.5</ele><time>2026-04-19T09:53:12Z</time></trkpt><trkpt lat="50.642046864157344" lon="3.1902420751425242"><ele>20.333333333333336</ele><time>2026-04-19T09:53:13Z</time></trkpt><trkpt lat="50.64193444411149" lon="3.1901599392724584"><ele>20.166666666666668</ele><time>2026-04-19T09:53:15Z</time></trkpt><trkpt lat="50.64187491005447" lon="3.190121501907592"><ele>20.0</ele><time>2026-04-19T09:53:16Z</time></trkpt><trkpt lat="50.64175821232886" lon="3.1900465459596736"><ele>20.285714285714285</ele><time>2026-04-19T09:53:18Z</time></trkpt><trkpt lat="50.64169746345573" lon="3.19001360829095"><ele>20.571428571428573</ele><time>2026-04-19T09:53:19Z</time></trkpt><trkpt lat="50.64163721228734" lon="3.189981510794675"><ele>20.857142857142858</ele><time>2026-04-19T09:53:20Z</time></trkpt><trkpt lat="50.6415721822564" lon="3.1899605510398024"><ele>21.142857142857142</ele><time>2026-04-19T09:53:21Z</time></trkpt><trkpt lat="50.64150871703595" lon="3.1899366059163072"><ele>21.428571428571427</ele><time>2026-04-19T09:53:22Z</time></trkpt><trkpt lat="50.64144640197672" lon="3.189911289977847"><ele>21.714285714285715</ele><time>2026-04-19T09:53:23Z</time></trkpt><trkpt lat="50.64138438946722" lon="3.1898844363252916"><ele>22.0</ele><time>2026-04-19T09:53:24Z</time></trkpt><trkpt lat="50.641322684738405" lon="3.1898565464091555"><ele>21.714285714285715</ele><time>2026-04-19T09:53:25Z</time></trkpt><trkpt lat="50.64125799646791" lon="3.189827179960724"><ele>21.428571428571427</ele><time>2026-04-19T09:53:26Z</time></trkpt><trkpt lat="50.64119413645523" lon="3.189799316242389"><ele>21.142857142857142</ele><time>2026-04-19T09:53:27Z</time></trkpt><trkpt lat="50.64113081921783" lon="3.189772487730511"><ele>20.857142857142858</ele><time>2026-04-19T09:53:28Z</time></trkpt><trkpt lat="50.64106494780576" lon="3.189744950488745"><ele>20.571428571428573</ele><time>2026-04-19T09:53:29Z</time></trkpt><trkpt lat="50.64100002741434" lon="3.189715689108838"><ele>20.285714285714285</ele><time>2026-04-19T09:53:30Z</time></trkpt><trkpt lat="50.64093802582518" lon="3.1896852120140102"><ele>20.0</ele><time>2026-04-19T09:53:31Z</time></trkpt><trkpt lat="50.640873552422505" lon="3.189656943821241"><ele>20.714285714285715</ele><time>2026-04-19T09:53:32Z</time></trkpt><trkpt lat="50.64080925750433" lon="3.1896294634329143"><ele>21.42857142857143</ele><time>2026-04-19T09:53:33Z</time></trkpt><trkpt lat="50.64074458330469" lon="3.1896005211458625"><ele>22.142857142857146</ele><time>2026-04-19T09:53:34Z</time></trkpt><trkpt lat="50.64068138710918" lon="3.189571278745481"><ele>22.857142857142858</ele><time>2026-04-19T09:53:35Z</time></trkpt><trkpt lat="50.64061557729705" lon="3.189544371163718"><ele>23.571428571428573</ele><time>2026-04-19T09:53:36Z</time></trkpt><trkpt lat="50.64055138690186" lon="3.189512382439919"><ele>24.28571428571429</ele><time>2026-04-19T09:53:37Z</time></trkpt><trkpt lat="50.64048725793635" lon="3.1894834326598613"><ele>25.0</ele><time>2026-04-19T09:53:38Z</time></trkpt><trkpt lat="50.64042079967644" lon="3.189453802698668"><ele>25.000000000000004</ele><time>2026-04-19T09:53:39Z</time></trkpt><trkpt lat="50.64035816446761" lon="3.1894265290873767"><ele>25.0</ele><time>2026-04-19T09:53:40Z</time></trkpt><trkpt lat="50.64029416592267" lon="3.1893994181244385"><ele>25.0</ele><time>2026-04-19T09:53:41Z</time></trkpt><trkpt lat="50.64023001404724" lon="3.18937198506098"><ele>25.0</ele><time>2026-04-19T09:53:42Z</time></trkpt><trkpt lat="50.64016620569407" lon="3.189343563320469"><ele>25.0</ele><time>2026-04-19T09:53:43Z</time></trkpt><trkpt lat="50.64010316882163" lon="3.1893142673979806"><ele>25.000000000000004</ele><time>2026-04-19T09:53:44Z</time></trkpt><trkpt lat="50.640036799125525" lon="3.189286462322891"><ele>25.0</ele><time>2026-04-19T09:53:45Z</time></trkpt><trkpt lat="50.63997661377655" lon="3.189252698277221"><ele>24.8</ele><time>2026-04-19T09:53:46Z</time></trkpt><trkpt lat="50.63991347611263" lon="3.189226005613321"><ele>24.6</ele><time>2026-04-19T09:53:47Z</time></trkpt><trkpt lat="50.639849952074435" lon="3.1892046220736243"><ele>24.4</ele><time>2026-04-19T09:53:48Z</time></trkpt><trkpt lat="50.639730932239274" lon="3.1891527445043644"><ele>24.2</ele><time>2026-04-19T09:53:50Z</time></trkpt><trkpt lat="50.63961669323998" lon="3.189105344485824"><ele>24.0</ele><time>2026-04-19T09:53:52Z</time></trkpt><trkpt lat="50.63950124316126" lon="3.189047028906491"><ele>23.799999999999997</ele><time>2026-04-19T09:53:54Z</time></trkpt><trkpt lat="50.63941071798812" lon="3.189028037522001"><ele>23.599999999999998</ele><time>2026-04-19T09:53:56Z</time></trkpt><trkpt lat="50.639319172536" lon="3.188956078792677"><ele>23.4</ele><time>2026-04-19T09:53:58Z</time></trkpt><trkpt lat="50.639221388406746" lon="3.188908763296769"><ele>23.2</ele><time>2026-04-19T09:54:00Z</time></trkpt><trkpt lat="50.639124994087894" lon="3.1888696574865936"><ele>23.0</ele><time>2026-04-19T09:54:02Z</time></trkpt><trkpt lat="50.63903181796058" lon="3.188814236410075"><ele>23.0</ele><time>2026-04-19T09:54:04Z</time></trkpt><trkpt lat="50.638936622430734" lon="3.18874944673861"><ele>23.0</ele><time>2026-04-19T09:54:06Z</time></trkpt><trkpt lat="50.63883843033608" lon="3.1886821117737094"><ele>23.0</ele><time>2026-04-19T09:54:08Z</time></trkpt><trkpt lat="50.63874737586055" lon="3.188576608258896"><ele>23.0</ele><time>2026-04-19T09:54:10Z</time></trkpt><trkpt lat="50.63869765387975" lon="3.1884364680421653"><ele>23.0</ele><time>2026-04-19T09:54:12Z</time></trkpt><trkpt lat="50.638613109302696" lon="3.188399140795016"><ele>23.599999999999998</ele><time>2026-04-19T09:54:14Z</time></trkpt><trkpt lat="50.638516772550545" lon="3.188440601041899"><ele>24.2</ele><time>2026-04-19T09:54:16Z</time></trkpt><trkpt lat="50.63843690327091" lon="3.1885495581843464"><ele>24.8</ele><time>2026-04-19T09:54:18Z</time></trkpt><trkpt lat="50.63832460218782" lon="3.1885786151997775"><ele>25.4</ele><time>2026-04-19T09:54:20Z</time></trkpt><trkpt lat="50.63822453569724" lon="3.18862898218883"><ele>26.0</ele><time>2026-04-19T09:54:22Z</time></trkpt><trkpt lat="50.63812714797461" lon="3.188700073373728"><ele>26.0</ele><time>2026-04-19T09:54:24Z</time></trkpt><trkpt lat="50.63802763845825" lon="3.188769514460398"><ele>26.0</ele><time>2026-04-19T09:54:26Z</time></trkpt><trkpt lat="50.6379205581055" lon="3.188836219847072"><ele>26.0</ele><time>2026-04-19T09:54:28Z</time></trkpt><trkpt lat="50.6378229800515" lon="3.188909025580495"><ele>26.0</ele><time>2026-04-19T09:54:30Z</time></trkpt><trkpt lat="50.63772904297048" lon="3.1889732634345473"><ele>26.0</ele><time>2026-04-19T09:54:32Z</time></trkpt><trkpt lat="50.637635097849234" lon="3.189035994247724"><ele>25.4</ele><time>2026-04-19T09:54:34Z</time></trkpt><trkpt lat="50.63753780796754" lon="3.189103243774914"><ele>24.8</ele><time>2026-04-19T09:54:36Z</time></trkpt><trkpt lat="50.63743939685269" lon="3.1891696700865895"><ele>24.2</ele><time>2026-04-19T09:54:38Z</time></trkpt><trkpt lat="50.63733859570476" lon="3.1892378063898428"><ele>23.599999999999998</ele><time>2026-04-19T09:54:40Z</time></trkpt><trkpt lat="50.637235820954835" lon="3.189308853392229"><ele>23.0</ele><time>2026-04-19T09:54:42Z</time></trkpt><trkpt lat="50.637129161681855" lon="3.1893747376085617"><ele>23.0</ele><time>2026-04-19T09:54:44Z</time></trkpt><trkpt lat="50.6370269376032" lon="3.1894355482504677"><ele>23.0</ele><time>2026-04-19T09:54:46Z</time></trkpt><trkpt lat="50.63693294342707" lon="3.189486912253204"><ele>23.0</ele><time>2026-04-19T09:54:48Z</time></trkpt><trkpt lat="50.63684005571388" lon="3.189483176538195"><ele>23.0</ele><time>2026-04-19T09:54:50Z</time></trkpt><trkpt lat="50.63675018077504" lon="3.189406339514492"><ele>23.0</ele><time>2026-04-19T09:54:52Z</time></trkpt><trkpt lat="50.63667009873582" lon="3.189329721824912"><ele>23.166666666666668</ele><time>2026-04-19T09:54:54Z</time></trkpt><trkpt lat="50.6365992149358" lon="3.189278139003837"><ele>23.333333333333336</ele><time>2026-04-19T09:54:56Z</time></trkpt><trkpt lat="50.63651425685302" lon="3.1892111610908924"><ele>23.5</ele><time>2026-04-19T09:54:58Z</time></trkpt><trkpt lat="50.63643256583633" lon="3.1891399464848402"><ele>23.666666666666668</ele><time>2026-04-19T09:55:00Z</time></trkpt><trkpt lat="50.636352213968614" lon="3.189081100435864"><ele>23.833333333333332</ele><time>2026-04-19T09:55:02Z</time></trkpt><trkpt lat="50.636270362399664" lon="3.1890138980239455"><ele>24.0</ele><time>2026-04-19T09:55:04Z</time></trkpt><trkpt lat="50.636189191466414" lon="3.1889426211846583"><ele>24.166666666666668</ele><time>2026-04-19T09:55:06Z</time></trkpt><trkpt lat="50.63611364558245" lon="3.188879461790122"><ele>24.333333333333336</ele><time>2026-04-19T09:55:08Z</time></trkpt><trkpt lat="50.63603371518901" lon="3.188815563006625"><ele>24.5</ele><time>2026-04-19T09:55:10Z</time></trkpt><trkpt lat="50.63595524119461" lon="3.18875261518202"><ele>24.666666666666668</ele><time>2026-04-19T09:55:12Z</time></trkpt><trkpt lat="50.63587026814255" lon="3.1886880814748064"><ele>24.833333333333336</ele><time>2026-04-19T09:55:14Z</time></trkpt><trkpt lat="50.635795995714325" lon="3.1886329672959435"><ele>25.0</ele><time>2026-04-19T09:55:16Z</time></trkpt><trkpt lat="50.63572394998897" lon="3.1885889584350995"><ele>25.000000000000004</ele><time>2026-04-19T09:55:18Z</time></trkpt><trkpt lat="50.635648409368066" lon="3.1885473357637664"><ele>25.0</ele><time>2026-04-19T09:55:20Z</time></trkpt><trkpt lat="50.635570423827495" lon="3.188482462364568"><ele>25.0</ele><time>2026-04-19T09:55:22Z</time></trkpt><trkpt lat="50.63548907153901" lon="3.1884280794626747"><ele>25.0</ele><time>2026-04-19T09:55:24Z</time></trkpt><trkpt lat="50.635400598580226" lon="3.188383091384961"><ele>25.000000000000004</ele><time>2026-04-19T09:55:26Z</time></trkpt><trkpt lat="50.635326036269305" lon="3.1883250195704536"><ele>25.0</ele><time>2026-04-19T09:55:28Z</time></trkpt><trkpt lat="50.63523557883598" lon="3.18830129987054"><ele>25.0</ele><time>2026-04-19T09:55:30Z</time></trkpt><trkpt lat="50.63514183415771" lon="3.188321451782481"><ele>25.0</ele><time>2026-04-19T09:55:32Z</time></trkpt><trkpt lat="50.635040961342256" lon="3.1883317476847544"><ele>25.0</ele><time>2026-04-19T09:55:34Z</time></trkpt><trkpt lat="50.63493850004197" lon="3.188364654785026"><ele>25.0</ele><time>2026-04-19T09:55:36Z</time></trkpt><trkpt lat="50.63484338411025" lon="3.1884420409437744"><ele>25.0</ele><time>2026-04-19T09:55:38Z</time></trkpt><trkpt lat="50.63478675727897" lon="3.1884949380350243"><ele>25.000000000000004</ele><time>2026-04-19T09:55:39Z</time></trkpt><trkpt lat="50.63472431374635" lon="3.1885485376536034"><ele>25.0</ele><time>2026-04-19T09:55:40Z</time></trkpt><trkpt lat="50.634665029250506" lon="3.1886054071058787"><ele>25.0</ele><time>2026-04-19T09:55:41Z</time></trkpt><trkpt lat="50.63460710048469" lon="3.1886588675597043"><ele>25.0</ele><time>2026-04-19T09:55:42Z</time></trkpt><trkpt lat="50.634546251738335" lon="3.188710817154394"><ele>25.0</ele><time>2026-04-19T09:55:43Z</time></trkpt><trkpt lat="50.63449008563469" lon="3.1887606800266592"><ele>25.000000000000004</ele><time>2026-04-19T09:55:44Z</time></trkpt><trkpt lat="50.63443271524099" lon="3.1888107525067455"><ele>25.0</ele><time>2026-04-19T09:55:45Z</time></trkpt><trkpt lat="50.63432792558418" lon="3.1889222619953848"><ele>25.0</ele><time>2026-04-19T09:55:47Z</time></trkpt><trkpt lat="50.63426820565418" lon="3.1889784067953943"><ele>25.0</ele><time>2026-04-19T09:55:48Z</time></trkpt><trkpt lat="50.63417666641799" lon="3.189058258964946"><ele>25.0</ele><time>2026-04-19T09:55:50Z</time></trkpt><trkpt lat="50.63409360016346" lon="3.1891683913778497"><ele>25.0</ele><time>2026-04-19T09:55:52Z</time></trkpt><trkpt lat="50.63401646410439" lon="3.1892807082865704"><ele>25.0</ele><time>2026-04-19T09:55:54Z</time></trkpt><trkpt lat="50.63394004455216" lon="3.189367328272481"><ele>25.0</ele><time>2026-04-19T09:55:56Z</time></trkpt><trkpt lat="50.63388622059259" lon="3.1895028895944675"><ele>25.0</ele><time>2026-04-19T09:55:58Z</time></trkpt><trkpt lat="50.633821398586015" lon="3.1896173624682906"><ele>25.0</ele><time>2026-04-19T09:56:00Z</time></trkpt><trkpt lat="50.63375220237703" lon="3.18972376836994"><ele>25.0</ele><time>2026-04-19T09:56:02Z</time></trkpt><trkpt lat="50.63368361281044" lon="3.189835487799997"><ele>25.0</ele><time>2026-04-19T09:56:04Z</time></trkpt><trkpt lat="50.63361248078636" lon="3.189957274314789"><ele>25.0</ele><time>2026-04-19T09:56:06Z</time></trkpt><trkpt lat="50.63354261893715" lon="3.1900931482399404"><ele>25.0</ele><time>2026-04-19T09:56:08Z</time></trkpt><trkpt lat="50.63347297265673" lon="3.190184268664371"><ele>25.0</ele><time>2026-04-19T09:56:10Z</time></trkpt><trkpt lat="50.633401408144266" lon="3.1902959128287316"><ele>25.0</ele><time>2026-04-19T09:56:12Z</time></trkpt><trkpt lat="50.63331893126262" lon="3.190395442004225"><ele>25.0</ele><time>2026-04-19T09:56:14Z</time></trkpt><trkpt lat="50.63324158204483" lon="3.190485065006769"><ele>25.000000000000004</ele><time>2026-04-19T09:56:16Z</time></trkpt><trkpt lat="50.633162012762924" lon="3.1905671788671555"><ele>25.0</ele><time>2026-04-19T09:56:18Z</time></trkpt><trkpt lat="50.63308757781459" lon="3.1906290462311993"><ele>25.0</ele><time>2026-04-19T09:56:20Z</time></trkpt><trkpt lat="50.63301343907502" lon="3.1907010543104923"><ele>25.0</ele><time>2026-04-19T09:56:22Z</time></trkpt><trkpt lat="50.63294589443902" lon="3.1907738237852206"><ele>25.000000000000004</ele><time>2026-04-19T09:56:24Z</time></trkpt><trkpt lat="50.63287895131515" lon="3.1908350231197105"><ele>25.0</ele><time>2026-04-19T09:56:26Z</time></trkpt><trkpt lat="50.63281758388726" lon="3.1908832851137023"><ele>24.833333333333336</ele><time>2026-04-19T09:56:28Z</time></trkpt><trkpt lat="50.632754280388866" lon="3.190943666570369"><ele>24.666666666666668</ele><time>2026-04-19T09:56:44Z</time></trkpt><trkpt lat="50.63269891297644" lon="3.190992453602257"><ele>24.5</ele><time>2026-04-19T09:56:48Z</time></trkpt><trkpt lat="50.63264155120528" lon="3.1910487130958303"><ele>24.333333333333336</ele><time>2026-04-19T09:56:53Z</time></trkpt><trkpt lat="50.632668923365664" lon="3.1912014923868015"><ele>24.166666666666668</ele><time>2026-04-19T09:56:55Z</time></trkpt><trkpt lat="50.632681347842116" lon="3.1913051458123207"><ele>24.0</ele><time>2026-04-19T09:56:57Z</time></trkpt><trkpt lat="50.632680919663024" lon="3.191453849504889"><ele>24.0</ele><time>2026-04-19T09:56:59Z</time></trkpt><trkpt lat="50.63267341450917" lon="3.191615859351897"><ele>24.0</ele><time>2026-04-19T09:57:01Z</time></trkpt><trkpt lat="50.63266188945341" lon="3.191786723266346"><ele>24.0</ele><time>2026-04-19T09:57:03Z</time></trkpt><trkpt lat="50.63265926357835" lon="3.1919655220891023"><ele>24.0</ele><time>2026-04-19T09:57:05Z</time></trkpt><trkpt lat="50.632651448054375" lon="3.192148235152027"><ele>24.0</ele><time>2026-04-19T09:57:07Z</time></trkpt><trkpt lat="50.63264880720491" lon="3.192336889704236"><ele>24.0</ele><time>2026-04-19T09:57:09Z</time></trkpt><trkpt lat="50.63263390217681" lon="3.1925244129297163"><ele>24.0</ele><time>2026-04-19T09:57:11Z</time></trkpt><trkpt lat="50.632539203014254" lon="3.1926395236862484"><ele>24.0</ele><time>2026-04-19T09:57:13Z</time></trkpt><trkpt lat="50.6324853542986" lon="3.1926911583966717"><ele>24.0</ele><time>2026-04-19T09:57:14Z</time></trkpt><trkpt lat="50.632414597910795" lon="3.1927316808466264"><ele>24.0</ele><time>2026-04-19T09:57:15Z</time></trkpt><trkpt lat="50.632323760130994" lon="3.1927988830333307"><ele>24.0</ele><time>2026-04-19T09:57:17Z</time></trkpt><trkpt lat="50.6322642711619" lon="3.192836016068039"><ele>24.0</ele><time>2026-04-19T09:57:18Z</time></trkpt><trkpt lat="50.63214993731698" lon="3.1928950010648895"><ele>24.0</ele><time>2026-04-19T09:57:20Z</time></trkpt><trkpt lat="50.632039350700474" lon="3.192972442667901"><ele>24.0</ele><time>2026-04-19T09:57:22Z</time></trkpt><trkpt lat="50.63193398036879" lon="3.193042758179111"><ele>24.0</ele><time>2026-04-19T09:57:24Z</time></trkpt><trkpt lat="50.63185253735238" lon="3.193119786893521"><ele>24.0</ele><time>2026-04-19T09:57:26Z</time></trkpt><trkpt lat="50.631788633592954" lon="3.193113235090987"><ele>24.0</ele><time>2026-04-19T09:57:27Z</time></trkpt><trkpt lat="50.631690036729744" lon="3.193203158141492"><ele>24.0</ele><time>2026-04-19T09:57:29Z</time></trkpt><trkpt lat="50.63159410477397" lon="3.1932742543083075"><ele>24.0</ele><time>2026-04-19T09:57:31Z</time></trkpt><trkpt lat="50.63149399247687" lon="3.1933324486296057"><ele>24.0</ele><time>2026-04-19T09:57:33Z</time></trkpt><trkpt lat="50.63138547669806" lon="3.193398497230509"><ele>24.0</ele><time>2026-04-19T09:57:35Z</time></trkpt><trkpt lat="50.63127585373264" lon="3.193447042940798"><ele>24.0</ele><time>2026-04-19T09:57:37Z</time></trkpt><trkpt lat="50.6311562234492" lon="3.1934893240977513"><ele>24.0</ele><time>2026-04-19T09:57:39Z</time></trkpt><trkpt lat="50.63103937840692" lon="3.1935455805622768"><ele>24.0</ele><time>2026-04-19T09:57:41Z</time></trkpt><trkpt lat="50.63092345482329" lon="3.19359263179675"><ele>23.75</ele><time>2026-04-19T09:57:43Z</time></trkpt><trkpt lat="50.63080247964496" lon="3.193637024082853"><ele>23.5</ele><time>2026-04-19T09:57:45Z</time></trkpt><trkpt lat="50.63069387072551" lon="3.193686068048378"><ele>23.25</ele><time>2026-04-19T09:57:47Z</time></trkpt><trkpt lat="50.63058526458837" lon="3.1937453492465377"><ele>23.0</ele><time>2026-04-19T09:57:49Z</time></trkpt><trkpt lat="50.63048747091213" lon="3.193813026723536"><ele>23.0</ele><time>2026-04-19T09:57:51Z</time></trkpt><trkpt lat="50.63038897914737" lon="3.1938896414562223"><ele>23.0</ele><time>2026-04-19T09:57:53Z</time></trkpt><trkpt lat="50.630296141891506" lon="3.193979019573352"><ele>23.0</ele><time>2026-04-19T09:57:55Z</time></trkpt><trkpt lat="50.630203984267816" lon="3.1940786161721215"><ele>23.0</ele><time>2026-04-19T09:57:57Z</time></trkpt><trkpt lat="50.630111609639215" lon="3.194179205482915"><ele>23.0</ele><time>2026-04-19T09:57:59Z</time></trkpt><trkpt lat="50.63002162084952" lon="3.19427211654374"><ele>23.0</ele><time>2026-04-19T09:58:01Z</time></trkpt><trkpt lat="50.62994234438982" lon="3.194372426137749"><ele>23.0</ele><time>2026-04-19T09:58:03Z</time></trkpt><trkpt lat="50.62984465630959" lon="3.194464586328875"><ele>23.0</ele><time>2026-04-19T09:58:05Z</time></trkpt><trkpt lat="50.62974754615068" lon="3.194529848405531"><ele>23.0</ele><time>2026-04-19T09:58:07Z</time></trkpt><trkpt lat="50.629654369011035" lon="3.194636542388913"><ele>23.0</ele><time>2026-04-19T09:58:09Z</time></trkpt><trkpt lat="50.62954933080699" lon="3.194719886151003"><ele>23.0</ele><time>2026-04-19T09:58:11Z</time></trkpt><trkpt lat="50.629492247971854" lon="3.1947658048861576"><ele>23.0</ele><time>2026-04-19T09:58:12Z</time></trkpt><trkpt lat="50.62939315050625" lon="3.1948509625361976"><ele>23.0</ele><time>2026-04-19T09:58:14Z</time></trkpt><trkpt lat="50.629288768958276" lon="3.1949353510483456"><ele>23.0</ele><time>2026-04-19T09:58:16Z</time></trkpt><trkpt lat="50.62918694854149" lon="3.1949987638480457"><ele>23.0</ele><time>2026-04-19T09:58:18Z</time></trkpt><trkpt lat="50.62908233403721" lon="3.195082151854854"><ele>23.0</ele><time>2026-04-19T09:58:20Z</time></trkpt><trkpt lat="50.6289736813736" lon="3.195159693239595"><ele>23.0</ele><time>2026-04-19T09:58:22Z</time></trkpt><trkpt lat="50.628912629456124" lon="3.195199801629395"><ele>23.0</ele><time>2026-04-19T09:58:23Z</time></trkpt><trkpt lat="50.6288056447566" lon="3.195274306288143"><ele>23.0</ele><time>2026-04-19T09:58:25Z</time></trkpt><trkpt lat="50.628698996956494" lon="3.1953498510906395"><ele>23.0</ele><time>2026-04-19T09:58:27Z</time></trkpt><trkpt lat="50.628592493739696" lon="3.1954244651132635"><ele>23.25</ele><time>2026-04-19T09:58:29Z</time></trkpt><trkpt lat="50.6284915238219" lon="3.1955125905580584"><ele>23.5</ele><time>2026-04-19T09:58:31Z</time></trkpt><trkpt lat="50.62839038419742" lon="3.195599383870564"><ele>23.75</ele><time>2026-04-19T09:58:33Z</time></trkpt><trkpt lat="50.62829519704062" lon="3.195709578695507"><ele>24.0</ele><time>2026-04-19T09:58:35Z</time></trkpt><trkpt lat="50.628201230495414" lon="3.195809599151655"><ele>24.25</ele><time>2026-04-19T09:58:37Z</time></trkpt><trkpt lat="50.62811203173719" lon="3.19592401811979"><ele>24.5</ele><time>2026-04-19T09:58:39Z</time></trkpt><trkpt lat="50.62801986655598" lon="3.1960435414926147"><ele>24.75</ele><time>2026-04-19T09:58:41Z</time></trkpt><trkpt lat="50.627924432863225" lon="3.196132577009767"><ele>25.0</ele><time>2026-04-19T09:58:43Z</time></trkpt><trkpt lat="50.62781611457741" lon="3.1962088311385983"><ele>24.5</ele><time>2026-04-19T09:58:45Z</time></trkpt><trkpt lat="50.627702537751006" lon="3.1962823006582837"><ele>24.0</ele><time>2026-04-19T09:58:47Z</time></trkpt><trkpt lat="50.627594833107324" lon="3.1963266196774334"><ele>23.5</ele><time>2026-04-19T09:58:49Z</time></trkpt><trkpt lat="50.62748289151366" lon="3.196395329406095"><ele>23.0</ele><time>2026-04-19T09:58:51Z</time></trkpt><trkpt lat="50.627373831749544" lon="3.196459431554963"><ele>22.75</ele><time>2026-04-19T09:58:53Z</time></trkpt><trkpt lat="50.62726776440503" lon="3.1965130818466707"><ele>22.5</ele><time>2026-04-19T09:58:55Z</time></trkpt><trkpt lat="50.62716079926753" lon="3.196567088989439"><ele>22.25</ele><time>2026-04-19T09:58:57Z</time></trkpt><trkpt lat="50.62705254091198" lon="3.1966376606755964"><ele>22.0</ele><time>2026-04-19T09:58:59Z</time></trkpt><trkpt lat="50.62694687388837" lon="3.1966926768647244"><ele>22.0</ele><time>2026-04-19T09:59:01Z</time></trkpt><trkpt lat="50.626841634830484" lon="3.196752646141622"><ele>22.0</ele><time>2026-04-19T09:59:03Z</time></trkpt><trkpt lat="50.626735266798946" lon="3.1968143564657465"><ele>22.0</ele><time>2026-04-19T09:59:05Z</time></trkpt><trkpt lat="50.626629453443456" lon="3.196869152451896"><ele>22.0</ele><time>2026-04-19T09:59:07Z</time></trkpt><trkpt lat="50.62652260318693" lon="3.1969171055944767"><ele>22.0</ele><time>2026-04-19T09:59:09Z</time></trkpt><trkpt lat="50.62640960077119" lon="3.1969533301307353"><ele>22.0</ele><time>2026-04-19T09:59:11Z</time></trkpt><trkpt lat="50.626296621032786" lon="3.1969863063952966"><ele>22.0</ele><time>2026-04-19T09:59:13Z</time></trkpt><trkpt lat="50.62618509659467" lon="3.1969889580762993"><ele>22.0</ele><time>2026-04-19T09:59:15Z</time></trkpt><trkpt lat="50.62606767011217" lon="3.1969814585588145"><ele>22.0</ele><time>2026-04-19T09:59:17Z</time></trkpt><trkpt lat="50.625953007618655" lon="3.1969620721482714"><ele>22.25</ele><time>2026-04-19T09:59:19Z</time></trkpt><trkpt lat="50.62583910647678" lon="3.196922420124207"><ele>22.5</ele><time>2026-04-19T09:59:21Z</time></trkpt><trkpt lat="50.62572914008335" lon="3.1968705465407545"><ele>22.75</ele><time>2026-04-19T09:59:23Z</time></trkpt><trkpt lat="50.625622355239784" lon="3.1967991067517967"><ele>23.0</ele><time>2026-04-19T09:59:25Z</time></trkpt><trkpt lat="50.62552161991361" lon="3.1967189789204977"><ele>23.0</ele><time>2026-04-19T09:59:27Z</time></trkpt><trkpt lat="50.62543122712443" lon="3.1966323279119147"><ele>23.0</ele><time>2026-04-19T09:59:29Z</time></trkpt><trkpt lat="50.62534828282925" lon="3.1965519770400386"><ele>23.0</ele><time>2026-04-19T09:59:31Z</time></trkpt><trkpt lat="50.62527617253119" lon="3.1964798947279016"><ele>23.0</ele><time>2026-04-19T09:59:33Z</time></trkpt><trkpt lat="50.6251907051575" lon="3.196403799330379"><ele>23.0</ele><time>2026-04-19T09:59:35Z</time></trkpt><trkpt lat="50.625100296583554" lon="3.1963182618484725"><ele>23.4</ele><time>2026-04-19T09:59:37Z</time></trkpt><trkpt lat="50.62501425898872" lon="3.196237824920355"><ele>23.799999999999997</ele><time>2026-04-19T09:59:39Z</time></trkpt><trkpt lat="50.62493470365158" lon="3.1961542511988794"><ele>24.2</ele><time>2026-04-19T09:59:41Z</time></trkpt><trkpt lat="50.62484230476812" lon="3.19609275851638"><ele>24.6</ele><time>2026-04-19T09:59:43Z</time></trkpt><trkpt lat="50.62476334525014" lon="3.196013755571992"><ele>25.0</ele><time>2026-04-19T09:59:45Z</time></trkpt><trkpt lat="50.624677936315884" lon="3.195936154259535"><ele>25.0</ele><time>2026-04-19T09:59:47Z</time></trkpt><trkpt lat="50.62458571736872" lon="3.195869855601244"><ele>25.0</ele><time>2026-04-19T09:59:49Z</time></trkpt><trkpt lat="50.62449429518962" lon="3.195791485744672"><ele>25.0</ele><time>2026-04-19T09:59:51Z</time></trkpt><trkpt lat="50.6244232620818" lon="3.1956768366254176"><ele>25.0</ele><time>2026-04-19T09:59:53Z</time></trkpt><trkpt lat="50.6243266903921" lon="3.1956502257715167"><ele>25.0</ele><time>2026-04-19T09:59:55Z</time></trkpt><trkpt lat="50.62427516067987" lon="3.1958236487174263"><ele>25.0</ele><time>2026-04-19T09:59:57Z</time></trkpt><trkpt lat="50.6241891976474" lon="3.1958933182411835"><ele>25.0</ele><time>2026-04-19T09:59:59Z</time></trkpt><trkpt lat="50.62408731488607" lon="3.1959432586441663"><ele>25.0</ele><time>2026-04-19T10:00:01Z</time></trkpt><trkpt lat="50.623992160841915" lon="3.1959873113215878"><ele>25.0</ele><time>2026-04-19T10:00:03Z</time></trkpt><trkpt lat="50.62389009698256" lon="3.195994800650646"><ele>25.0</ele><time>2026-04-19T10:00:05Z</time></trkpt><trkpt lat="50.62379894212422" lon="3.1960103736343544"><ele>25.0</ele><time>2026-04-19T10:00:07Z</time></trkpt><trkpt lat="50.62368615447232" lon="3.1960191627190686"><ele>25.0</ele><time>2026-04-19T10:00:09Z</time></trkpt><trkpt lat="50.62357377291108" lon="3.196037436253467"><ele>25.0</ele><time>2026-04-19T10:00:11Z</time></trkpt><trkpt lat="50.623466529930155" lon="3.1960538393426514"><ele>25.0</ele><time>2026-04-19T10:00:13Z</time></trkpt><trkpt lat="50.62336034922511" lon="3.1960755843087454"><ele>25.0</ele><time>2026-04-19T10:00:15Z</time></trkpt><trkpt lat="50.623260379562" lon="3.19609988127381"><ele>25.0</ele><time>2026-04-19T10:00:17Z</time></trkpt><trkpt lat="50.6231566351801" lon="3.196111209519244"><ele>25.0</ele><time>2026-04-19T10:00:19Z</time></trkpt><trkpt lat="50.623043556451286" lon="3.1961183438603915"><ele>25.0</ele><time>2026-04-19T10:00:21Z</time></trkpt><trkpt lat="50.62293497767334" lon="3.1961410148790206"><ele>25.0</ele><time>2026-04-19T10:00:23Z</time></trkpt><trkpt lat="50.62282015302344" lon="3.1961484497898014"><ele>25.0</ele><time>2026-04-19T10:00:25Z</time></trkpt><trkpt lat="50.62270509798765" lon="3.196174333482978"><ele>25.5</ele><time>2026-04-19T10:00:27Z</time></trkpt><trkpt lat="50.62259233664289" lon="3.196219871960993"><ele>26.0</ele><time>2026-04-19T10:00:29Z</time></trkpt><trkpt lat="50.62247760758492" lon="3.196274888458984"><ele>26.5</ele><time>2026-04-19T10:00:31Z</time></trkpt><trkpt lat="50.62236721899943" lon="3.1963026895167412"><ele>27.0</ele><time>2026-04-19T10:00:33Z</time></trkpt><trkpt lat="50.622247607323544" lon="3.1963307439712576"><ele>27.0</ele><time>2026-04-19T10:00:35Z</time></trkpt><trkpt lat="50.62212808771616" lon="3.1963017944993695"><ele>27.000000000000004</ele><time>2026-04-19T10:00:37Z</time></trkpt><trkpt lat="50.622019646320304" lon="3.1962445456197233"><ele>27.000000000000004</ele><time>2026-04-19T10:00:39Z</time></trkpt><trkpt lat="50.62190011914159" lon="3.1961819574514765"><ele>27.0</ele><time>2026-04-19T10:00:41Z</time></trkpt><trkpt lat="50.62183985176339" lon="3.1961528779830393"><ele>27.0</ele><time>2026-04-19T10:00:42Z</time></trkpt><trkpt lat="50.621736263471675" lon="3.1960922348414247"><ele>26.8</ele><time>2026-04-19T10:00:44Z</time></trkpt><trkpt lat="50.62165878740952" lon="3.196056976199208"><ele>26.6</ele><time>2026-04-19T10:00:46Z</time></trkpt><trkpt lat="50.62158309002084" lon="3.1959938417855756"><ele>26.400000000000002</ele><time>2026-04-19T10:00:48Z</time></trkpt><trkpt lat="50.62148422896491" lon="3.1959301019803723"><ele>26.200000000000003</ele><time>2026-04-19T10:00:50Z</time></trkpt><trkpt lat="50.62138802400456" lon="3.1958607894361815"><ele>26.0</ele><time>2026-04-19T10:00:52Z</time></trkpt><trkpt lat="50.62128435235291" lon="3.1958029924081863"><ele>26.0</ele><time>2026-04-19T10:00:54Z</time></trkpt><trkpt lat="50.62117966387871" lon="3.1957465117247215"><ele>26.0</ele><time>2026-04-19T10:00:56Z</time></trkpt><trkpt lat="50.62107457361217" lon="3.1956930373951278"><ele>26.0</ele><time>2026-04-19T10:00:58Z</time></trkpt><trkpt lat="50.620964559201866" lon="3.195634914130525"><ele>26.0</ele><time>2026-04-19T10:01:00Z</time></trkpt><trkpt lat="50.62090385718692" lon="3.1956051857506798"><ele>26.0</ele><time>2026-04-19T10:01:01Z</time></trkpt><trkpt lat="50.620792394220175" lon="3.1955530633983016"><ele>25.75</ele><time>2026-04-19T10:01:03Z</time></trkpt><trkpt lat="50.62067892424326" lon="3.195492326326899"><ele>25.5</ele><time>2026-04-19T10:01:05Z</time></trkpt><trkpt lat="50.62056408186975" lon="3.1954323292002815"><ele>25.25</ele><time>2026-04-19T10:01:07Z</time></trkpt><trkpt lat="50.62046541912892" lon="3.1953722721578366"><ele>25.0</ele><time>2026-04-19T10:01:09Z</time></trkpt><trkpt lat="50.620359475386316" lon="3.195331158885842"><ele>25.5</ele><time>2026-04-19T10:01:11Z</time></trkpt><trkpt lat="50.62025953375815" lon="3.1952872305120117"><ele>26.0</ele><time>2026-04-19T10:01:13Z</time></trkpt><trkpt lat="50.6201685339861" lon="3.195197648803298"><ele>26.5</ele><time>2026-04-19T10:01:15Z</time></trkpt><trkpt lat="50.620087431198016" lon="3.1950625332666847"><ele>27.0</ele><time>2026-04-19T10:01:17Z</time></trkpt><trkpt lat="50.62001159969081" lon="3.1948977817214312"><ele>26.857142857142858</ele><time>2026-04-19T10:01:19Z</time></trkpt><trkpt lat="50.619974911939394" lon="3.194816936054025"><ele>26.714285714285715</ele><time>2026-04-19T10:01:20Z</time></trkpt><trkpt lat="50.61994300230829" lon="3.1947216414317188"><ele>26.57142857142857</ele><time>2026-04-19T10:01:21Z</time></trkpt><trkpt lat="50.619895423464655" lon="3.194650030047724"><ele>26.42857142857143</ele><time>2026-04-19T10:01:22Z</time></trkpt><trkpt lat="50.61985565336923" lon="3.1945677591194"><ele>26.28571428571429</ele><time>2026-04-19T10:01:23Z</time></trkpt><trkpt lat="50.619814221522134" lon="3.194492354173663"><ele>26.142857142857142</ele><time>2026-04-19T10:01:24Z</time></trkpt><trkpt lat="50.61973837896368" lon="3.1943497790711417"><ele>26.0</ele><time>2026-04-19T10:01:26Z</time></trkpt><trkpt lat="50.619689250196586" lon="3.1942802449900873"><ele>26.0</ele><time>2026-04-19T10:01:27Z</time></trkpt><trkpt lat="50.61964191549976" lon="3.1942050493134926"><ele>26.0</ele><time>2026-04-19T10:01:28Z</time></trkpt><trkpt lat="50.61954352883156" lon="3.1940800249476573"><ele>26.0</ele><time>2026-04-19T10:01:30Z</time></trkpt><trkpt lat="50.619445118305684" lon="3.1939520317517487"><ele>26.0</ele><time>2026-04-19T10:01:32Z</time></trkpt><trkpt lat="50.619348646701404" lon="3.193834223622744"><ele>26.0</ele><time>2026-04-19T10:01:34Z</time></trkpt><trkpt lat="50.61923862467136" lon="3.193723236984261"><ele>26.0</ele><time>2026-04-19T10:01:36Z</time></trkpt><trkpt lat="50.619133285480146" lon="3.1936413745765666"><ele>26.0</ele><time>2026-04-19T10:01:38Z</time></trkpt><trkpt lat="50.61902289665684" lon="3.193593404009798"><ele>26.0</ele><time>2026-04-19T10:01:40Z</time></trkpt><trkpt lat="50.6189025844405" lon="3.1935591178307434"><ele>26.0</ele><time>2026-04-19T10:01:42Z</time></trkpt><trkpt lat="50.61883647270195" lon="3.1935509435215814"><ele>26.0</ele><time>2026-04-19T10:01:43Z</time></trkpt><trkpt lat="50.618726064470856" lon="3.1934903109225727"><ele>25.999999999999996</ele><time>2026-04-19T10:01:45Z</time></trkpt><trkpt lat="50.61866237734691" lon="3.193476506640258"><ele>26.0</ele><time>2026-04-19T10:01:46Z</time></trkpt><trkpt lat="50.61860019939486" lon="3.1934495575272996"><ele>26.0</ele><time>2026-04-19T10:01:47Z</time></trkpt><trkpt lat="50.61848873407741" lon="3.19340787163027"><ele>26.0</ele><time>2026-04-19T10:01:49Z</time></trkpt><trkpt lat="50.61842790802344" lon="3.1933795787239174"><ele>25.999999999999996</ele><time>2026-04-19T10:01:50Z</time></trkpt><trkpt lat="50.618320486307404" lon="3.193289047803271"><ele>26.0</ele><time>2026-04-19T10:01:52Z</time></trkpt><trkpt lat="50.61821248583162" lon="3.193203591886308"><ele>26.200000000000003</ele><time>2026-04-19T10:01:54Z</time></trkpt><trkpt lat="50.618159472149365" lon="3.1931451693694077"><ele>26.400000000000002</ele><time>2026-04-19T10:01:55Z</time></trkpt><trkpt lat="50.61806357957142" lon="3.193033651358634"><ele>26.6</ele><time>2026-04-19T10:01:57Z</time></trkpt><trkpt lat="50.61797675654229" lon="3.192949270090745"><ele>26.8</ele><time>2026-04-19T10:01:59Z</time></trkpt><trkpt lat="50.61789296649038" lon="3.192857019814629"><ele>27.0</ele><time>2026-04-19T10:02:01Z</time></trkpt><trkpt lat="50.61781613690598" lon="3.1927836780025896"><ele>27.333333333333332</ele><time>2026-04-19T10:02:03Z</time></trkpt><trkpt lat="50.617745720959675" lon="3.1927265258104645"><ele>27.666666666666664</ele><time>2026-04-19T10:02:05Z</time></trkpt><trkpt lat="50.61766986379361" lon="3.1926285821925187"><ele>28.0</ele><time>2026-04-19T10:02:07Z</time></trkpt><trkpt lat="50.61759710479378" lon="3.192537086620824"><ele>28.333333333333332</ele><time>2026-04-19T10:02:10Z</time></trkpt><trkpt lat="50.61754433842605" lon="3.1924798433223778"><ele>28.666666666666664</ele><time>2026-04-19T10:02:12Z</time></trkpt><trkpt lat="50.617470826439856" lon="3.1924212544093584"><ele>29.0</ele><time>2026-04-19T10:02:15Z</time></trkpt><trkpt lat="50.617432294928534" lon="3.1925102283130435"><ele>28.999999999999996</ele><time>2026-04-19T10:02:22Z</time></trkpt><trkpt lat="50.6174974731058" lon="3.1924652027283322"><ele>29.0</ele><time>2026-04-19T10:02:23Z</time></trkpt><trkpt lat="50.61741857071817" lon="3.1923836920797353"><ele>29.0</ele><time>2026-04-19T10:02:29Z</time></trkpt><trkpt lat="50.617357005552996" lon="3.192326082484388"><ele>29.0</ele><time>2026-04-19T10:02:31Z</time></trkpt><trkpt lat="50.61728233629799" lon="3.1922351778071674"><ele>28.999999999999996</ele><time>2026-04-19T10:02:33Z</time></trkpt><trkpt lat="50.61719174100526" lon="3.192139503598961"><ele>29.0</ele><time>2026-04-19T10:02:35Z</time></trkpt><trkpt lat="50.61711102554904" lon="3.192047057805682"><ele>29.0</ele><time>2026-04-19T10:02:37Z</time></trkpt><trkpt lat="50.61702800346452" lon="3.1919808561519503"><ele>29.0</ele><time>2026-04-19T10:02:39Z</time></trkpt><trkpt lat="50.61694782275152" lon="3.1919037106890906"><ele>29.0</ele><time>2026-04-19T10:02:41Z</time></trkpt><trkpt lat="50.616871030930895" lon="3.1918369049165665"><ele>29.0</ele><time>2026-04-19T10:02:43Z</time></trkpt><trkpt lat="50.61679954232766" lon="3.191760302239936"><ele>29.0</ele><time>2026-04-19T10:02:45Z</time></trkpt><trkpt lat="50.61673016779395" lon="3.1916686697259147"><ele>29.166666666666664</ele><time>2026-04-19T10:02:47Z</time></trkpt><trkpt lat="50.61665988649102" lon="3.1915844649457017"><ele>29.333333333333332</ele><time>2026-04-19T10:02:49Z</time></trkpt><trkpt lat="50.616594454316655" lon="3.1914972191429056"><ele>29.5</ele><time>2026-04-19T10:02:51Z</time></trkpt><trkpt lat="50.61651529436016" lon="3.19141741760907"><ele>29.666666666666664</ele><time>2026-04-19T10:02:53Z</time></trkpt><trkpt lat="50.61643540486359" lon="3.191350237496509"><ele>29.833333333333332</ele><time>2026-04-19T10:02:55Z</time></trkpt><trkpt lat="50.6163661952601" lon="3.19126756033238"><ele>30.0</ele><time>2026-04-19T10:02:57Z</time></trkpt><trkpt lat="50.61630518607951" lon="3.1911866826810416"><ele>30.0</ele><time>2026-04-19T10:02:59Z</time></trkpt><trkpt lat="50.61621787137691" lon="3.191106519110242"><ele>30.0</ele><time>2026-04-19T10:03:01Z</time></trkpt><trkpt lat="50.61613848616445" lon="3.1910442349197092"><ele>30.0</ele><time>2026-04-19T10:03:03Z</time></trkpt><trkpt lat="50.61606174719738" lon="3.1909707472593176"><ele>30.0</ele><time>2026-04-19T10:03:05Z</time></trkpt><trkpt lat="50.615991593154746" lon="3.1909203750831323"><ele>30.0</ele><time>2026-04-19T10:03:07Z</time></trkpt><trkpt lat="50.61590236822791" lon="3.1908489658211425"><ele>30.0</ele><time>2026-04-19T10:03:09Z</time></trkpt><trkpt lat="50.61581620523307" lon="3.1907732748357778"><ele>30.0</ele><time>2026-04-19T10:03:11Z</time></trkpt><trkpt lat="50.615732287669054" lon="3.190704338931958"><ele>30.0</ele><time>2026-04-19T10:03:13Z</time></trkpt><trkpt lat="50.61564586399288" lon="3.190649073958822"><ele>30.0</ele><time>2026-04-19T10:03:15Z</time></trkpt><trkpt lat="50.61555708248907" lon="3.190585595641674"><ele>30.0</ele><time>2026-04-19T10:03:17Z</time></trkpt><trkpt lat="50.61546769003607" lon="3.1905269669852117"><ele>29.8</ele><time>2026-04-19T10:03:19Z</time></trkpt><trkpt lat="50.61538084058722" lon="3.1904692065232343"><ele>29.6</ele><time>2026-04-19T10:03:21Z</time></trkpt><trkpt lat="50.61529286877152" lon="3.190428451397535"><ele>29.4</ele><time>2026-04-19T10:03:23Z</time></trkpt><trkpt lat="50.61521183644441" lon="3.190347921248234"><ele>29.2</ele><time>2026-04-19T10:03:25Z</time></trkpt><trkpt lat="50.61512174320238" lon="3.190286607566688"><ele>29.0</ele><time>2026-04-19T10:03:27Z</time></trkpt><trkpt lat="50.615040581377855" lon="3.1902255224722436"><ele>29.4</ele><time>2026-04-19T10:03:29Z</time></trkpt><trkpt lat="50.61494826036556" lon="3.1901732486987284"><ele>29.799999999999997</ele><time>2026-04-19T10:03:31Z</time></trkpt><trkpt lat="50.61486441860699" lon="3.190105188089323"><ele>30.200000000000003</ele><time>2026-04-19T10:03:33Z</time></trkpt><trkpt lat="50.614773392036426" lon="3.190038804641316"><ele>30.6</ele><time>2026-04-19T10:03:35Z</time></trkpt><trkpt lat="50.61468273560781" lon="3.1899717025021648"><ele>31.0</ele><time>2026-04-19T10:03:37Z</time></trkpt><trkpt lat="50.61458760124415" lon="3.189908359145072"><ele>31.200000000000003</ele><time>2026-04-19T10:03:39Z</time></trkpt><trkpt lat="50.6144967810018" lon="3.1898407953917762"><ele>31.400000000000002</ele><time>2026-04-19T10:03:41Z</time></trkpt><trkpt lat="50.61439854005477" lon="3.1897781525444113"><ele>31.6</ele><time>2026-04-19T10:03:43Z</time></trkpt><trkpt lat="50.61429396373563" lon="3.1897248113178627"><ele>31.8</ele><time>2026-04-19T10:03:45Z</time></trkpt><trkpt lat="50.61418821710626" lon="3.1896936097056865"><ele>32.0</ele><time>2026-04-19T10:03:47Z</time></trkpt><trkpt lat="50.61408841397232" lon="3.1896804892126434"><ele>32.0</ele><time>2026-04-19T10:03:49Z</time></trkpt><trkpt lat="50.613983710347256" lon="3.1896529517261203"><ele>32.0</ele><time>2026-04-19T10:03:51Z</time></trkpt><trkpt lat="50.61388694857535" lon="3.1896053183469926"><ele>32.0</ele><time>2026-04-19T10:03:53Z</time></trkpt><trkpt lat="50.613787281337025" lon="3.1896004521739694"><ele>32.0</ele><time>2026-04-19T10:03:55Z</time></trkpt><trkpt lat="50.61368720162475" lon="3.1896163165504943"><ele>32.0</ele><time>2026-04-19T10:03:57Z</time></trkpt><trkpt lat="50.613595598423515" lon="3.1895968461795547"><ele>31.999999999999996</ele><time>2026-04-19T10:03:59Z</time></trkpt><trkpt lat="50.6135076342415" lon="3.1895859596758975"><ele>32.0</ele><time>2026-04-19T10:04:01Z</time></trkpt><trkpt lat="50.61342787053547" lon="3.189582195926011"><ele>32.0</ele><time>2026-04-19T10:04:03Z</time></trkpt><trkpt lat="50.61335499560952" lon="3.189573672473102"><ele>32.0</ele><time>2026-04-19T10:04:05Z</time></trkpt><trkpt lat="50.61328711408917" lon="3.189555942844741"><ele>31.999999999999996</ele><time>2026-04-19T10:04:07Z</time></trkpt><trkpt lat="50.61320170445929" lon="3.1895443618770787"><ele>32.0</ele><time>2026-04-19T10:04:10Z</time></trkpt><trkpt lat="50.61313387173155" lon="3.1895507836396315"><ele>32.0</ele><time>2026-04-19T10:04:12Z</time></trkpt><trkpt lat="50.613048882604154" lon="3.1895460050304405"><ele>32.0</ele><time>2026-04-19T10:04:15Z</time></trkpt><trkpt lat="50.61295540155028" lon="3.18952616114693"><ele>32.0</ele><time>2026-04-19T10:04:18Z</time></trkpt><trkpt lat="50.61287488233909" lon="3.189510648913766"><ele>32.0</ele><time>2026-04-19T10:04:20Z</time></trkpt><trkpt lat="50.61278103439979" lon="3.189507279479768"><ele>32.0</ele><time>2026-04-19T10:04:22Z</time></trkpt><trkpt lat="50.612679285135556" lon="3.1895150558957623"><ele>32.0</ele><time>2026-04-19T10:04:24Z</time></trkpt><trkpt lat="50.61256835812664" lon="3.1895101063978943"><ele>32.0</ele><time>2026-04-19T10:04:26Z</time></trkpt><trkpt lat="50.61245912652836" lon="3.189553024813354"><ele>32.0</ele><time>2026-04-19T10:04:28Z</time></trkpt><trkpt lat="50.61235656966742" lon="3.189615437442098"><ele>32.0</ele><time>2026-04-19T10:04:30Z</time></trkpt><trkpt lat="50.6122547849805" lon="3.189675957225683"><ele>32.0</ele><time>2026-04-19T10:04:32Z</time></trkpt><trkpt lat="50.612143842971925" lon="3.1897293126500714"><ele>32.0</ele><time>2026-04-19T10:04:34Z</time></trkpt><trkpt lat="50.61204013634183" lon="3.1897682419887583"><ele>32.0</ele><time>2026-04-19T10:04:36Z</time></trkpt><trkpt lat="50.611926224845455" lon="3.189794736546431"><ele>32.0</ele><time>2026-04-19T10:04:38Z</time></trkpt><trkpt lat="50.61181698621623" lon="3.1898249375518613"><ele>32.0</ele><time>2026-04-19T10:04:40Z</time></trkpt><trkpt lat="50.61170874403333" lon="3.189863133266907"><ele>32.0</ele><time>2026-04-19T10:04:42Z</time></trkpt><trkpt lat="50.611610360396114" lon="3.1899025952848437"><ele>31.8</ele><time>2026-04-19T10:04:44Z</time></trkpt><trkpt lat="50.61154101554477" lon="3.189921852381527"><ele>31.6</ele><time>2026-04-19T10:04:46Z</time></trkpt><trkpt lat="50.61147659762033" lon="3.189943766545849"><ele>31.400000000000002</ele><time>2026-04-19T10:04:49Z</time></trkpt><trkpt lat="50.61148636114409" lon="3.190100235404919"><ele>31.200000000000003</ele><time>2026-04-19T10:04:50Z</time></trkpt><trkpt lat="50.61147998727929" lon="3.19026956363432"><ele>31.0</ele><time>2026-04-19T10:04:52Z</time></trkpt><trkpt lat="50.61147260641955" lon="3.190443149254308"><ele>31.0</ele><time>2026-04-19T10:04:54Z</time></trkpt><trkpt lat="50.61146258362581" lon="3.190624101839371"><ele>31.0</ele><time>2026-04-19T10:04:56Z</time></trkpt><trkpt lat="50.61145202453796" lon="3.1908091836603516"><ele>31.0</ele><time>2026-04-19T10:04:58Z</time></trkpt><trkpt lat="50.61144240560025" lon="3.190998120503928"><ele>31.0</ele><time>2026-04-19T10:05:00Z</time></trkpt><trkpt lat="50.61143277773188" lon="3.1911825140480183"><ele>30.833333333333336</ele><time>2026-04-19T10:05:02Z</time></trkpt><trkpt lat="50.611429941802044" lon="3.1912909805930445"><ele>30.666666666666668</ele><time>2026-04-19T10:05:03Z</time></trkpt><trkpt lat="50.61143259263936" lon="3.191482635878063"><ele>30.5</ele><time>2026-04-19T10:05:05Z</time></trkpt><trkpt lat="50.611438882473514" lon="3.1915827465895594"><ele>30.333333333333336</ele><time>2026-04-19T10:05:06Z</time></trkpt><trkpt lat="50.61144567788944" lon="3.1916824072010823"><ele>30.166666666666668</ele><time>2026-04-19T10:05:07Z</time></trkpt><trkpt lat="50.6114548216747" lon="3.191789043438015"><ele>30.0</ele><time>2026-04-19T10:05:08Z</time></trkpt><trkpt lat="50.61146463161936" lon="3.191889692437504"><ele>29.8</ele><time>2026-04-19T10:05:09Z</time></trkpt><trkpt lat="50.611479253087225" lon="3.19198857467455"><ele>29.6</ele><time>2026-04-19T10:05:10Z</time></trkpt><trkpt lat="50.61150302983903" lon="3.1921629178511868"><ele>29.4</ele><time>2026-04-19T10:05:12Z</time></trkpt><trkpt lat="50.61136018593707" lon="3.192240913179598"><ele>29.2</ele><time>2026-04-19T10:05:15Z</time></trkpt><trkpt lat="50.6112710540078" lon="3.1921504562840752"><ele>29.0</ele><time>2026-04-19T10:05:17Z</time></trkpt><trkpt lat="50.61117388925323" lon="3.192055419388309"><ele>29.25</ele><time>2026-04-19T10:05:19Z</time></trkpt><trkpt lat="50.61107282386911" lon="3.1919642585624524"><ele>29.5</ele><time>2026-04-19T10:05:21Z</time></trkpt><trkpt lat="50.61097735865121" lon="3.191870040085062"><ele>29.75</ele><time>2026-04-19T10:05:23Z</time></trkpt><trkpt lat="50.61088131548494" lon="3.1917702217659025"><ele>30.0</ele><time>2026-04-19T10:05:25Z</time></trkpt><trkpt lat="50.61078441126976" lon="3.1916742851886832"><ele>30.0</ele><time>2026-04-19T10:05:27Z</time></trkpt><trkpt lat="50.610695449605345" lon="3.191588647043368"><ele>30.0</ele><time>2026-04-19T10:05:29Z</time></trkpt><trkpt lat="50.61060751744397" lon="3.191502833152593"><ele>30.0</ele><time>2026-04-19T10:05:31Z</time></trkpt><trkpt lat="50.61052397748542" lon="3.19141763315644"><ele>30.0</ele><time>2026-04-19T10:05:33Z</time></trkpt><trkpt lat="50.61043381714313" lon="3.191347843878219"><ele>30.0</ele><time>2026-04-19T10:05:35Z</time></trkpt><trkpt lat="50.61035312827738" lon="3.191266450638135"><ele>30.0</ele><time>2026-04-19T10:05:37Z</time></trkpt><trkpt lat="50.610274109274876" lon="3.191175558250996"><ele>30.0</ele><time>2026-04-19T10:05:39Z</time></trkpt><trkpt lat="50.61018139452846" lon="3.191115696244247"><ele>30.0</ele><time>2026-04-19T10:05:41Z</time></trkpt><trkpt lat="50.610090037862946" lon="3.19103802306899"><ele>30.0</ele><time>2026-04-19T10:05:43Z</time></trkpt><trkpt lat="50.61000677737905" lon="3.1909755722383637"><ele>30.0</ele><time>2026-04-19T10:05:45Z</time></trkpt><trkpt lat="50.609906937391905" lon="3.190912842326494"><ele>30.0</ele><time>2026-04-19T10:05:47Z</time></trkpt><trkpt lat="50.60982025201175" lon="3.1908416010796397"><ele>30.0</ele><time>2026-04-19T10:05:49Z</time></trkpt><trkpt lat="50.609727131128466" lon="3.1907704085163977"><ele>30.0</ele><time>2026-04-19T10:05:51Z</time></trkpt><trkpt lat="50.60963279916803" lon="3.1907030915917547"><ele>30.0</ele><time>2026-04-19T10:05:53Z</time></trkpt><trkpt lat="50.60954504919425" lon="3.1906199730072626"><ele>30.0</ele><time>2026-04-19T10:05:55Z</time></trkpt><trkpt lat="50.609471606736804" lon="3.1905422212117656"><ele>30.4</ele><time>2026-04-19T10:05:57Z</time></trkpt><trkpt lat="50.60936813094287" lon="3.190450386410904"><ele>30.8</ele><time>2026-04-19T10:05:59Z</time></trkpt><trkpt lat="50.60927676546412" lon="3.1903647797575445"><ele>31.200000000000003</ele><time>2026-04-19T10:06:01Z</time></trkpt><trkpt lat="50.609182075352315" lon="3.1902751794595923"><ele>31.6</ele><time>2026-04-19T10:06:03Z</time></trkpt><trkpt lat="50.60909247879759" lon="3.1901725299439407"><ele>32.0</ele><time>2026-04-19T10:06:05Z</time></trkpt><trkpt lat="50.60899712897517" lon="3.1900734256954895"><ele>32.0</ele><time>2026-04-19T10:06:07Z</time></trkpt><trkpt lat="50.608906131109904" lon="3.189968099577737"><ele>32.0</ele><time>2026-04-19T10:06:09Z</time></trkpt><trkpt lat="50.60882374958689" lon="3.1898683824023126"><ele>32.0</ele><time>2026-04-19T10:06:11Z</time></trkpt><trkpt lat="50.60874549745043" lon="3.189766005076966"><ele>32.0</ele><time>2026-04-19T10:06:13Z</time></trkpt><trkpt lat="50.6086967892131" lon="3.189648457792214"><ele>32.0</ele><time>2026-04-19T10:06:15Z</time></trkpt><trkpt lat="50.60866318882625" lon="3.1894830312871205"><ele>32.2</ele><time>2026-04-19T10:06:17Z</time></trkpt><trkpt lat="50.60865260050902" lon="3.1893217385587542"><ele>32.400000000000006</ele><time>2026-04-19T10:06:19Z</time></trkpt><trkpt lat="50.608659230806126" lon="3.189165827588228"><ele>32.599999999999994</ele><time>2026-04-19T10:06:21Z</time></trkpt><trkpt lat="50.608654719976904" lon="3.189011334594869"><ele>32.8</ele><time>2026-04-19T10:06:23Z</time></trkpt><trkpt lat="50.60864220129251" lon="3.188855628274666"><ele>33.0</ele><time>2026-04-19T10:06:25Z</time></trkpt><trkpt lat="50.60858490563163" lon="3.188721692458786"><ele>33.0</ele><time>2026-04-19T10:06:27Z</time></trkpt><trkpt lat="50.608506820888216" lon="3.188628634792145"><ele>33.0</ele><time>2026-04-19T10:06:29Z</time></trkpt><trkpt lat="50.60842530839496" lon="3.1885118826813983"><ele>33.0</ele><time>2026-04-19T10:06:31Z</time></trkpt><trkpt lat="50.608338222648605" lon="3.1884035004145113"><ele>33.0</ele><time>2026-04-19T10:06:33Z</time></trkpt><trkpt lat="50.60825048341966" lon="3.188302456680806"><ele>33.0</ele><time>2026-04-19T10:06:35Z</time></trkpt><trkpt lat="50.60816341404216" lon="3.188198640808876"><ele>32.8</ele><time>2026-04-19T10:06:37Z</time></trkpt><trkpt lat="50.60808064979738" lon="3.1880895182806754"><ele>32.599999999999994</ele><time>2026-04-19T10:06:39Z</time></trkpt><trkpt lat="50.607992631579734" lon="3.1879883441740042"><ele>32.400000000000006</ele><time>2026-04-19T10:06:41Z</time></trkpt><trkpt lat="50.607903464594806" lon="3.1878885846770495"><ele>32.2</ele><time>2026-04-19T10:06:43Z</time></trkpt><trkpt lat="50.607820679447855" lon="3.187792328581976"><ele>32.0</ele><time>2026-04-19T10:06:45Z</time></trkpt><trkpt lat="50.60773212332517" lon="3.1876906715786593"><ele>32.0</ele><time>2026-04-19T10:06:47Z</time></trkpt><trkpt lat="50.6076490844376" lon="3.187574441982822"><ele>32.0</ele><time>2026-04-19T10:06:49Z</time></trkpt><trkpt lat="50.60756186940356" lon="3.1874941514101356"><ele>32.0</ele><time>2026-04-19T10:06:51Z</time></trkpt><trkpt lat="50.60746252630995" lon="3.1874039683585367"><ele>32.0</ele><time>2026-04-19T10:06:53Z</time></trkpt><trkpt lat="50.60736257617366" lon="3.1873244001148913"><ele>32.0</ele><time>2026-04-19T10:06:55Z</time></trkpt><trkpt lat="50.607286675997216" lon="3.1872755689078875"><ele>32.0</ele><time>2026-04-19T10:06:57Z</time></trkpt><trkpt lat="50.60719267239389" lon="3.187172383726875"><ele>32.0</ele><time>2026-04-19T10:06:59Z</time></trkpt><trkpt lat="50.60711148331918" lon="3.1870871265398417"><ele>32.0</ele><time>2026-04-19T10:07:01Z</time></trkpt><trkpt lat="50.607042895525844" lon="3.1870041034064167"><ele>32.0</ele><time>2026-04-19T10:07:03Z</time></trkpt><trkpt lat="50.606964416813554" lon="3.1869594600612037"><ele>32.0</ele><time>2026-04-19T10:07:05Z</time></trkpt><trkpt lat="50.60704101571692" lon="3.187032397430488"><ele>31.999999999999996</ele><time>2026-04-19T10:07:09Z</time></trkpt><trkpt lat="50.60711748316396" lon="3.1870996217354457"><ele>32.0</ele><time>2026-04-19T10:07:10Z</time></trkpt><trkpt lat="50.60720948211401" lon="3.187180500747033"><ele>32.0</ele><time>2026-04-19T10:07:12Z</time></trkpt><trkpt lat="50.607286365165685" lon="3.1872480906937772"><ele>32.0</ele><time>2026-04-19T10:07:14Z</time></trkpt><trkpt lat="50.60734158626904" lon="3.1872992763309402"><ele>31.999999999999996</ele><time>2026-04-19T10:07:16Z</time></trkpt><trkpt lat="50.60730076432609" lon="3.1872213900843662"><ele>32.0</ele><time>2026-04-19T10:07:21Z</time></trkpt><trkpt lat="50.6072023997724" lon="3.1872014538358853"><ele>32.0</ele><time>2026-04-19T10:07:23Z</time></trkpt><trkpt lat="50.60711679114564" lon="3.1871247013678787"><ele>32.0</ele><time>2026-04-19T10:07:25Z</time></trkpt><trkpt lat="50.60704381552944" lon="3.187053371297564"><ele>32.0</ele><time>2026-04-19T10:07:27Z</time></trkpt><trkpt lat="50.606965840668515" lon="3.186975854283604"><ele>32.0</ele><time>2026-04-19T10:07:29Z</time></trkpt><trkpt lat="50.60688432514259" lon="3.1869066702166715"><ele>32.0</ele><time>2026-04-19T10:07:31Z</time></trkpt><trkpt lat="50.60680259198976" lon="3.186838637027279"><ele>32.2</ele><time>2026-04-19T10:07:33Z</time></trkpt><trkpt lat="50.60672632636715" lon="3.1867728504958865"><ele>32.400000000000006</ele><time>2026-04-19T10:07:35Z</time></trkpt><trkpt lat="50.60665730604758" lon="3.1867263938250296"><ele>32.599999999999994</ele><time>2026-04-19T10:07:38Z</time></trkpt><trkpt lat="50.606604490730206" lon="3.186899954949221"><ele>32.8</ele><time>2026-04-19T10:07:39Z</time></trkpt><trkpt lat="50.606574965691884" lon="3.18703748733998"><ele>33.0</ele><time>2026-04-19T10:07:41Z</time></trkpt><trkpt lat="50.606544103337065" lon="3.187175678702113"><ele>33.0</ele><time>2026-04-19T10:07:43Z</time></trkpt><trkpt lat="50.6065036231492" lon="3.187325785038429"><ele>33.0</ele><time>2026-04-19T10:07:45Z</time></trkpt><trkpt lat="50.60646569387282" lon="3.1874737345573756"><ele>33.0</ele><time>2026-04-19T10:07:47Z</time></trkpt><trkpt lat="50.606435317216174" lon="3.1876209444307038"><ele>33.0</ele><time>2026-04-19T10:07:49Z</time></trkpt><trkpt lat="50.60640149058449" lon="3.187766428578162"><ele>33.0</ele><time>2026-04-19T10:07:51Z</time></trkpt><trkpt lat="50.60636156040351" lon="3.1879168258205"><ele>33.199999999999996</ele><time>2026-04-19T10:07:53Z</time></trkpt><trkpt lat="50.606320562163006" lon="3.188067001655872"><ele>33.4</ele><time>2026-04-19T10:07:55Z</time></trkpt><trkpt lat="50.60626489586743" lon="3.1882183920624154"><ele>33.599999999999994</ele><time>2026-04-19T10:07:57Z</time></trkpt><trkpt lat="50.60618222044145" lon="3.188328955928885"><ele>33.8</ele><time>2026-04-19T10:07:59Z</time></trkpt><trkpt lat="50.606084153941254" lon="3.1884066480054343"><ele>34.0</ele><time>2026-04-19T10:08:01Z</time></trkpt><trkpt lat="50.60598304379672" lon="3.1884857116384575"><ele>34.0</ele><time>2026-04-19T10:08:03Z</time></trkpt><trkpt lat="50.6058817901132" lon="3.1885592423790072"><ele>34.0</ele><time>2026-04-19T10:08:05Z</time></trkpt><trkpt lat="50.60582104073875" lon="3.188592997917671"><ele>34.0</ele><time>2026-04-19T10:08:06Z</time></trkpt><trkpt lat="50.60576511120603" lon="3.188642217382903"><ele>34.0</ele><time>2026-04-19T10:08:07Z</time></trkpt><trkpt lat="50.60565021193381" lon="3.1887337973419227"><ele>34.0</ele><time>2026-04-19T10:08:09Z</time></trkpt><trkpt lat="50.60558860365838" lon="3.1887690655145193"><ele>34.0</ele><time>2026-04-19T10:08:10Z</time></trkpt><trkpt lat="50.60552206458531" lon="3.1888136025824183"><ele>33.99999999999999</ele><time>2026-04-19T10:08:11Z</time></trkpt><trkpt lat="50.605462807103066" lon="3.1888647484624366"><ele>34.0</ele><time>2026-04-19T10:08:12Z</time></trkpt><trkpt lat="50.60539639004258" lon="3.1889078951722034"><ele>34.0</ele><time>2026-04-19T10:08:13Z</time></trkpt><trkpt lat="50.605333365900044" lon="3.1889465644381616"><ele>34.0</ele><time>2026-04-19T10:08:14Z</time></trkpt><trkpt lat="50.60526760434937" lon="3.188966659877455"><ele>34.0</ele><time>2026-04-19T10:08:15Z</time></trkpt><trkpt lat="50.6051995739195" lon="3.188989917360102"><ele>33.99999999999999</ele><time>2026-04-19T10:08:16Z</time></trkpt><trkpt lat="50.605134778776815" lon="3.189005507931165"><ele>34.0</ele><time>2026-04-19T10:08:17Z</time></trkpt><trkpt lat="50.60506998228635" lon="3.1890178550214396"><ele>33.833333333333336</ele><time>2026-04-19T10:08:18Z</time></trkpt><trkpt lat="50.60494407353926" lon="3.1890368910425133"><ele>33.66666666666667</ele><time>2026-04-19T10:08:20Z</time></trkpt><trkpt lat="50.604876094461815" lon="3.1890337808574913"><ele>33.5</ele><time>2026-04-19T10:08:21Z</time></trkpt><trkpt lat="50.60480659983389" lon="3.189041120688925"><ele>33.333333333333336</ele><time>2026-04-19T10:08:22Z</time></trkpt><trkpt lat="50.60474056303338" lon="3.188998953635327"><ele>33.166666666666664</ele><time>2026-04-19T10:08:23Z</time></trkpt><trkpt lat="50.604665173487334" lon="3.188999652662617"><ele>33.0</ele><time>2026-04-19T10:08:24Z</time></trkpt><trkpt lat="50.60458448132018" lon="3.188962936297371"><ele>33.0</ele><time>2026-04-19T10:08:25Z</time></trkpt><trkpt lat="50.60451296073831" lon="3.188939828238541"><ele>33.0</ele><time>2026-04-19T10:08:26Z</time></trkpt><trkpt lat="50.60442835345509" lon="3.1889253138102878"><ele>33.0</ele><time>2026-04-19T10:08:27Z</time></trkpt><trkpt lat="50.60435097329445" lon="3.18889385507443"><ele>33.0</ele><time>2026-04-19T10:08:28Z</time></trkpt><trkpt lat="50.60425144406116" lon="3.188868260188143"><ele>33.0</ele><time>2026-04-19T10:08:29Z</time></trkpt><trkpt lat="50.60416596685634" lon="3.1888534306191745"><ele>33.0</ele><time>2026-04-19T10:08:30Z</time></trkpt><trkpt lat="50.604101804102385" lon="3.188841212467285"><ele>33.0</ele><time>2026-04-19T10:08:31Z</time></trkpt><trkpt lat="50.6040365200008" lon="3.1888489482492686"><ele>33.0</ele><time>2026-04-19T10:08:32Z</time></trkpt><trkpt lat="50.60395915442581" lon="3.188904148691165"><ele>33.0</ele><time>2026-04-19T10:08:33Z</time></trkpt><trkpt lat="50.603920784579785" lon="3.1889914202820036"><ele>33.0</ele><time>2026-04-19T10:08:34Z</time></trkpt><trkpt lat="50.60394312356934" lon="3.189123172110135"><ele>33.0</ele><time>2026-04-19T10:08:35Z</time></trkpt><trkpt lat="50.60395094445108" lon="3.18925363537095"><ele>33.0</ele><time>2026-04-19T10:08:36Z</time></trkpt><trkpt lat="50.60397540997494" lon="3.189367400084675"><ele>33.0</ele><time>2026-04-19T10:08:37Z</time></trkpt><trkpt lat="50.604008048513805" lon="3.1894856727170127"><ele>33.0</ele><time>2026-04-19T10:08:38Z</time></trkpt><trkpt lat="50.60403902636643" lon="3.18960844697466"><ele>33.0</ele><time>2026-04-19T10:08:39Z</time></trkpt><trkpt lat="50.60405886380851" lon="3.1897335854800306"><ele>33.0</ele><time>2026-04-19T10:08:40Z</time></trkpt><trkpt lat="50.604083680879604" lon="3.189841652766582"><ele>33.0</ele><time>2026-04-19T10:08:41Z</time></trkpt><trkpt lat="50.60410983366583" lon="3.189945273893978"><ele>33.0</ele><time>2026-04-19T10:08:42Z</time></trkpt><trkpt lat="50.604125154451346" lon="3.1900615045254015"><ele>33.4</ele><time>2026-04-19T10:08:43Z</time></trkpt><trkpt lat="50.604125693273836" lon="3.1901668817963307"><ele>33.8</ele><time>2026-04-19T10:08:44Z</time></trkpt><trkpt lat="50.604103376053885" lon="3.190352097467418"><ele>34.2</ele><time>2026-04-19T10:08:46Z</time></trkpt><trkpt lat="50.60403469150543" lon="3.1904774629062"><ele>34.6</ele><time>2026-04-19T10:08:48Z</time></trkpt><trkpt lat="50.60397198795932" lon="3.19051787402587"><ele>35.0</ele><time>2026-04-19T10:08:49Z</time></trkpt><trkpt lat="50.603898115857014" lon="3.1906192251200896"><ele>35.0</ele><time>2026-04-19T10:08:51Z</time></trkpt><trkpt lat="50.603810437968164" lon="3.1907011811649806"><ele>35.0</ele><time>2026-04-19T10:08:53Z</time></trkpt><trkpt lat="50.603729192023216" lon="3.1907785428157145"><ele>35.0</ele><time>2026-04-19T10:08:55Z</time></trkpt><trkpt lat="50.6036707136212" lon="3.1908526598111164"><ele>35.0</ele><time>2026-04-19T10:08:57Z</time></trkpt><trkpt lat="50.603618254681784" lon="3.1909093829714132"><ele>35.0</ele><time>2026-04-19T10:09:00Z</time></trkpt><trkpt lat="50.60367532793015" lon="3.190965843532638"><ele>35.0</ele><time>2026-04-19T10:09:03Z</time></trkpt><trkpt lat="50.60371150963151" lon="3.1908772731547663"><ele>35.0</ele><time>2026-04-19T10:09:06Z</time></trkpt><trkpt lat="50.60376369193755" lon="3.190780924902136"><ele>35.0</ele><time>2026-04-19T10:09:10Z</time></trkpt><trkpt lat="50.60381962078959" lon="3.1907113609954765"><ele>35.0</ele><time>2026-04-19T10:09:13Z</time></trkpt><trkpt lat="50.60388949787561" lon="3.1906271913856803"><ele>35.0</ele><time>2026-04-19T10:09:16Z</time></trkpt><trkpt lat="50.60395289124992" lon="3.1905399125946143"><ele>35.0</ele><time>2026-04-19T10:09:19Z</time></trkpt><trkpt lat="50.60402263215649" lon="3.1904640676838727"><ele>35.0</ele><time>2026-04-19T10:09:22Z</time></trkpt><trkpt lat="50.60407335177939" lon="3.1903741609942986"><ele>35.0</ele><time>2026-04-19T10:09:25Z</time></trkpt><trkpt lat="50.604110565581706" lon="3.190293484580106"><ele>35.0</ele><time>2026-04-19T10:09:27Z</time></trkpt><trkpt lat="50.60413716124314" lon="3.190195153206065"><ele>35.0</ele><time>2026-04-19T10:09:29Z</time></trkpt><trkpt lat="50.604144652474105" lon="3.190088420329108"><ele>35.0</ele><time>2026-04-19T10:09:31Z</time></trkpt><trkpt lat="50.60413337106256" lon="3.1899762341569713"><ele>35.0</ele><time>2026-04-19T10:09:33Z</time></trkpt><trkpt lat="50.604159662452716" lon="3.1898825553613936"><ele>35.0</ele><time>2026-04-19T10:09:35Z</time></trkpt><trkpt lat="50.60407748392732" lon="3.189731004154632"><ele>34.666666666666664</ele><time>2026-04-19T10:09:37Z</time></trkpt><trkpt lat="50.60405316121004" lon="3.189610863899925"><ele>34.33333333333333</ele><time>2026-04-19T10:09:39Z</time></trkpt><trkpt lat="50.60403142552067" lon="3.1894830526409406"><ele>34.0</ele><time>2026-04-19T10:09:41Z</time></trkpt><trkpt lat="50.60400480818444" lon="3.1893632933304"><ele>33.666666666666664</ele><time>2026-04-19T10:09:43Z</time></trkpt><trkpt lat="50.60398068800744" lon="3.1892607084053366"><ele>33.333333333333336</ele><time>2026-04-19T10:09:45Z</time></trkpt><trkpt lat="50.60396425317857" lon="3.1891353765278883"><ele>33.0</ele><time>2026-04-19T10:09:47Z</time></trkpt><trkpt lat="50.60398149497227" lon="3.189002570176004"><ele>32.8</ele><time>2026-04-19T10:09:49Z</time></trkpt><trkpt lat="50.60403404774506" lon="3.188898401952965"><ele>32.599999999999994</ele><time>2026-04-19T10:09:51Z</time></trkpt><trkpt lat="50.604120600866715" lon="3.188866130097486"><ele>32.400000000000006</ele><time>2026-04-19T10:09:53Z</time></trkpt><trkpt lat="50.60421096155089" lon="3.1888811838650843"><ele>32.2</ele><time>2026-04-19T10:09:55Z</time></trkpt><trkpt lat="50.60430221257353" lon="3.188901493273831"><ele>32.0</ele><time>2026-04-19T10:09:57Z</time></trkpt><trkpt lat="50.60439350940678" lon="3.1889304709599977"><ele>31.999999999999996</ele><time>2026-04-19T10:09:59Z</time></trkpt><trkpt lat="50.60448074647549" lon="3.188964359418503"><ele>32.0</ele><time>2026-04-19T10:10:01Z</time></trkpt><trkpt lat="50.604572838850686" lon="3.1889700402292758"><ele>32.0</ele><time>2026-04-19T10:10:03Z</time></trkpt><trkpt lat="50.6046557515814" lon="3.188995507675945"><ele>32.0</ele><time>2026-04-19T10:10:05Z</time></trkpt><trkpt lat="50.60474236290452" lon="3.1890400486506363"><ele>31.999999999999996</ele><time>2026-04-19T10:10:07Z</time></trkpt><trkpt lat="50.604827846109835" lon="3.189066686358335"><ele>32.0</ele><time>2026-04-19T10:10:09Z</time></trkpt><trkpt lat="50.604912082214916" lon="3.189069010447035"><ele>32.0</ele><time>2026-04-19T10:10:11Z</time></trkpt><trkpt lat="50.60499447138464" lon="3.1890540993165137"><ele>32.0</ele><time>2026-04-19T10:10:13Z</time></trkpt><trkpt lat="50.605093661366006" lon="3.189050300650496"><ele>32.0</ele><time>2026-04-19T10:10:15Z</time></trkpt><trkpt lat="50.60519058995146" lon="3.1890324765623843"><ele>32.0</ele><time>2026-04-19T10:10:17Z</time></trkpt><trkpt lat="50.605287715452434" lon="3.1889949347016344"><ele>32.0</ele><time>2026-04-19T10:10:19Z</time></trkpt><trkpt lat="50.60538288171935" lon="3.188979957822173"><ele>32.4</ele><time>2026-04-19T10:10:21Z</time></trkpt><trkpt lat="50.60547086042066" lon="3.1889214201305154"><ele>32.800000000000004</ele><time>2026-04-19T10:10:23Z</time></trkpt><trkpt lat="50.605549706646926" lon="3.1888496403228066"><ele>33.2</ele><time>2026-04-19T10:10:25Z</time></trkpt><trkpt lat="50.60563756343143" lon="3.1887854746835322"><ele>33.6</ele><time>2026-04-19T10:10:27Z</time></trkpt><trkpt lat="50.60572527512182" lon="3.188723699001951"><ele>34.0</ele><time>2026-04-19T10:10:29Z</time></trkpt><trkpt lat="50.60581209478015" lon="3.188655560111216"><ele>34.0</ele><time>2026-04-19T10:10:31Z</time></trkpt><trkpt lat="50.60590173366284" lon="3.1885952474135646"><ele>34.0</ele><time>2026-04-19T10:10:33Z</time></trkpt><trkpt lat="50.60598879553223" lon="3.188515220846479"><ele>34.0</ele><time>2026-04-19T10:10:35Z</time></trkpt><trkpt lat="50.60607350315761" lon="3.188448516558456"><ele>34.0</ele><time>2026-04-19T10:10:37Z</time></trkpt><trkpt lat="50.606164238823155" lon="3.1883993863814686"><ele>34.0</ele><time>2026-04-19T10:10:39Z</time></trkpt><trkpt lat="50.60624909236768" lon="3.1883015581399583"><ele>34.0</ele><time>2026-04-19T10:10:41Z</time></trkpt><trkpt lat="50.606313332383735" lon="3.188178076222212"><ele>34.0</ele><time>2026-04-19T10:10:43Z</time></trkpt><trkpt lat="50.60637678656407" lon="3.1879947184638477"><ele>34.0</ele><time>2026-04-19T10:10:45Z</time></trkpt><trkpt lat="50.60640906842374" lon="3.1878700320870834"><ele>34.0</ele><time>2026-04-19T10:10:47Z</time></trkpt><trkpt lat="50.60644403552479" lon="3.1877121079387662"><ele>34.0</ele><time>2026-04-19T10:10:49Z</time></trkpt><trkpt lat="50.60648468860513" lon="3.187555258878874"><ele>34.0</ele><time>2026-04-19T10:10:51Z</time></trkpt><trkpt lat="50.606528322743145" lon="3.187399954480265"><ele>34.0</ele><time>2026-04-19T10:10:53Z</time></trkpt><trkpt lat="50.60656479671332" lon="3.1872439865680633"><ele>34.0</ele><time>2026-04-19T10:10:55Z</time></trkpt><trkpt lat="50.60659985392016" lon="3.187107381061513"><ele>34.0</ele><time>2026-04-19T10:10:57Z</time></trkpt><trkpt lat="50.60663407525514" lon="3.1869888616052027"><ele>34.0</ele><time>2026-04-19T10:10:59Z</time></trkpt><trkpt lat="50.606670768923934" lon="3.1868920726666508"><ele>33.833333333333336</ele><time>2026-04-19T10:11:01Z</time></trkpt><trkpt lat="50.606734320280474" lon="3.1868517040708273"><ele>33.66666666666667</ele><time>2026-04-19T10:11:04Z</time></trkpt><trkpt lat="50.6068519678876" lon="3.186900426680307"><ele>33.5</ele><time>2026-04-19T10:11:33Z</time></trkpt><trkpt lat="50.60692756214925" lon="3.1869847707154877"><ele>33.333333333333336</ele><time>2026-04-19T10:11:36Z</time></trkpt><trkpt lat="50.606994757227426" lon="3.187032405441813"><ele>33.166666666666664</ele><time>2026-04-19T10:11:38Z</time></trkpt><trkpt lat="50.6070614854997" lon="3.1870951456754884"><ele>33.0</ele><time>2026-04-19T10:11:40Z</time></trkpt><trkpt lat="50.60713073422769" lon="3.187154981906819"><ele>32.8</ele><time>2026-04-19T10:11:42Z</time></trkpt><trkpt lat="50.60720373520214" lon="3.187222693197337"><ele>32.599999999999994</ele><time>2026-04-19T10:11:44Z</time></trkpt><trkpt lat="50.607278847383114" lon="3.1872927232629213"><ele>32.400000000000006</ele><time>2026-04-19T10:11:46Z</time></trkpt><trkpt lat="50.6073615529497" lon="3.187365233048001"><ele>32.2</ele><time>2026-04-19T10:11:48Z</time></trkpt><trkpt lat="50.60744339669588" lon="3.1874388766472856"><ele>32.0</ele><time>2026-04-19T10:11:50Z</time></trkpt><trkpt lat="50.60752136645266" lon="3.1875088727459375"><ele>32.0</ele><time>2026-04-19T10:11:52Z</time></trkpt><trkpt lat="50.6076054888745" lon="3.1875873038069886"><ele>32.0</ele><time>2026-04-19T10:11:54Z</time></trkpt><trkpt lat="50.607680675759156" lon="3.187682350339237"><ele>32.0</ele><time>2026-04-19T10:11:56Z</time></trkpt><trkpt lat="50.60775602640337" lon="3.1877753736897168"><ele>32.0</ele><time>2026-04-19T10:11:58Z</time></trkpt><trkpt lat="50.6078292131689" lon="3.187878615356397"><ele>32.0</ele><time>2026-04-19T10:12:00Z</time></trkpt><trkpt lat="50.60790722391169" lon="3.1879724045161937"><ele>32.0</ele><time>2026-04-19T10:12:02Z</time></trkpt><trkpt lat="50.60799421197253" lon="3.1880566015222125"><ele>32.0</ele><time>2026-04-19T10:12:04Z</time></trkpt><trkpt lat="50.6080821208396" lon="3.1881672943687986"><ele>32.0</ele><time>2026-04-19T10:12:06Z</time></trkpt><trkpt lat="50.60817090537057" lon="3.188280362800858"><ele>32.0</ele><time>2026-04-19T10:12:08Z</time></trkpt><trkpt lat="50.60825978173177" lon="3.1883953407850476"><ele>32.0</ele><time>2026-04-19T10:12:10Z</time></trkpt><trkpt lat="50.608346195534175" lon="3.1885104596567384"><ele>32.25</ele><time>2026-04-19T10:12:12Z</time></trkpt><trkpt lat="50.60843787062304" lon="3.1886263003931945"><ele>32.5</ele><time>2026-04-19T10:12:14Z</time></trkpt><trkpt lat="50.60852946796648" lon="3.1887399689582234"><ele>32.75</ele><time>2026-04-19T10:12:16Z</time></trkpt><trkpt lat="50.608603205351535" lon="3.188892122731313"><ele>33.0</ele><time>2026-04-19T10:12:18Z</time></trkpt><trkpt lat="50.6086185027548" lon="3.189085719492181"><ele>33.333333333333336</ele><time>2026-04-19T10:12:20Z</time></trkpt><trkpt lat="50.608619835162244" lon="3.189190548832038"><ele>33.666666666666664</ele><time>2026-04-19T10:12:21Z</time></trkpt><trkpt lat="50.60859519491887" lon="3.189314055068412"><ele>34.0</ele><time>2026-04-19T10:12:22Z</time></trkpt><trkpt lat="50.60861822467001" lon="3.1895047279614777"><ele>34.33333333333333</ele><time>2026-04-19T10:12:24Z</time></trkpt><trkpt lat="50.60863880614604" lon="3.1896063514882096"><ele>34.666666666666664</ele><time>2026-04-19T10:12:25Z</time></trkpt><trkpt lat="50.60867638305667" lon="3.1896974656254975"><ele>35.0</ele><time>2026-04-19T10:12:26Z</time></trkpt><trkpt lat="50.60871241025112" lon="3.1897865622783095"><ele>34.57142857142857</ele><time>2026-04-19T10:12:27Z</time></trkpt><trkpt lat="50.608753977377766" lon="3.1898725949050504"><ele>34.14285714285714</ele><time>2026-04-19T10:12:28Z</time></trkpt><trkpt lat="50.60880447085902" lon="3.1899432636496927"><ele>33.714285714285715</ele><time>2026-04-19T10:12:29Z</time></trkpt><trkpt lat="50.608861465636" lon="3.1899956552350193"><ele>33.285714285714285</ele><time>2026-04-19T10:12:30Z</time></trkpt><trkpt lat="50.608918822378016" lon="3.1900538064573887"><ele>32.857142857142854</ele><time>2026-04-19T10:12:31Z</time></trkpt><trkpt lat="50.60897721567949" lon="3.190111218666109"><ele>32.42857142857143</ele><time>2026-04-19T10:12:32Z</time></trkpt><trkpt lat="50.60903183096507" lon="3.1901723118185656"><ele>32.0</ele><time>2026-04-19T10:12:33Z</time></trkpt><trkpt lat="50.60908695677256" lon="3.1902300151009677"><ele>31.999999999999996</ele><time>2026-04-19T10:12:34Z</time></trkpt><trkpt lat="50.60913511654096" lon="3.1903025725338763"><ele>32.0</ele><time>2026-04-19T10:12:35Z</time></trkpt><trkpt lat="50.60919686216414" lon="3.1903665387686715"><ele>32.0</ele><time>2026-04-19T10:12:36Z</time></trkpt><trkpt lat="50.60925195945958" lon="3.19042577976295"><ele>32.0</ele><time>2026-04-19T10:12:37Z</time></trkpt><trkpt lat="50.60930867739676" lon="3.190485112094826"><ele>31.999999999999996</ele><time>2026-04-19T10:12:38Z</time></trkpt><trkpt lat="50.60941294782773" lon="3.190592402431457"><ele>32.0</ele><time>2026-04-19T10:12:40Z</time></trkpt><trkpt lat="50.609475516659295" lon="3.190654007841083"><ele>31.666666666666664</ele><time>2026-04-19T10:12:41Z</time></trkpt><trkpt lat="50.60958848598308" lon="3.1907397837443505"><ele>31.333333333333332</ele><time>2026-04-19T10:12:43Z</time></trkpt><trkpt lat="50.60964630624894" lon="3.1907827897646563"><ele>31.0</ele><time>2026-04-19T10:12:44Z</time></trkpt><trkpt lat="50.609706839426906" lon="3.1908267194466475"><ele>30.666666666666664</ele><time>2026-04-19T10:12:45Z</time></trkpt><trkpt lat="50.60976604680937" lon="3.190866017038884"><ele>30.333333333333332</ele><time>2026-04-19T10:12:46Z</time></trkpt><trkpt lat="50.6098291499268" lon="3.1909094304761454"><ele>30.0</ele><time>2026-04-19T10:12:47Z</time></trkpt><trkpt lat="50.60989002211269" lon="3.1909513830598115"><ele>30.0</ele><time>2026-04-19T10:12:48Z</time></trkpt><trkpt lat="50.60995208043344" lon="3.1909917672652837"><ele>30.0</ele><time>2026-04-19T10:12:49Z</time></trkpt><trkpt lat="50.61001430605564" lon="3.1910357551890938"><ele>30.0</ele><time>2026-04-19T10:12:50Z</time></trkpt><trkpt lat="50.610074708524174" lon="3.1910812498604026"><ele>30.0</ele><time>2026-04-19T10:12:51Z</time></trkpt><trkpt lat="50.61013516436411" lon="3.191126419010112"><ele>30.0</ele><time>2026-04-19T10:12:52Z</time></trkpt><trkpt lat="50.61019730972246" lon="3.1911751224254767"><ele>30.0</ele><time>2026-04-19T10:12:53Z</time></trkpt><trkpt lat="50.6102568652103" lon="3.1912258759514334"><ele>30.0</ele><time>2026-04-19T10:12:54Z</time></trkpt><trkpt lat="50.61030938220276" lon="3.191291110548722"><ele>30.0</ele><time>2026-04-19T10:12:55Z</time></trkpt><trkpt lat="50.6103679932385" lon="3.1913466735315805"><ele>30.0</ele><time>2026-04-19T10:12:56Z</time></trkpt><trkpt lat="50.610424993488" lon="3.1914007094959644"><ele>30.0</ele><time>2026-04-19T10:12:57Z</time></trkpt><trkpt lat="50.610482448736064" lon="3.1914551767987525"><ele>30.0</ele><time>2026-04-19T10:12:58Z</time></trkpt><trkpt lat="50.6105403589341" lon="3.1915100753903776"><ele>30.0</ele><time>2026-04-19T10:12:59Z</time></trkpt><trkpt lat="50.6106039680881" lon="3.1915416698521835"><ele>30.0</ele><time>2026-04-19T10:13:00Z</time></trkpt><trkpt lat="50.610662444622676" lon="3.191598099548806"><ele>30.0</ele><time>2026-04-19T10:13:01Z</time></trkpt><trkpt lat="50.61071855294409" lon="3.1916548550465507"><ele>30.0</ele><time>2026-04-19T10:13:02Z</time></trkpt><trkpt lat="50.610774232311584" lon="3.1917154097076303"><ele>30.0</ele><time>2026-04-19T10:13:03Z</time></trkpt><trkpt lat="50.610827752161896" lon="3.191768908707196"><ele>30.0</ele><time>2026-04-19T10:13:04Z</time></trkpt><trkpt lat="50.61088407682419" lon="3.1918208449790764"><ele>30.0</ele><time>2026-04-19T10:13:05Z</time></trkpt><trkpt lat="50.6109404930036" lon="3.1918686758096344"><ele>30.0</ele><time>2026-04-19T10:13:06Z</time></trkpt><trkpt lat="50.61100512560707" lon="3.191925711133483"><ele>30.0</ele><time>2026-04-19T10:13:07Z</time></trkpt><trkpt lat="50.61105747974701" lon="3.191997330217058"><ele>30.0</ele><time>2026-04-19T10:13:08Z</time></trkpt><trkpt lat="50.611119817723036" lon="3.192029786973891"><ele>29.833333333333332</ele><time>2026-04-19T10:13:09Z</time></trkpt><trkpt lat="50.611172995815714" lon="3.192083407088312"><ele>29.666666666666664</ele><time>2026-04-19T10:13:10Z</time></trkpt><trkpt lat="50.61122920872538" lon="3.192140964928277"><ele>29.5</ele><time>2026-04-19T10:13:11Z</time></trkpt><trkpt lat="50.61131213134931" lon="3.1922481093896313"><ele>29.333333333333332</ele><time>2026-04-19T10:13:13Z</time></trkpt><trkpt lat="50.61141016134387" lon="3.192309716563661"><ele>29.166666666666664</ele><time>2026-04-19T10:13:15Z</time></trkpt><trkpt lat="50.611489354583" lon="3.192364231313756"><ele>29.0</ele><time>2026-04-19T10:13:17Z</time></trkpt><trkpt lat="50.61156217737387" lon="3.192289787949404"><ele>28.999999999999996</ele><time>2026-04-19T10:13:19Z</time></trkpt><trkpt lat="50.61162914353286" lon="3.1922864850764614"><ele>29.0</ele><time>2026-04-19T10:13:21Z</time></trkpt><trkpt lat="50.61160563976005" lon="3.192121153715562"><ele>29.0</ele><time>2026-04-19T10:13:23Z</time></trkpt><trkpt lat="50.61156748099094" lon="3.1920285494437093"><ele>29.0</ele><time>2026-04-19T10:13:25Z</time></trkpt><trkpt lat="50.61156196568666" lon="3.1918965181805414"><ele>28.999999999999996</ele><time>2026-04-19T10:13:27Z</time></trkpt><trkpt lat="50.611562181684185" lon="3.1917774107764347"><ele>29.0</ele><time>2026-04-19T10:13:29Z</time></trkpt><trkpt lat="50.6115361179544" lon="3.191681449077951"><ele>28.999999999999996</ele><time>2026-04-19T10:13:31Z</time></trkpt><trkpt lat="50.61152621343426" lon="3.191531285364411"><ele>29.0</ele><time>2026-04-19T10:13:34Z</time></trkpt><trkpt lat="50.61151190854318" lon="3.1913927733432024"><ele>29.0</ele><time>2026-04-19T10:13:37Z</time></trkpt><trkpt lat="50.61150820587604" lon="3.191276554716821"><ele>29.0</ele><time>2026-04-19T10:13:39Z</time></trkpt><trkpt lat="50.61151478453368" lon="3.1911542593839917"><ele>28.999999999999996</ele><time>2026-04-19T10:13:41Z</time></trkpt><trkpt lat="50.61152138755458" lon="3.1910287391102794"><ele>29.0</ele><time>2026-04-19T10:13:43Z</time></trkpt><trkpt lat="50.611527829736865" lon="3.190905467167746"><ele>29.166666666666664</ele><time>2026-04-19T10:13:45Z</time></trkpt><trkpt lat="50.61153589719275" lon="3.1907870920009014"><ele>29.333333333333332</ele><time>2026-04-19T10:13:47Z</time></trkpt><trkpt lat="50.6115436061842" lon="3.1906728613300768"><ele>29.5</ele><time>2026-04-19T10:13:49Z</time></trkpt><trkpt lat="50.611552232375615" lon="3.1905564056930933"><ele>29.666666666666664</ele><time>2026-04-19T10:13:51Z</time></trkpt><trkpt lat="50.61155615712715" lon="3.1904425497970808"><ele>29.833333333333332</ele><time>2026-04-19T10:13:53Z</time></trkpt><trkpt lat="50.61157642990493" lon="3.1903244533636026"><ele>30.0</ele><time>2026-04-19T10:13:55Z</time></trkpt><trkpt lat="50.61158514788729" lon="3.1902040693300746"><ele>30.166666666666668</ele><time>2026-04-19T10:13:57Z</time></trkpt><trkpt lat="50.61158428320771" lon="3.190091525183456"><ele>30.333333333333336</ele><time>2026-04-19T10:13:59Z</time></trkpt><trkpt lat="50.61157583194331" lon="3.189970043374576"><ele>30.5</ele><time>2026-04-19T10:14:01Z</time></trkpt><trkpt lat="50.611559638029334" lon="3.1898477399921923"><ele>30.666666666666668</ele><time>2026-04-19T10:14:03Z</time></trkpt><trkpt lat="50.61151868290093" lon="3.189732250121983"><ele>30.833333333333336</ele><time>2026-04-19T10:14:05Z</time></trkpt><trkpt lat="50.61151841813246" lon="3.1895944961706126"><ele>31.0</ele><time>2026-04-19T10:14:07Z</time></trkpt><trkpt lat="50.61154030994648" lon="3.189461967367605"><ele>31.333333333333336</ele><time>2026-04-19T10:14:09Z</time></trkpt><trkpt lat="50.61153680296766" lon="3.1893352795604333"><ele>31.666666666666668</ele><time>2026-04-19T10:14:11Z</time></trkpt><trkpt lat="50.61152588398919" lon="3.1892191596492054"><ele>32.0</ele><time>2026-04-19T10:14:13Z</time></trkpt><trkpt lat="50.611498634978304" lon="3.1890774125016255"><ele>32.333333333333336</ele><time>2026-04-19T10:14:16Z</time></trkpt><trkpt lat="50.611495294037816" lon="3.1889391500382454"><ele>32.666666666666664</ele><time>2026-04-19T10:14:19Z</time></trkpt><trkpt lat="50.61149287644364" lon="3.188826918294556"><ele>33.0</ele><time>2026-04-19T10:14:22Z</time></trkpt><trkpt lat="50.61146981315955" lon="3.1887024323182507"><ele>33.333333333333336</ele><time>2026-04-19T10:14:26Z</time></trkpt><trkpt lat="50.611448358883536" lon="3.1885566224452857"><ele>33.666666666666664</ele><time>2026-04-19T10:14:29Z</time></trkpt><trkpt lat="50.61141545678558" lon="3.188449104369778"><ele>34.0</ele><time>2026-04-19T10:14:31Z</time></trkpt><trkpt lat="50.611384379472405" lon="3.1883315154193155"><ele>34.33333333333333</ele><time>2026-04-19T10:14:33Z</time></trkpt><trkpt lat="50.61135982008152" lon="3.188233719426904"><ele>34.666666666666664</ele><time>2026-04-19T10:14:35Z</time></trkpt><trkpt lat="50.61132998135968" lon="3.188145416689167"><ele>35.0</ele><time>2026-04-19T10:14:37Z</time></trkpt><trkpt lat="50.611293711360545" lon="3.1880463237250454"><ele>35.0</ele><time>2026-04-19T10:14:39Z</time></trkpt><trkpt lat="50.61127707715536" lon="3.187945361109076"><ele>35.0</ele><time>2026-04-19T10:14:41Z</time></trkpt><trkpt lat="50.61126626446626" lon="3.187830584435545"><ele>35.0</ele><time>2026-04-19T10:14:43Z</time></trkpt><trkpt lat="50.61123724581533" lon="3.1877008892788403"><ele>35.0</ele><time>2026-04-19T10:14:45Z</time></trkpt><trkpt lat="50.61120172020277" lon="3.1875820067516947"><ele>35.0</ele><time>2026-04-19T10:14:47Z</time></trkpt><trkpt lat="50.61116006963185" lon="3.18746064252235"><ele>35.0</ele><time>2026-04-19T10:14:49Z</time></trkpt><trkpt lat="50.611126975223854" lon="3.187333958817922"><ele>34.5</ele><time>2026-04-19T10:14:51Z</time></trkpt><trkpt lat="50.61109218349042" lon="3.1871897532966598"><ele>34.0</ele><time>2026-04-19T10:14:53Z</time></trkpt><trkpt lat="50.611067038874886" lon="3.1870858293393036"><ele>33.5</ele><time>2026-04-19T10:14:55Z</time></trkpt><trkpt lat="50.61104122602396" lon="3.1869871538796795"><ele>33.0</ele><time>2026-04-19T10:14:58Z</time></trkpt><trkpt lat="50.611003510382204" lon="3.1868765597197224"><ele>32.5</ele><time>2026-04-19T10:15:02Z</time></trkpt><trkpt lat="50.61096577794118" lon="3.1867513570197974"><ele>32.0</ele><time>2026-04-19T10:15:05Z</time></trkpt><trkpt lat="50.610929937379126" lon="3.1866141948933464"><ele>31.999999999999996</ele><time>2026-04-19T10:15:08Z</time></trkpt><trkpt lat="50.61089978903803" lon="3.186506925487435"><ele>32.0</ele><time>2026-04-19T10:15:10Z</time></trkpt><trkpt lat="50.61087140238567" lon="3.1863844897813993"><ele>32.0</ele><time>2026-04-19T10:15:13Z</time></trkpt><trkpt lat="50.61084136483957" lon="3.1862938870473028"><ele>32.0</ele><time>2026-04-19T10:15:15Z</time></trkpt><trkpt lat="50.61080969188399" lon="3.1861915019817655"><ele>31.999999999999996</ele><time>2026-04-19T10:15:17Z</time></trkpt><trkpt lat="50.61075951475531" lon="3.18606788813161"><ele>32.0</ele><time>2026-04-19T10:15:20Z</time></trkpt><trkpt lat="50.610742115337715" lon="3.1859673187096353"><ele>31.999999999999996</ele><time>2026-04-19T10:15:22Z</time></trkpt><trkpt lat="50.610690301448365" lon="3.185855631475193"><ele>32.0</ele><time>2026-04-19T10:15:25Z</time></trkpt><trkpt lat="50.61064615983203" lon="3.18573477178283"><ele>32.0</ele><time>2026-04-19T10:15:28Z</time></trkpt><trkpt lat="50.61060685715734" lon="3.1856322934889545"><ele>32.0</ele><time>2026-04-19T10:15:29Z</time></trkpt><trkpt lat="50.61057965564056" lon="3.185519669035689"><ele>31.999999999999996</ele><time>2026-04-19T10:15:33Z</time></trkpt><trkpt lat="50.610540868018674" lon="3.1854091447883843"><ele>32.0</ele><time>2026-04-19T10:15:35Z</time></trkpt><trkpt lat="50.6105063008056" lon="3.185305124064933"><ele>31.999999999999996</ele><time>2026-04-19T10:15:37Z</time></trkpt><trkpt lat="50.610473319191016" lon="3.185212421384256"><ele>32.0</ele><time>2026-04-19T10:15:39Z</time></trkpt><trkpt lat="50.61042775869773" lon="3.1850798293494633"><ele>32.0</ele><time>2026-04-19T10:15:42Z</time></trkpt><trkpt lat="50.61039203523716" lon="3.1849822892909874"><ele>32.0</ele><time>2026-04-19T10:15:44Z</time></trkpt><trkpt lat="50.610359494261296" lon="3.18486833945274"><ele>31.999999999999996</ele><time>2026-04-19T10:15:46Z</time></trkpt><trkpt lat="50.610323444868285" lon="3.184764223017411"><ele>32.0</ele><time>2026-04-19T10:15:48Z</time></trkpt><trkpt lat="50.61029494760004" lon="3.1846683520702754"><ele>32.166666666666664</ele><time>2026-04-19T10:15:50Z</time></trkpt><trkpt lat="50.61026064453952" lon="3.184556832956885"><ele>32.33333333333333</ele><time>2026-04-19T10:15:52Z</time></trkpt><trkpt lat="50.61022335742941" lon="3.184444616378791"><ele>32.5</ele><time>2026-04-19T10:15:54Z</time></trkpt><trkpt lat="50.61019378577186" lon="3.1843265883450913"><ele>32.666666666666664</ele><time>2026-04-19T10:15:56Z</time></trkpt><trkpt lat="50.61015638245389" lon="3.1841997780275992"><ele>32.833333333333336</ele><time>2026-04-19T10:15:58Z</time></trkpt><trkpt lat="50.61012388736767" lon="3.1840646623154885"><ele>33.0</ele><time>2026-04-19T10:16:00Z</time></trkpt><trkpt lat="50.61008269258585" lon="3.1839344635317324"><ele>33.0</ele><time>2026-04-19T10:16:02Z</time></trkpt><trkpt lat="50.61005037976881" lon="3.1837932322799505"><ele>33.0</ele><time>2026-04-19T10:16:04Z</time></trkpt><trkpt lat="50.6100179978796" lon="3.1836537857789446"><ele>33.0</ele><time>2026-04-19T10:16:06Z</time></trkpt><trkpt lat="50.60998868918848" lon="3.1835096743346214"><ele>33.0</ele><time>2026-04-19T10:16:08Z</time></trkpt><trkpt lat="50.60995406506477" lon="3.183369602390662"><ele>33.0</ele><time>2026-04-19T10:16:10Z</time></trkpt><trkpt lat="50.60991846550208" lon="3.1832150145668807"><ele>33.199999999999996</ele><time>2026-04-19T10:16:12Z</time></trkpt><trkpt lat="50.60988633488251" lon="3.1830661784481613"><ele>33.4</ele><time>2026-04-19T10:16:14Z</time></trkpt><trkpt lat="50.60985545895177" lon="3.1829309648449176"><ele>33.599999999999994</ele><time>2026-04-19T10:16:16Z</time></trkpt><trkpt lat="50.60986367744308" lon="3.1827638293913667"><ele>33.8</ele><time>2026-04-19T10:16:18Z</time></trkpt><trkpt lat="50.60981733461154" lon="3.1826588991452742"><ele>34.0</ele><time>2026-04-19T10:16:20Z</time></trkpt><trkpt lat="50.60977852709403" lon="3.1825231065195276"><ele>34.0</ele><time>2026-04-19T10:16:22Z</time></trkpt><trkpt lat="50.60974870134271" lon="3.1823683192494596"><ele>34.0</ele><time>2026-04-19T10:16:24Z</time></trkpt><trkpt lat="50.60972036143474" lon="3.1822280094596493"><ele>34.0</ele><time>2026-04-19T10:16:26Z</time></trkpt><trkpt lat="50.60968989244479" lon="3.182094628979028"><ele>34.0</ele><time>2026-04-19T10:16:28Z</time></trkpt><trkpt lat="50.609664801496585" lon="3.181930197111117"><ele>34.0</ele><time>2026-04-19T10:16:30Z</time></trkpt><trkpt lat="50.60963552088751" lon="3.181783781843372"><ele>34.0</ele><time>2026-04-19T10:16:32Z</time></trkpt><trkpt lat="50.609609154166876" lon="3.1816331399545126"><ele>34.0</ele><time>2026-04-19T10:16:34Z</time></trkpt><trkpt lat="50.609572741062436" lon="3.1814968963392363"><ele>34.0</ele><time>2026-04-19T10:16:36Z</time></trkpt><trkpt lat="50.60955851570833" lon="3.1813213894809595"><ele>34.0</ele><time>2026-04-19T10:16:38Z</time></trkpt><trkpt lat="50.609539287670984" lon="3.1811505791970984"><ele>34.0</ele><time>2026-04-19T10:16:40Z</time></trkpt><trkpt lat="50.609519479991405" lon="3.1809702123888743"><ele>34.0</ele><time>2026-04-19T10:16:42Z</time></trkpt><trkpt lat="50.60949809760065" lon="3.180800027429725"><ele>34.0</ele><time>2026-04-19T10:16:44Z</time></trkpt><trkpt lat="50.60949158706896" lon="3.180625250247112"><ele>34.0</ele><time>2026-04-19T10:16:46Z</time></trkpt><trkpt lat="50.60948047107018" lon="3.1804684381340373"><ele>34.0</ele><time>2026-04-19T10:16:48Z</time></trkpt><trkpt lat="50.60945721152026" lon="3.1803353079398358"><ele>34.0</ele><time>2026-04-19T10:16:50Z</time></trkpt><trkpt lat="50.60943907906407" lon="3.1801796434421883"><ele>34.0</ele><time>2026-04-19T10:16:52Z</time></trkpt><trkpt lat="50.60941375538623" lon="3.180020735624523"><ele>34.0</ele><time>2026-04-19T10:16:54Z</time></trkpt><trkpt lat="50.60940023045214" lon="3.1798614093558495"><ele>34.0</ele><time>2026-04-19T10:16:56Z</time></trkpt><trkpt lat="50.609393472754526" lon="3.179705859456389"><ele>34.0</ele><time>2026-04-19T10:16:58Z</time></trkpt><trkpt lat="50.60936437289932" lon="3.179463017698236"><ele>33.8</ele><time>2026-04-19T10:17:01Z</time></trkpt><trkpt lat="50.609344368134515" lon="3.1793042009497774"><ele>33.599999999999994</ele><time>2026-04-19T10:17:03Z</time></trkpt><trkpt lat="50.60934010723393" lon="3.179146580016314"><ele>33.4</ele><time>2026-04-19T10:17:05Z</time></trkpt><trkpt lat="50.60932542020256" lon="3.1789967353816655"><ele>33.199999999999996</ele><time>2026-04-19T10:17:07Z</time></trkpt><trkpt lat="50.60931301678742" lon="3.1788492117583464"><ele>33.0</ele><time>2026-04-19T10:17:09Z</time></trkpt><trkpt lat="50.60929943352525" lon="3.178726219798838"><ele>32.833333333333336</ele><time>2026-04-19T10:17:11Z</time></trkpt><trkpt lat="50.609296756044834" lon="3.178593820564382"><ele>32.666666666666664</ele><time>2026-04-19T10:17:13Z</time></trkpt><trkpt lat="50.6093031770801" lon="3.17844933961984"><ele>32.5</ele><time>2026-04-19T10:17:15Z</time></trkpt><trkpt lat="50.60929363059911" lon="3.1783236782969024"><ele>32.33333333333333</ele><time>2026-04-19T10:17:18Z</time></trkpt><trkpt lat="50.60928676895592" lon="3.1781953879735005"><ele>32.166666666666664</ele><time>2026-04-19T10:17:21Z</time></trkpt><trkpt lat="50.60927727400111" lon="3.178049240928688"><ele>32.0</ele><time>2026-04-19T10:17:24Z</time></trkpt><trkpt lat="50.60926605149734" lon="3.1779386694863576"><ele>32.0</ele><time>2026-04-19T10:17:26Z</time></trkpt><trkpt lat="50.60924888406118" lon="3.1777882299631925"><ele>32.0</ele><time>2026-04-19T10:17:28Z</time></trkpt><trkpt lat="50.60923871880804" lon="3.1776476384957717"><ele>32.0</ele><time>2026-04-19T10:17:30Z</time></trkpt><trkpt lat="50.609221262253904" lon="3.177499329722292"><ele>32.0</ele><time>2026-04-19T10:17:32Z</time></trkpt><trkpt lat="50.609205864296456" lon="3.1773416218047674"><ele>32.0</ele><time>2026-04-19T10:17:34Z</time></trkpt><trkpt lat="50.60918743021301" lon="3.1771934458568376"><ele>32.0</ele><time>2026-04-19T10:17:36Z</time></trkpt><trkpt lat="50.609166285773306" lon="3.177044973417113"><ele>32.0</ele><time>2026-04-19T10:17:38Z</time></trkpt><trkpt lat="50.60915108633002" lon="3.176895540878802"><ele>32.0</ele><time>2026-04-19T10:17:40Z</time></trkpt><trkpt lat="50.609132482048004" lon="3.1767337183133892"><ele>32.0</ele><time>2026-04-19T10:17:42Z</time></trkpt><trkpt lat="50.60911694202282" lon="3.1765740758490084"><ele>32.0</ele><time>2026-04-19T10:17:44Z</time></trkpt><trkpt lat="50.60909651341974" lon="3.1764295795531208"><ele>32.0</ele><time>2026-04-19T10:17:46Z</time></trkpt><trkpt lat="50.60907936014212" lon="3.1762809487584347"><ele>32.0</ele><time>2026-04-19T10:17:48Z</time></trkpt><trkpt lat="50.60905947903413" lon="3.1761285576110216"><ele>32.0</ele><time>2026-04-19T10:17:50Z</time></trkpt><trkpt lat="50.60903984703997" lon="3.175985449489664"><ele>32.0</ele><time>2026-04-19T10:17:52Z</time></trkpt><trkpt lat="50.60902691455999" lon="3.175841078191756"><ele>32.0</ele><time>2026-04-19T10:17:54Z</time></trkpt><trkpt lat="50.60900760655986" lon="3.1756819414973068"><ele>32.0</ele><time>2026-04-19T10:17:56Z</time></trkpt><trkpt lat="50.608996153833104" lon="3.175525076239461"><ele>32.0</ele><time>2026-04-19T10:17:58Z</time></trkpt><trkpt lat="50.60897684219524" lon="3.175371702809494"><ele>32.0</ele><time>2026-04-19T10:18:00Z</time></trkpt><trkpt lat="50.608959134330235" lon="3.1752150947696047"><ele>32.0</ele><time>2026-04-19T10:18:02Z</time></trkpt><trkpt lat="50.608943070795924" lon="3.175065927247274"><ele>32.0</ele><time>2026-04-19T10:18:04Z</time></trkpt><trkpt lat="50.6089274193263" lon="3.1749225374405445"><ele>32.666666666666664</ele><time>2026-04-19T10:18:06Z</time></trkpt><trkpt lat="50.608910231212775" lon="3.1747690322190656"><ele>33.33333333333333</ele><time>2026-04-19T10:18:08Z</time></trkpt><trkpt lat="50.60888789822705" lon="3.1746184795154364"><ele>34.0</ele><time>2026-04-19T10:18:10Z</time></trkpt><trkpt lat="50.60886507621195" lon="3.1745202777501516"><ele>34.666666666666664</ele><time>2026-04-19T10:18:11Z</time></trkpt><trkpt lat="50.60886171917682" lon="3.174383165453661"><ele>35.333333333333336</ele><time>2026-04-19T10:18:13Z</time></trkpt><trkpt lat="50.60885376703829" lon="3.1742375757776458"><ele>36.0</ele><time>2026-04-19T10:18:15Z</time></trkpt><trkpt lat="50.60884687561595" lon="3.174095485377373"><ele>36.4</ele><time>2026-04-19T10:18:17Z</time></trkpt><trkpt lat="50.608851380169625" lon="3.1739455649405093"><ele>36.8</ele><time>2026-04-19T10:18:19Z</time></trkpt><trkpt lat="50.608835059358725" lon="3.1738150388042934"><ele>37.199999999999996</ele><time>2026-04-19T10:18:21Z</time></trkpt><trkpt lat="50.60882268004666" lon="3.1736678587647322"><ele>37.6</ele><time>2026-04-19T10:18:23Z</time></trkpt><trkpt lat="50.60882191131563" lon="3.173495088118272"><ele>38.0</ele><time>2026-04-19T10:18:25Z</time></trkpt><trkpt lat="50.60882145597898" lon="3.1733381006602994"><ele>38.0</ele><time>2026-04-19T10:18:27Z</time></trkpt><trkpt lat="50.60883088036046" lon="3.1732083688768564"><ele>38.0</ele><time>2026-04-19T10:18:30Z</time></trkpt><trkpt lat="50.60879503072673" lon="3.1730910047594776"><ele>38.0</ele><time>2026-04-19T10:18:32Z</time></trkpt><trkpt lat="50.60878484643103" lon="3.1729149280795155"><ele>38.0</ele><time>2026-04-19T10:18:34Z</time></trkpt><trkpt lat="50.6087992464931" lon="3.1727617417935154"><ele>38.0</ele><time>2026-04-19T10:18:36Z</time></trkpt><trkpt lat="50.608794011615466" lon="3.1726126502492096"><ele>37.8</ele><time>2026-04-19T10:18:38Z</time></trkpt><trkpt lat="50.608794298676905" lon="3.172443209608249"><ele>37.599999999999994</ele><time>2026-04-19T10:18:40Z</time></trkpt><trkpt lat="50.60880375889979" lon="3.1722853643618"><ele>37.400000000000006</ele><time>2026-04-19T10:18:42Z</time></trkpt><trkpt lat="50.60880985116352" lon="3.1721233643918754"><ele>37.2</ele><time>2026-04-19T10:18:44Z</time></trkpt><trkpt lat="50.60881566070036" lon="3.1719760552869114"><ele>37.0</ele><time>2026-04-19T10:18:46Z</time></trkpt><trkpt lat="50.60881325892349" lon="3.1718034313110537"><ele>37.0</ele><time>2026-04-19T10:18:48Z</time></trkpt><trkpt lat="50.60880830474615" lon="3.171636351695656"><ele>37.0</ele><time>2026-04-19T10:18:50Z</time></trkpt><trkpt lat="50.60881348487771" lon="3.171470813793505"><ele>37.0</ele><time>2026-04-19T10:18:52Z</time></trkpt><trkpt lat="50.60881124928851" lon="3.171300278238576"><ele>37.0</ele><time>2026-04-19T10:18:54Z</time></trkpt><trkpt lat="50.6088143686057" lon="3.171144200397998"><ele>37.0</ele><time>2026-04-19T10:18:56Z</time></trkpt><trkpt lat="50.60882036410777" lon="3.1709785216560475"><ele>37.25</ele><time>2026-04-19T10:18:58Z</time></trkpt><trkpt lat="50.60882108437154" lon="3.1708025401489133"><ele>37.5</ele><time>2026-04-19T10:19:00Z</time></trkpt><trkpt lat="50.60881411053042" lon="3.1706154299898395"><ele>37.75</ele><time>2026-04-19T10:19:02Z</time></trkpt><trkpt lat="50.608824626073016" lon="3.1704572981404398"><ele>38.0</ele><time>2026-04-19T10:19:04Z</time></trkpt><trkpt lat="50.60882143444598" lon="3.170269445257659"><ele>38.0</ele><time>2026-04-19T10:19:06Z</time></trkpt><trkpt lat="50.608829125136516" lon="3.1700817230131504"><ele>38.0</ele><time>2026-04-19T10:19:08Z</time></trkpt><trkpt lat="50.60882158508217" lon="3.169890020147996"><ele>38.0</ele><time>2026-04-19T10:19:10Z</time></trkpt><trkpt lat="50.60884647731701" lon="3.1697230052809875"><ele>38.0</ele><time>2026-04-19T10:19:12Z</time></trkpt><trkpt lat="50.60885984566099" lon="3.1695516610147574"><ele>38.0</ele><time>2026-04-19T10:19:14Z</time></trkpt><trkpt lat="50.608868811971725" lon="3.169377940227432"><ele>38.0</ele><time>2026-04-19T10:19:16Z</time></trkpt><trkpt lat="50.60887780373842" lon="3.1691951537175544"><ele>38.0</ele><time>2026-04-19T10:19:18Z</time></trkpt><trkpt lat="50.608892157014246" lon="3.169020613844733"><ele>38.0</ele><time>2026-04-19T10:19:20Z</time></trkpt><trkpt lat="50.60890315113608" lon="3.1688463964954297"><ele>37.8</ele><time>2026-04-19T10:19:22Z</time></trkpt><trkpt lat="50.60890857592309" lon="3.1687095775700334"><ele>37.599999999999994</ele><time>2026-04-19T10:19:24Z</time></trkpt><trkpt lat="50.60893004286956" lon="3.1685342979695927"><ele>37.400000000000006</ele><time>2026-04-19T10:19:26Z</time></trkpt><trkpt lat="50.608928577349225" lon="3.1683654019776455"><ele>37.2</ele><time>2026-04-19T10:19:28Z</time></trkpt><trkpt lat="50.6089353764625" lon="3.168188434124088"><ele>37.0</ele><time>2026-04-19T10:19:30Z</time></trkpt><trkpt lat="50.60897209471301" lon="3.1680240262242334"><ele>37.0</ele><time>2026-04-19T10:19:32Z</time></trkpt><trkpt lat="50.608975740266814" lon="3.1678676041996257"><ele>37.0</ele><time>2026-04-19T10:19:34Z</time></trkpt><trkpt lat="50.608987282421296" lon="3.167696116506814"><ele>37.0</ele><time>2026-04-19T10:19:36Z</time></trkpt><trkpt lat="50.60899336417048" lon="3.167533528651055"><ele>37.0</ele><time>2026-04-19T10:19:38Z</time></trkpt><trkpt lat="50.60900976172626" lon="3.167377322331625"><ele>37.0</ele><time>2026-04-19T10:19:40Z</time></trkpt><trkpt lat="50.609021693156556" lon="3.167222461716536"><ele>37.0</ele><time>2026-04-19T10:19:42Z</time></trkpt><trkpt lat="50.609031335790114" lon="3.16706653659679"><ele>37.0</ele><time>2026-04-19T10:19:44Z</time></trkpt><trkpt lat="50.609031530166455" lon="3.166912181254378"><ele>37.0</ele><time>2026-04-19T10:19:46Z</time></trkpt><trkpt lat="50.60904564750159" lon="3.166759734291109"><ele>37.0</ele><time>2026-04-19T10:19:48Z</time></trkpt><trkpt lat="50.60906399002963" lon="3.166609571464348"><ele>37.0</ele><time>2026-04-19T10:19:50Z</time></trkpt><trkpt lat="50.60908940673355" lon="3.1664494716086673"><ele>36.800000000000004</ele><time>2026-04-19T10:19:52Z</time></trkpt><trkpt lat="50.609118209140085" lon="3.1663011301282205"><ele>36.6</ele><time>2026-04-19T10:19:54Z</time></trkpt><trkpt lat="50.60915302352185" lon="3.166139188580535"><ele>36.400000000000006</ele><time>2026-04-19T10:19:56Z</time></trkpt><trkpt lat="50.60920174456628" lon="3.1659948329268617"><ele>36.2</ele><time>2026-04-19T10:19:58Z</time></trkpt><trkpt lat="50.60924388443926" lon="3.165854971976127"><ele>36.0</ele><time>2026-04-19T10:20:00Z</time></trkpt><trkpt lat="50.60928369504285" lon="3.1656909594012843"><ele>36.0</ele><time>2026-04-19T10:20:02Z</time></trkpt><trkpt lat="50.609340899660864" lon="3.165537682428671"><ele>36.0</ele><time>2026-04-19T10:20:04Z</time></trkpt><trkpt lat="50.60938684410607" lon="3.1653840768953994"><ele>36.0</ele><time>2026-04-19T10:20:06Z</time></trkpt><trkpt lat="50.60943550399681" lon="3.1652491056796443"><ele>36.0</ele><time>2026-04-19T10:20:08Z</time></trkpt><trkpt lat="50.609483294342816" lon="3.1650947524143427"><ele>36.0</ele><time>2026-04-19T10:20:09.999Z</time></trkpt><trkpt lat="50.60953513530131" lon="3.164950248505663"><ele>36.2</ele><time>2026-04-19T10:20:11.999Z</time></trkpt><trkpt lat="50.60958738504687" lon="3.164801569415854"><ele>36.400000000000006</ele><time>2026-04-19T10:20:13.999Z</time></trkpt><trkpt lat="50.609645513230035" lon="3.164646360804167"><ele>36.6</ele><time>2026-04-19T10:20:15.999Z</time></trkpt><trkpt lat="50.60970500396524" lon="3.1645000789492874"><ele>36.800000000000004</ele><time>2026-04-19T10:20:17.999Z</time></trkpt><trkpt lat="50.60977069317705" lon="3.1643569326939653"><ele>37.0</ele><time>2026-04-19T10:20:19.999Z</time></trkpt><trkpt lat="50.609850062758824" lon="3.16422443368074"><ele>37.0</ele><time>2026-04-19T10:20:21.999Z</time></trkpt><trkpt lat="50.60991534168638" lon="3.1640781024949254"><ele>37.0</ele><time>2026-04-19T10:20:23.999Z</time></trkpt><trkpt lat="50.609980533776984" lon="3.1639520415000213"><ele>37.0</ele><time>2026-04-19T10:20:25.999Z</time></trkpt><trkpt lat="50.610039606632114" lon="3.1638135090451107"><ele>37.0</ele><time>2026-04-19T10:20:27.999Z</time></trkpt><trkpt lat="50.610107893553696" lon="3.1636793439031017"><ele>37.0</ele><time>2026-04-19T10:20:29.999Z</time></trkpt><trkpt lat="50.61017099924091" lon="3.163552629160534"><ele>36.833333333333336</ele><time>2026-04-19T10:20:31.999Z</time></trkpt><trkpt lat="50.61023891151828" lon="3.163436154046153"><ele>36.66666666666667</ele><time>2026-04-19T10:20:33.999Z</time></trkpt><trkpt lat="50.61029554413892" lon="3.163310283300033"><ele>36.5</ele><time>2026-04-19T10:20:35.999Z</time></trkpt><trkpt lat="50.610345380157284" lon="3.163214798225195"><ele>36.333333333333336</ele><time>2026-04-19T10:20:37.999Z</time></trkpt><trkpt lat="50.61039331670906" lon="3.163131299464982"><ele>36.166666666666664</ele><time>2026-04-19T10:20:39.999Z</time></trkpt><trkpt lat="50.61043439988543" lon="3.1630513023462234"><ele>36.0</ele><time>2026-04-19T10:20:41.999Z</time></trkpt><trkpt lat="50.6104715928945" lon="3.162968819115025"><ele>35.833333333333336</ele><time>2026-04-19T10:20:43.999Z</time></trkpt><trkpt lat="50.61052047663263" lon="3.162851038312919"><ele>35.666666666666664</ele><time>2026-04-19T10:20:46.999Z</time></trkpt><trkpt lat="50.61056588935863" lon="3.1627592308365142"><ele>35.5</ele><time>2026-04-19T10:20:49.999Z</time></trkpt><trkpt lat="50.61060995779056" lon="3.162682705811324"><ele>35.33333333333333</ele><time>2026-04-19T10:20:52.999Z</time></trkpt><trkpt lat="50.61064230039012" lon="3.16256040029091"><ele>35.166666666666664</ele><time>2026-04-19T10:20:56.999Z</time></trkpt><trkpt lat="50.61070440527505" lon="3.162492368716986"><ele>35.0</ele><time>2026-04-19T10:21:00.999Z</time></trkpt><trkpt lat="50.6107624312432" lon="3.162415113115289"><ele>35.0</ele><time>2026-04-19T10:21:04.999Z</time></trkpt><trkpt lat="50.61080321168507" lon="3.1623221663560557"><ele>35.0</ele><time>2026-04-19T10:21:07.999Z</time></trkpt><trkpt lat="50.61085379566525" lon="3.162230214553162"><ele>35.0</ele><time>2026-04-19T10:21:10.999Z</time></trkpt><trkpt lat="50.61090792715634" lon="3.1621267479242947"><ele>35.0</ele><time>2026-04-19T10:21:13.999Z</time></trkpt><trkpt lat="50.610968484350884" lon="3.162052401402012"><ele>35.0</ele><time>2026-04-19T10:21:16.999Z</time></trkpt><trkpt lat="50.61101473367088" lon="3.161972146165344"><ele>35.0</ele><time>2026-04-19T10:21:19.999Z</time></trkpt><trkpt lat="50.611060001886166" lon="3.1618784531653388"><ele>35.0</ele><time>2026-04-19T10:21:23.999Z</time></trkpt><trkpt lat="50.61111483800233" lon="3.16179529146737"><ele>35.0</ele><time>2026-04-19T10:21:28.999Z</time></trkpt><trkpt lat="50.611156699503184" lon="3.161719044888478"><ele>35.0</ele><time>2026-04-19T10:21:31.999Z</time></trkpt><trkpt lat="50.611192432855006" lon="3.1616299262615297"><ele>35.0</ele><time>2026-04-19T10:21:33.999Z</time></trkpt><trkpt lat="50.61123893801793" lon="3.161547248331046"><ele>35.0</ele><time>2026-04-19T10:21:35.999Z</time></trkpt><trkpt lat="50.611300917857534" lon="3.1614728654407713"><ele>35.0</ele><time>2026-04-19T10:21:38.999Z</time></trkpt><trkpt lat="50.6113493508737" lon="3.1613935145982333"><ele>35.0</ele><time>2026-04-19T10:21:41.999Z</time></trkpt><trkpt lat="50.61139172093608" lon="3.161304016719293"><ele>35.33333333333333</ele><time>2026-04-19T10:21:44.999Z</time></trkpt><trkpt lat="50.61143462856724" lon="3.161218585073143"><ele>35.666666666666664</ele><time>2026-04-19T10:21:47.999Z</time></trkpt><trkpt lat="50.61148819808657" lon="3.161157275489177"><ele>36.0</ele><time>2026-04-19T10:21:51Z</time></trkpt><trkpt lat="50.61154764279592" lon="3.161074521646925"><ele>36.333333333333336</ele><time>2026-04-19T10:21:54Z</time></trkpt><trkpt lat="50.611604682947444" lon="3.1609744469065757"><ele>36.66666666666667</ele><time>2026-04-19T10:21:57Z</time></trkpt><trkpt lat="50.611654877439655" lon="3.160870385202339"><ele>37.0</ele><time>2026-04-19T10:22:00Z</time></trkpt><trkpt lat="50.611708022463475" lon="3.160769906494197"><ele>37.0</ele><time>2026-04-19T10:22:03Z</time></trkpt><trkpt lat="50.61175923946226" lon="3.1606866080616633"><ele>37.0</ele><time>2026-04-19T10:22:06Z</time></trkpt><trkpt lat="50.61182912986542" lon="3.1605823632735714"><ele>37.0</ele><time>2026-04-19T10:22:09Z</time></trkpt><trkpt lat="50.61187882200456" lon="3.160517248920971"><ele>37.0</ele><time>2026-04-19T10:22:11Z</time></trkpt><trkpt lat="50.61195812863267" lon="3.160427630845544"><ele>37.0</ele><time>2026-04-19T10:22:14Z</time></trkpt><trkpt lat="50.61200357347398" lon="3.1603349284005127"><ele>37.0</ele><time>2026-04-19T10:22:16Z</time></trkpt><trkpt lat="50.612081987003165" lon="3.1602245599882655"><ele>37.0</ele><time>2026-04-19T10:22:19Z</time></trkpt><trkpt lat="50.61213455823654" lon="3.160152542458068"><ele>37.0</ele><time>2026-04-19T10:22:21Z</time></trkpt><trkpt lat="50.61219261438317" lon="3.1600780633647587"><ele>37.0</ele><time>2026-04-19T10:22:23Z</time></trkpt><trkpt lat="50.612251826709596" lon="3.159999130137209"><ele>37.0</ele><time>2026-04-19T10:22:25Z</time></trkpt><trkpt lat="50.61229136126681" lon="3.159919318075195"><ele>37.0</ele><time>2026-04-19T10:22:27Z</time></trkpt><trkpt lat="50.612360920062066" lon="3.159847396904693"><ele>37.0</ele><time>2026-04-19T10:22:29Z</time></trkpt><trkpt lat="50.612402280732496" lon="3.159759552682321"><ele>37.0</ele><time>2026-04-19T10:22:31Z</time></trkpt><trkpt lat="50.61245769398482" lon="3.1596768611983994"><ele>37.0</ele><time>2026-04-19T10:22:33Z</time></trkpt><trkpt lat="50.612512703200885" lon="3.1596077123977415"><ele>37.0</ele><time>2026-04-19T10:22:35Z</time></trkpt><trkpt lat="50.61257315706457" lon="3.1595366910918603"><ele>37.0</ele><time>2026-04-19T10:22:37Z</time></trkpt><trkpt lat="50.61263146616736" lon="3.159473331746534"><ele>37.0</ele><time>2026-04-19T10:22:39Z</time></trkpt><trkpt lat="50.612676064477526" lon="3.159382193041639"><ele>37.0</ele><time>2026-04-19T10:22:41Z</time></trkpt><trkpt lat="50.61272334524342" lon="3.1593130774186293"><ele>37.0</ele><time>2026-04-19T10:22:43Z</time></trkpt><trkpt lat="50.61278348251223" lon="3.159209251426454"><ele>37.0</ele><time>2026-04-19T10:22:46Z</time></trkpt><trkpt lat="50.612842520215686" lon="3.159110534580894"><ele>37.0</ele><time>2026-04-19T10:22:49Z</time></trkpt><trkpt lat="50.612907457437" lon="3.1590125094178005"><ele>37.0</ele><time>2026-04-19T10:22:52Z</time></trkpt><trkpt lat="50.61294477332504" lon="3.158924160633124"><ele>37.0</ele><time>2026-04-19T10:22:54Z</time></trkpt><trkpt lat="50.61299584033878" lon="3.158857512796868"><ele>37.0</ele><time>2026-04-19T10:22:56Z</time></trkpt><trkpt lat="50.613041276363866" lon="3.158784532175691"><ele>37.0</ele><time>2026-04-19T10:22:58Z</time></trkpt><trkpt lat="50.61308764032843" lon="3.158707394419456"><ele>37.0</ele><time>2026-04-19T10:23:00Z</time></trkpt><trkpt lat="50.61314924541145" lon="3.1585982870299643"><ele>37.0</ele><time>2026-04-19T10:23:03Z</time></trkpt><trkpt lat="50.613195849522455" lon="3.158527036678408"><ele>37.0</ele><time>2026-04-19T10:23:05Z</time></trkpt><trkpt lat="50.613235275017175" lon="3.1584476984728718"><ele>37.0</ele><time>2026-04-19T10:23:07Z</time></trkpt><trkpt lat="50.61329000444095" lon="3.1583358384444655"><ele>37.0</ele><time>2026-04-19T10:23:10Z</time></trkpt><trkpt lat="50.61334641623549" lon="3.1582424412446595"><ele>37.0</ele><time>2026-04-19T10:23:13Z</time></trkpt><trkpt lat="50.6133823089275" lon="3.1581482928967803"><ele>37.0</ele><time>2026-04-19T10:23:16Z</time></trkpt><trkpt lat="50.6134440139174" lon="3.15805486405099"><ele>37.0</ele><time>2026-04-19T10:23:20Z</time></trkpt><trkpt lat="50.61349311341505" lon="3.1579607360480986"><ele>37.0</ele><time>2026-04-19T10:23:23Z</time></trkpt><trkpt lat="50.61354552746281" lon="3.1578767456286916"><ele>37.0</ele><time>2026-04-19T10:23:26Z</time></trkpt><trkpt lat="50.61358652559208" lon="3.1577808077879825"><ele>37.0</ele><time>2026-04-19T10:23:29Z</time></trkpt><trkpt lat="50.61363996500643" lon="3.1576881312127267"><ele>37.0</ele><time>2026-04-19T10:23:32Z</time></trkpt><trkpt lat="50.6136919411631" lon="3.157585063162934"><ele>37.0</ele><time>2026-04-19T10:23:35Z</time></trkpt><trkpt lat="50.61373748950811" lon="3.1574742895824746"><ele>37.0</ele><time>2026-04-19T10:23:38Z</time></trkpt><trkpt lat="50.61380216439874" lon="3.157371824403333"><ele>37.16666666666667</ele><time>2026-04-19T10:23:41Z</time></trkpt><trkpt lat="50.61385865822878" lon="3.157274871174884"><ele>37.333333333333336</ele><time>2026-04-19T10:23:44Z</time></trkpt><trkpt lat="50.61393112092759" lon="3.157154687185071"><ele>37.5</ele><time>2026-04-19T10:23:48Z</time></trkpt><trkpt lat="50.61397039182246" lon="3.1570590671694845"><ele>37.666666666666664</ele><time>2026-04-19T10:23:51Z</time></trkpt><trkpt lat="50.614031754046344" lon="3.1569702616533113"><ele>37.83333333333333</ele><time>2026-04-19T10:23:54Z</time></trkpt><trkpt lat="50.61409533694917" lon="3.1568586307070823"><ele>38.0</ele><time>2026-04-19T10:23:57Z</time></trkpt><trkpt lat="50.614146944461794" lon="3.1567792112113926"><ele>38.0</ele><time>2026-04-19T10:23:59Z</time></trkpt><trkpt lat="50.61419132856114" lon="3.156685502633791"><ele>38.0</ele><time>2026-04-19T10:24:01Z</time></trkpt><trkpt lat="50.61424391788909" lon="3.1565949234799984"><ele>38.0</ele><time>2026-04-19T10:24:03Z</time></trkpt><trkpt lat="50.61428796470599" lon="3.1564936764108884"><ele>38.0</ele><time>2026-04-19T10:24:05Z</time></trkpt><trkpt lat="50.61436121514872" lon="3.1563959613584105"><ele>38.0</ele><time>2026-04-19T10:24:07Z</time></trkpt><trkpt lat="50.61441095720117" lon="3.156281040608023"><ele>38.0</ele><time>2026-04-19T10:24:09Z</time></trkpt><trkpt lat="50.614458047053525" lon="3.1561828094356232"><ele>38.0</ele><time>2026-04-19T10:24:11Z</time></trkpt><trkpt lat="50.6144943578497" lon="3.1560891551076358"><ele>38.0</ele><time>2026-04-19T10:24:13Z</time></trkpt><trkpt lat="50.61453622605292" lon="3.155996038230931"><ele>38.0</ele><time>2026-04-19T10:24:15Z</time></trkpt><trkpt lat="50.61457810528616" lon="3.1558859154444168"><ele>38.0</ele><time>2026-04-19T10:24:17Z</time></trkpt><trkpt lat="50.61462300232252" lon="3.155772530810439"><ele>38.0</ele><time>2026-04-19T10:24:19Z</time></trkpt><trkpt lat="50.61466380766056" lon="3.155657463552177"><ele>38.0</ele><time>2026-04-19T10:24:21Z</time></trkpt><trkpt lat="50.61471777666518" lon="3.1555452269793203"><ele>38.0</ele><time>2026-04-19T10:24:23Z</time></trkpt><trkpt lat="50.61477351343422" lon="3.1554300068491528"><ele>38.0</ele><time>2026-04-19T10:24:25Z</time></trkpt><trkpt lat="50.61483977576931" lon="3.155327918784701"><ele>38.0</ele><time>2026-04-19T10:24:27Z</time></trkpt><trkpt lat="50.614898227061836" lon="3.15521402843166"><ele>38.0</ele><time>2026-04-19T10:24:29Z</time></trkpt><trkpt lat="50.614948466746846" lon="3.155078452196225"><ele>38.0</ele><time>2026-04-19T10:24:31Z</time></trkpt><trkpt lat="50.614988582606706" lon="3.154936083459301"><ele>37.8</ele><time>2026-04-19T10:24:33Z</time></trkpt><trkpt lat="50.6150330356184" lon="3.154799352233433"><ele>37.599999999999994</ele><time>2026-04-19T10:24:35Z</time></trkpt><trkpt lat="50.61508489172789" lon="3.1547008057463426"><ele>37.400000000000006</ele><time>2026-04-19T10:24:37Z</time></trkpt><trkpt lat="50.61512192599945" lon="3.154424872894322"><ele>37.2</ele><time>2026-04-19T10:25:44Z</time></trkpt><trkpt lat="50.61515591142295" lon="3.154327118792469"><ele>37.0</ele><time>2026-04-19T10:25:47Z</time></trkpt><trkpt lat="50.61492779354528" lon="3.1541393940055094"><ele>37.0</ele><time>2026-04-19T10:25:49Z</time></trkpt><trkpt lat="50.61487780329655" lon="3.1540642969698145"><ele>37.0</ele><time>2026-04-19T10:25:51Z</time></trkpt><trkpt lat="50.61482915916152" lon="3.1539645084176144"><ele>37.0</ele><time>2026-04-19T10:25:53Z</time></trkpt><trkpt lat="50.61477095814877" lon="3.1538789254341326"><ele>37.0</ele><time>2026-04-19T10:25:55Z</time></trkpt><trkpt lat="50.61470362017645" lon="3.153791891786128"><ele>37.0</ele><time>2026-04-19T10:25:57Z</time></trkpt><trkpt lat="50.614637263956894" lon="3.1536974513188927"><ele>37.0</ele><time>2026-04-19T10:25:59Z</time></trkpt><trkpt lat="50.6145730072835" lon="3.15359673468706"><ele>37.0</ele><time>2026-04-19T10:26:01Z</time></trkpt><trkpt lat="50.614502380607156" lon="3.1534910552856914"><ele>37.0</ele><time>2026-04-19T10:26:03Z</time></trkpt><trkpt lat="50.61443100044914" lon="3.15338530960559"><ele>37.0</ele><time>2026-04-19T10:26:05Z</time></trkpt><trkpt lat="50.61435976205995" lon="3.1532808438839193"><ele>37.0</ele><time>2026-04-19T10:26:07Z</time></trkpt><trkpt lat="50.614284742226644" lon="3.1531744855576083"><ele>37.0</ele><time>2026-04-19T10:26:09Z</time></trkpt><trkpt lat="50.614215463189055" lon="3.153061839275837"><ele>36.800000000000004</ele><time>2026-04-19T10:26:11Z</time></trkpt><trkpt lat="50.61414593501026" lon="3.15294591974046"><ele>36.6</ele><time>2026-04-19T10:26:13Z</time></trkpt><trkpt lat="50.614083323474404" lon="3.152840141699986"><ele>36.400000000000006</ele><time>2026-04-19T10:26:15Z</time></trkpt><trkpt lat="50.61401704475256" lon="3.1527258760840833"><ele>36.2</ele><time>2026-04-19T10:26:17Z</time></trkpt><trkpt lat="50.61397333239694" lon="3.152594231936469"><ele>36.0</ele><time>2026-04-19T10:26:19Z</time></trkpt><trkpt lat="50.61393957812231" lon="3.1524787996163806"><ele>36.166666666666664</ele><time>2026-04-19T10:26:21Z</time></trkpt><trkpt lat="50.61392131182322" lon="3.1523493423720343"><ele>36.333333333333336</ele><time>2026-04-19T10:26:23Z</time></trkpt><trkpt lat="50.61390821305739" lon="3.1522057855106453"><ele>36.5</ele><time>2026-04-19T10:26:25Z</time></trkpt><trkpt lat="50.613893459628834" lon="3.1520694627885124"><ele>36.66666666666667</ele><time>2026-04-19T10:26:27Z</time></trkpt><trkpt lat="50.613877731804045" lon="3.1519429903632634"><ele>36.833333333333336</ele><time>2026-04-19T10:26:29Z</time></trkpt><trkpt lat="50.61386590019875" lon="3.151808937448368"><ele>37.0</ele><time>2026-04-19T10:26:31Z</time></trkpt><trkpt lat="50.613835308508776" lon="3.1516854571492083"><ele>37.0</ele><time>2026-04-19T10:26:33Z</time></trkpt><trkpt lat="50.61382087621844" lon="3.151566705167383"><ele>37.0</ele><time>2026-04-19T10:26:35Z</time></trkpt><trkpt lat="50.61380505417772" lon="3.15143651860247"><ele>37.0</ele><time>2026-04-19T10:26:37Z</time></trkpt><trkpt lat="50.613803586068414" lon="3.1513025743041863"><ele>37.0</ele><time>2026-04-19T10:26:39Z</time></trkpt><trkpt lat="50.613772926200014" lon="3.151179563851497"><ele>37.0</ele><time>2026-04-19T10:26:41Z</time></trkpt><trkpt lat="50.61376834945125" lon="3.151038707274873"><ele>37.0</ele><time>2026-04-19T10:26:43Z</time></trkpt><trkpt lat="50.613755145526646" lon="3.150906041843578"><ele>37.0</ele><time>2026-04-19T10:26:45Z</time></trkpt><trkpt lat="50.613723512676295" lon="3.150780008471154"><ele>37.0</ele><time>2026-04-19T10:26:47Z</time></trkpt><trkpt lat="50.61370701157101" lon="3.150647163293779"><ele>37.0</ele><time>2026-04-19T10:26:49Z</time></trkpt><trkpt lat="50.61369005168674" lon="3.1505104058495412"><ele>37.0</ele><time>2026-04-19T10:26:51Z</time></trkpt><trkpt lat="50.61368661726967" lon="3.1503703907085727"><ele>37.0</ele><time>2026-04-19T10:26:53Z</time></trkpt><trkpt lat="50.613661929944875" lon="3.1502437174230744"><ele>37.0</ele><time>2026-04-19T10:26:55Z</time></trkpt><trkpt lat="50.61365289084698" lon="3.150106651064014"><ele>37.16666666666667</ele><time>2026-04-19T10:26:57Z</time></trkpt><trkpt lat="50.613651960964006" lon="3.149968503083324"><ele>37.333333333333336</ele><time>2026-04-19T10:26:59Z</time></trkpt><trkpt lat="50.61366740641043" lon="3.1498314724386023"><ele>37.5</ele><time>2026-04-19T10:27:01Z</time></trkpt><trkpt lat="50.61366221522523" lon="3.1496856177456487"><ele>37.666666666666664</ele><time>2026-04-19T10:27:03Z</time></trkpt><trkpt lat="50.61367325874441" lon="3.1495530191657184"><ele>37.83333333333333</ele><time>2026-04-19T10:27:05Z</time></trkpt><trkpt lat="50.61366239253922" lon="3.149414521150516"><ele>38.0</ele><time>2026-04-19T10:27:07Z</time></trkpt><trkpt lat="50.613680244823456" lon="3.14927880010977"><ele>38.166666666666664</ele><time>2026-04-19T10:27:09Z</time></trkpt><trkpt lat="50.613677504752786" lon="3.149126529720111"><ele>38.33333333333333</ele><time>2026-04-19T10:27:11Z</time></trkpt><trkpt lat="50.613683801154025" lon="3.148990279473596"><ele>38.5</ele><time>2026-04-19T10:27:13Z</time></trkpt><trkpt lat="50.61367783705577" lon="3.148859392420589"><ele>38.666666666666664</ele><time>2026-04-19T10:27:15Z</time></trkpt><trkpt lat="50.6136810330364" lon="3.1487272643952444"><ele>38.833333333333336</ele><time>2026-04-19T10:27:17Z</time></trkpt><trkpt lat="50.613688899128086" lon="3.148593507496548"><ele>39.0</ele><time>2026-04-19T10:27:19Z</time></trkpt><trkpt lat="50.61368558437487" lon="3.148453580174088"><ele>39.0</ele><time>2026-04-19T10:27:21Z</time></trkpt><trkpt lat="50.61364820372783" lon="3.1483314905794058"><ele>39.0</ele><time>2026-04-19T10:27:23Z</time></trkpt><trkpt lat="50.613641383207025" lon="3.1481782440833816"><ele>39.0</ele><time>2026-04-19T10:27:25Z</time></trkpt><trkpt lat="50.61359209621979" lon="3.148072145421654"><ele>39.0</ele><time>2026-04-19T10:27:27Z</time></trkpt><trkpt lat="50.613547385327294" lon="3.147982161844106"><ele>39.0</ele><time>2026-04-19T10:27:29Z</time></trkpt><trkpt lat="50.61348737803233" lon="3.147881327769074"><ele>39.0</ele><time>2026-04-19T10:27:31Z</time></trkpt><trkpt lat="50.61343229754466" lon="3.147800549150309"><ele>39.2</ele><time>2026-04-19T10:27:33Z</time></trkpt><trkpt lat="50.613393543957976" lon="3.147716048813406"><ele>39.4</ele><time>2026-04-19T10:27:34Z</time></trkpt><trkpt lat="50.6133560848207" lon="3.1475536609640264"><ele>39.6</ele><time>2026-04-19T10:27:36Z</time></trkpt><trkpt lat="50.61333551756936" lon="3.147401487528725"><ele>39.8</ele><time>2026-04-19T10:27:38Z</time></trkpt><trkpt lat="50.61335288303724" lon="3.1472394566100292"><ele>40.0</ele><time>2026-04-19T10:27:40Z</time></trkpt><trkpt lat="50.613355011868315" lon="3.147076519450662"><ele>40.2</ele><time>2026-04-19T10:27:42Z</time></trkpt><trkpt lat="50.61336271659324" lon="3.1469196036889606"><ele>40.4</ele><time>2026-04-19T10:27:44Z</time></trkpt><trkpt lat="50.61336942332641" lon="3.146766705435796"><ele>40.599999999999994</ele><time>2026-04-19T10:27:46Z</time></trkpt><trkpt lat="50.613372764765316" lon="3.1465996577163833"><ele>40.8</ele><time>2026-04-19T10:27:48Z</time></trkpt><trkpt lat="50.61338227279496" lon="3.146447674191766"><ele>41.0</ele><time>2026-04-19T10:27:50Z</time></trkpt><trkpt lat="50.61338900883648" lon="3.146294450462158"><ele>40.599999999999994</ele><time>2026-04-19T10:27:52Z</time></trkpt><trkpt lat="50.6134227635614" lon="3.1461392324559836"><ele>40.199999999999996</ele><time>2026-04-19T10:27:53.999Z</time></trkpt><trkpt lat="50.61346089428591" lon="3.1459948592906204"><ele>39.8</ele><time>2026-04-19T10:27:55.999Z</time></trkpt><trkpt lat="50.613534060447236" lon="3.145875998729959"><ele>39.4</ele><time>2026-04-19T10:27:57.999Z</time></trkpt><trkpt lat="50.613612214848196" lon="3.1457744694575496"><ele>39.0</ele><time>2026-04-19T10:27:59.999Z</time></trkpt><trkpt lat="50.613700409663096" lon="3.145667624799283"><ele>38.6</ele><time>2026-04-19T10:28:02Z</time></trkpt><trkpt lat="50.61378507577892" lon="3.145569025738444"><ele>38.2</ele><time>2026-04-19T10:28:04Z</time></trkpt><trkpt lat="50.613881470917214" lon="3.1454327710535646"><ele>37.800000000000004</ele><time>2026-04-19T10:28:06Z</time></trkpt><trkpt lat="50.61397064680013" lon="3.1453569303221744"><ele>37.4</ele><time>2026-04-19T10:28:08Z</time></trkpt><trkpt lat="50.614050762910466" lon="3.145261943420022"><ele>37.0</ele><time>2026-04-19T10:28:10Z</time></trkpt><trkpt lat="50.61413178276266" lon="3.145155015304865"><ele>37.0</ele><time>2026-04-19T10:28:12Z</time></trkpt><trkpt lat="50.6142193712592" lon="3.1450577226820897"><ele>37.0</ele><time>2026-04-19T10:28:14Z</time></trkpt><trkpt lat="50.61429800543475" lon="3.1449595360213767"><ele>37.0</ele><time>2026-04-19T10:28:16Z</time></trkpt><trkpt lat="50.61438157016145" lon="3.144867641696881"><ele>37.0</ele><time>2026-04-19T10:28:18Z</time></trkpt><trkpt lat="50.61445986501781" lon="3.1447743823534258"><ele>37.0</ele><time>2026-04-19T10:28:20Z</time></trkpt><trkpt lat="50.61454440438999" lon="3.144680930803168"><ele>37.2</ele><time>2026-04-19T10:28:22Z</time></trkpt><trkpt lat="50.614609402737784" lon="3.1445685454520995"><ele>37.400000000000006</ele><time>2026-04-19T10:28:24Z</time></trkpt><trkpt lat="50.61467020327948" lon="3.144454735317073"><ele>37.599999999999994</ele><time>2026-04-19T10:28:26Z</time></trkpt><trkpt lat="50.61471579757404" lon="3.1443284544748273"><ele>37.8</ele><time>2026-04-19T10:28:28Z</time></trkpt><trkpt lat="50.6147420471549" lon="3.144187103374101"><ele>38.0</ele><time>2026-04-19T10:28:30Z</time></trkpt><trkpt lat="50.61476451993081" lon="3.144054979138727"><ele>38.0</ele><time>2026-04-19T10:28:32Z</time></trkpt><trkpt lat="50.61477326082269" lon="3.14391161276805"><ele>38.0</ele><time>2026-04-19T10:28:34Z</time></trkpt><trkpt lat="50.61476701975217" lon="3.1437768344715504"><ele>38.0</ele><time>2026-04-19T10:28:36Z</time></trkpt><trkpt lat="50.61476376663243" lon="3.1436480280067176"><ele>38.0</ele><time>2026-04-19T10:28:38Z</time></trkpt><trkpt lat="50.61475387595068" lon="3.143518873576974"><ele>38.0</ele><time>2026-04-19T10:28:40Z</time></trkpt><trkpt lat="50.614755795358874" lon="3.1433932085329843"><ele>38.0</ele><time>2026-04-19T10:28:42Z</time></trkpt><trkpt lat="50.61475718825266" lon="3.143274206932497"><ele>37.666666666666664</ele><time>2026-04-19T10:28:44Z</time></trkpt><trkpt lat="50.61475126497209" lon="3.1431566403035687"><ele>37.33333333333333</ele><time>2026-04-19T10:28:46Z</time></trkpt><trkpt lat="50.61475139223887" lon="3.143035893607934"><ele>37.0</ele><time>2026-04-19T10:28:48Z</time></trkpt><trkpt lat="50.614747195736236" lon="3.1429164287044133"><ele>36.666666666666664</ele><time>2026-04-19T10:28:50Z</time></trkpt><trkpt lat="50.61474507724861" lon="3.1427911824079833"><ele>36.333333333333336</ele><time>2026-04-19T10:28:52Z</time></trkpt><trkpt lat="50.61474422815872" lon="3.142670250344942"><ele>36.0</ele><time>2026-04-19T10:28:54Z</time></trkpt><trkpt lat="50.61474243207338" lon="3.1425420741643624"><ele>36.0</ele><time>2026-04-19T10:28:56Z</time></trkpt><trkpt lat="50.61473708729274" lon="3.142416121224023"><ele>36.0</ele><time>2026-04-19T10:28:58Z</time></trkpt><trkpt lat="50.61473661674252" lon="3.1422912992933365"><ele>36.0</ele><time>2026-04-19T10:29:00Z</time></trkpt><trkpt lat="50.61472986134072" lon="3.142182500905841"><ele>36.0</ele><time>2026-04-19T10:29:02Z</time></trkpt><trkpt lat="50.61480873427481" lon="3.1421817652713644"><ele>36.0</ele><time>2026-04-19T10:29:03Z</time></trkpt><trkpt lat="50.61489344926597" lon="3.142172490631102"><ele>36.0</ele><time>2026-04-19T10:29:05Z</time></trkpt><trkpt lat="50.61499018049815" lon="3.1421513860591848"><ele>37.0</ele><time>2026-04-19T10:29:07Z</time></trkpt><trkpt lat="50.61548651727598" lon="3.1419380804897092"><ele>37.0</ele><time>2026-04-19T10:29:46Z</time></trkpt><trkpt lat="50.61539916512612" lon="3.1418872804588887"><ele>37.0</ele><time>2026-04-19T10:29:49Z</time></trkpt><trkpt lat="50.615362405332256" lon="3.141752162288416"><ele>37.0</ele><time>2026-04-19T10:29:51Z</time></trkpt><trkpt lat="50.61534432714333" lon="3.141632132802826"><ele>37.0</ele><time>2026-04-19T10:29:53Z</time></trkpt><trkpt lat="50.61536449084814" lon="3.1414974471289434"><ele>37.0</ele><time>2026-04-19T10:29:55Z</time></trkpt><trkpt lat="50.61534308105194" lon="3.141348918403174"><ele>37.0</ele><time>2026-04-19T10:29:58Z</time></trkpt><trkpt lat="50.61532902010627" lon="3.1412443164231245"><ele>37.5</ele><time>2026-04-19T10:30:00Z</time></trkpt><trkpt lat="50.61530815166335" lon="3.1411451326660274"><ele>38.0</ele><time>2026-04-19T10:30:02Z</time></trkpt><trkpt lat="50.61528253454384" lon="3.1410229014453113"><ele>38.5</ele><time>2026-04-19T10:30:04Z</time></trkpt><trkpt lat="50.61525499112605" lon="3.140895952907359"><ele>39.0</ele><time>2026-04-19T10:30:06Z</time></trkpt><trkpt lat="50.61524171242789" lon="3.1407783531236286"><ele>39.5</ele><time>2026-04-19T10:30:08Z</time></trkpt><trkpt lat="50.61521115280736" lon="3.140657700576181"><ele>40.0</ele><time>2026-04-19T10:30:10Z</time></trkpt><trkpt lat="50.61519865490639" lon="3.140542861830659"><ele>40.0</ele><time>2026-04-19T10:30:12Z</time></trkpt><trkpt lat="50.615132440914515" lon="3.1404585262957254"><ele>40.0</ele><time>2026-04-19T10:30:14Z</time></trkpt><trkpt lat="50.615111220827686" lon="3.140336078387542"><ele>40.0</ele><time>2026-04-19T10:30:16Z</time></trkpt><trkpt lat="50.61508853268331" lon="3.14020515928391"><ele>40.0</ele><time>2026-04-19T10:30:18Z</time></trkpt><trkpt lat="50.61506663326671" lon="3.1400787914022534"><ele>40.0</ele><time>2026-04-19T10:30:20Z</time></trkpt><trkpt lat="50.615044023930075" lon="3.139948327053793"><ele>40.0</ele><time>2026-04-19T10:30:22Z</time></trkpt><trkpt lat="50.61502338198756" lon="3.139827902801494"><ele>40.0</ele><time>2026-04-19T10:30:24Z</time></trkpt><trkpt lat="50.61500328936317" lon="3.1397106911666377"><ele>40.0</ele><time>2026-04-19T10:30:26Z</time></trkpt><trkpt lat="50.61498092528776" lon="3.1395802288012535"><ele>40.0</ele><time>2026-04-19T10:30:28Z</time></trkpt><trkpt lat="50.61495703792848" lon="3.1394400060943193"><ele>40.0</ele><time>2026-04-19T10:30:30Z</time></trkpt><trkpt lat="50.61493426327441" lon="3.1393058742946707"><ele>40.0</ele><time>2026-04-19T10:30:32Z</time></trkpt><trkpt lat="50.61491303284311" lon="3.139180837305062"><ele>40.0</ele><time>2026-04-19T10:30:34Z</time></trkpt><trkpt lat="50.614891149339506" lon="3.1390501324572417"><ele>39.833333333333336</ele><time>2026-04-19T10:30:36Z</time></trkpt><trkpt lat="50.614870901613614" lon="3.1389275097228717"><ele>39.66666666666667</ele><time>2026-04-19T10:30:38Z</time></trkpt><trkpt lat="50.61484862006029" lon="3.1387913162587786"><ele>39.5</ele><time>2026-04-19T10:30:40Z</time></trkpt><trkpt lat="50.614827754676085" lon="3.138663121765046"><ele>39.333333333333336</ele><time>2026-04-19T10:30:42Z</time></trkpt><trkpt lat="50.61480761196427" lon="3.1385403974583714"><ele>39.166666666666664</ele><time>2026-04-19T10:30:44Z</time></trkpt><trkpt lat="50.61478692062542" lon="3.1384148404394696"><ele>39.0</ele><time>2026-04-19T10:30:46Z</time></trkpt><trkpt lat="50.614766855723914" lon="3.138293084696198"><ele>39.0</ele><time>2026-04-19T10:30:48Z</time></trkpt><trkpt lat="50.61474623933207" lon="3.1381679824097"><ele>39.0</ele><time>2026-04-19T10:30:50Z</time></trkpt><trkpt lat="50.614736136706256" lon="3.1380287287938535"><ele>39.0</ele><time>2026-04-19T10:30:52Z</time></trkpt><trkpt lat="50.614712200793754" lon="3.1379113526902556"><ele>39.0</ele><time>2026-04-19T10:30:54Z</time></trkpt><trkpt lat="50.614696067925394" lon="3.1377870458906973"><ele>39.0</ele><time>2026-04-19T10:30:56Z</time></trkpt><trkpt lat="50.61466803439948" lon="3.137641390564392"><ele>39.0</ele><time>2026-04-19T10:30:58Z</time></trkpt><trkpt lat="50.61464906041294" lon="3.137531183288371"><ele>39.0</ele><time>2026-04-19T10:31:00Z</time></trkpt><trkpt lat="50.61462904118643" lon="3.1374047639515013"><ele>39.0</ele><time>2026-04-19T10:31:02Z</time></trkpt><trkpt lat="50.61460267377799" lon="3.1372855978069554"><ele>39.0</ele><time>2026-04-19T10:31:04Z</time></trkpt><trkpt lat="50.614592850412365" lon="3.1371662860357286"><ele>39.0</ele><time>2026-04-19T10:31:06Z</time></trkpt><trkpt lat="50.61457093041732" lon="3.1370498914110883"><ele>39.0</ele><time>2026-04-19T10:31:08Z</time></trkpt><trkpt lat="50.61455413622522" lon="3.1369376541974505"><ele>39.0</ele><time>2026-04-19T10:31:10Z</time></trkpt><trkpt lat="50.61454435928092" lon="3.136829797247226"><ele>39.0</ele><time>2026-04-19T10:31:12Z</time></trkpt><trkpt lat="50.61451848139174" lon="3.136711679801435"><ele>39.0</ele><time>2026-04-19T10:31:14Z</time></trkpt><trkpt lat="50.61449690300219" lon="3.13660522205659"><ele>39.0</ele><time>2026-04-19T10:31:16Z</time></trkpt><trkpt lat="50.61448255601784" lon="3.1365077524671223"><ele>39.0</ele><time>2026-04-19T10:31:18Z</time></trkpt><trkpt lat="50.614459888586275" lon="3.1363636313169327"><ele>39.0</ele><time>2026-04-19T10:31:21Z</time></trkpt><trkpt lat="50.614439811810826" lon="3.136247377223492"><ele>39.0</ele><time>2026-04-19T10:31:23Z</time></trkpt><trkpt lat="50.614421007833414" lon="3.136147890452105"><ele>38.833333333333336</ele><time>2026-04-19T10:31:27Z</time></trkpt><trkpt lat="50.61440081726331" lon="3.1360420830500706"><ele>38.666666666666664</ele><time>2026-04-19T10:31:33Z</time></trkpt><trkpt lat="50.61437694877916" lon="3.1359170017353715"><ele>38.5</ele><time>2026-04-19T10:31:37Z</time></trkpt><trkpt lat="50.61435700069745" lon="3.135812214374482"><ele>38.33333333333333</ele><time>2026-04-19T10:31:40Z</time></trkpt><trkpt lat="50.61435293016834" lon="3.135690649704314"><ele>38.166666666666664</ele><time>2026-04-19T10:31:43Z</time></trkpt><trkpt lat="50.61433798821464" lon="3.135545866826399"><ele>38.0</ele><time>2026-04-19T10:31:46Z</time></trkpt><trkpt lat="50.61432670640467" lon="3.1354426545228193"><ele>38.0</ele><time>2026-04-19T10:31:48Z</time></trkpt><trkpt lat="50.61430053275632" lon="3.1353315797826986"><ele>38.0</ele><time>2026-04-19T10:31:50Z</time></trkpt><trkpt lat="50.614284535103444" lon="3.1352027422648026"><ele>38.0</ele><time>2026-04-19T10:31:52Z</time></trkpt><trkpt lat="50.614252314073156" lon="3.135065728060015"><ele>38.0</ele><time>2026-04-19T10:31:54Z</time></trkpt><trkpt lat="50.61424716767796" lon="3.1349331582045523"><ele>38.0</ele><time>2026-04-19T10:31:56Z</time></trkpt><trkpt lat="50.6142201487722" lon="3.134799846743096"><ele>38.0</ele><time>2026-04-19T10:31:58Z</time></trkpt><trkpt lat="50.61421254680897" lon="3.134668915371359"><ele>38.599999999999994</ele><time>2026-04-19T10:32:00Z</time></trkpt><trkpt lat="50.61418901842249" lon="3.1344929328220017"><ele>39.199999999999996</ele><time>2026-04-19T10:32:02Z</time></trkpt><trkpt lat="50.61412039391672" lon="3.1343574182536718"><ele>39.8</ele><time>2026-04-19T10:32:04Z</time></trkpt><trkpt lat="50.61409838949186" lon="3.134210316248739"><ele>40.4</ele><time>2026-04-19T10:32:06Z</time></trkpt><trkpt lat="50.61407394169167" lon="3.134054211719969"><ele>41.0</ele><time>2026-04-19T10:32:08Z</time></trkpt><trkpt lat="50.61405156012115" lon="3.1339182575748805"><ele>41.0</ele><time>2026-04-19T10:32:10Z</time></trkpt><trkpt lat="50.6140322706795" lon="3.1338010861749974"><ele>41.0</ele><time>2026-04-19T10:32:12Z</time></trkpt><trkpt lat="50.614013882760354" lon="3.133692549913202"><ele>41.0</ele><time>2026-04-19T10:32:14Z</time></trkpt><trkpt lat="50.613991476644856" lon="3.1335626047244363"><ele>41.0</ele><time>2026-04-19T10:32:16Z</time></trkpt><trkpt lat="50.61396744249661" lon="3.133423217798192"><ele>41.0</ele><time>2026-04-19T10:32:18Z</time></trkpt><trkpt lat="50.61394571408633" lon="3.1332972029855335"><ele>41.0</ele><time>2026-04-19T10:32:20Z</time></trkpt><trkpt lat="50.61392905775282" lon="3.1332006039381843"><ele>41.0</ele><time>2026-04-19T10:32:22Z</time></trkpt><trkpt lat="50.613902960365266" lon="3.133049251060737"><ele>41.0</ele><time>2026-04-19T10:32:24Z</time></trkpt><trkpt lat="50.613882076647776" lon="3.1329244723879985"><ele>41.0</ele><time>2026-04-19T10:32:26Z</time></trkpt><trkpt lat="50.61385923320736" lon="3.1327856039682054"><ele>41.0</ele><time>2026-04-19T10:32:28Z</time></trkpt><trkpt lat="50.61384011937383" lon="3.1326694083910014"><ele>41.0</ele><time>2026-04-19T10:32:30Z</time></trkpt><trkpt lat="50.613842347308626" lon="3.1325502010320925"><ele>41.0</ele><time>2026-04-19T10:32:32Z</time></trkpt><trkpt lat="50.61382045452878" lon="3.1324156441718958"><ele>41.0</ele><time>2026-04-19T10:32:34Z</time></trkpt><trkpt lat="50.61380135318869" lon="3.132278483732302"><ele>41.0</ele><time>2026-04-19T10:32:36Z</time></trkpt><trkpt lat="50.61377806339319" lon="3.132158181244458"><ele>41.0</ele><time>2026-04-19T10:32:38Z</time></trkpt><trkpt lat="50.613747376192684" lon="3.1319775763878894"><ele>41.0</ele><time>2026-04-19T10:32:41Z</time></trkpt><trkpt lat="50.6137389388315" lon="3.1318377905754122"><ele>41.0</ele><time>2026-04-19T10:32:43Z</time></trkpt><trkpt lat="50.61371957595442" lon="3.131715357234621"><ele>41.0</ele><time>2026-04-19T10:32:45Z</time></trkpt><trkpt lat="50.61368403544088" lon="3.13157893535799"><ele>41.0</ele><time>2026-04-19T10:32:47Z</time></trkpt><trkpt lat="50.61366652702714" lon="3.1314513767354093"><ele>41.0</ele><time>2026-04-19T10:32:49Z</time></trkpt><trkpt lat="50.61365187518013" lon="3.1313335506349547"><ele>41.0</ele><time>2026-04-19T10:32:51Z</time></trkpt><trkpt lat="50.613614197364505" lon="3.1311939882445388"><ele>41.0</ele><time>2026-04-19T10:32:53Z</time></trkpt><trkpt lat="50.61360208503479" lon="3.1310419715559057"><ele>41.0</ele><time>2026-04-19T10:32:55Z</time></trkpt><trkpt lat="50.613543208425185" lon="3.1309149692543023"><ele>41.199999999999996</ele><time>2026-04-19T10:32:57Z</time></trkpt><trkpt lat="50.61352753038345" lon="3.130753513769796"><ele>41.4</ele><time>2026-04-19T10:32:59Z</time></trkpt><trkpt lat="50.61350665463638" lon="3.1306150347334754"><ele>41.6</ele><time>2026-04-19T10:33:01Z</time></trkpt><trkpt lat="50.613477582803895" lon="3.130477446430083"><ele>41.8</ele><time>2026-04-19T10:33:03Z</time></trkpt><trkpt lat="50.613450596364615" lon="3.13034122169633"><ele>42.0</ele><time>2026-04-19T10:33:05Z</time></trkpt><trkpt lat="50.6134297448135" lon="3.1301830381246196"><ele>42.2</ele><time>2026-04-19T10:33:07Z</time></trkpt><trkpt lat="50.61337761217472" lon="3.130048841988072"><ele>42.400000000000006</ele><time>2026-04-19T10:33:09Z</time></trkpt><trkpt lat="50.6133797626382" lon="3.129900463103342"><ele>42.599999999999994</ele><time>2026-04-19T10:33:11Z</time></trkpt><trkpt lat="50.61334889977975" lon="3.129742792139121"><ele>42.8</ele><time>2026-04-19T10:33:13Z</time></trkpt><trkpt lat="50.61331900770908" lon="3.1295904204552265"><ele>43.0</ele><time>2026-04-19T10:33:15Z</time></trkpt><trkpt lat="50.6132952506543" lon="3.1294440086489694"><ele>43.0</ele><time>2026-04-19T10:33:17Z</time></trkpt><trkpt lat="50.61326022559742" lon="3.12931290633526"><ele>43.0</ele><time>2026-04-19T10:33:19Z</time></trkpt><trkpt lat="50.6132402533635" lon="3.1291994582752554"><ele>43.0</ele><time>2026-04-19T10:33:21Z</time></trkpt><trkpt lat="50.61329847109388" lon="3.129118024770373"><ele>43.0</ele><time>2026-04-19T10:33:22Z</time></trkpt><trkpt lat="50.613273950660115" lon="3.1289953312023315"><ele>43.0</ele><time>2026-04-19T10:33:25Z</time></trkpt><trkpt lat="50.613228794490084" lon="3.1289025580800525"><ele>43.0</ele><time>2026-04-19T10:33:27Z</time></trkpt><trkpt lat="50.613197725795544" lon="3.128757121779121"><ele>42.66666666666667</ele><time>2026-04-19T10:33:29Z</time></trkpt><trkpt lat="50.61313875087688" lon="3.12865115725836"><ele>42.333333333333336</ele><time>2026-04-19T10:33:31Z</time></trkpt><trkpt lat="50.61311967116252" lon="3.1285475373644758"><ele>42.0</ele><time>2026-04-19T10:33:33Z</time></trkpt><trkpt lat="50.613100723209314" lon="3.128444634897532"><ele>41.666666666666664</ele><time>2026-04-19T10:33:35Z</time></trkpt><trkpt lat="50.6130876902048" lon="3.1283222581684758"><ele>41.33333333333333</ele><time>2026-04-19T10:33:39Z</time></trkpt><trkpt lat="50.61302393505566" lon="3.128310443529171"><ele>41.0</ele><time>2026-04-19T10:33:44Z</time></trkpt><trkpt lat="50.61294479168991" lon="3.1285674043558482"><ele>41.0</ele><time>2026-04-19T10:33:47Z</time></trkpt><trkpt lat="50.61284735179292" lon="3.128527395818054"><ele>41.0</ele><time>2026-04-19T10:33:55Z</time></trkpt><trkpt lat="50.612771163543826" lon="3.128573931700065"><ele>41.0</ele><time>2026-04-19T10:33:59Z</time></trkpt><trkpt lat="50.612680538101436" lon="3.128573390848979"><ele>41.0</ele><time>2026-04-19T10:34:02Z</time></trkpt><trkpt lat="50.612689742651995" lon="3.1280808695388957"><ele>42.0</ele><time>2026-04-19T10:34:07Z</time></trkpt><trkpt lat="50.61265183635685" lon="3.127915671593952"><ele>43.0</ele><time>2026-04-19T10:34:09Z</time></trkpt><trkpt lat="50.61263714558743" lon="3.127755369841815"><ele>44.0</ele><time>2026-04-19T10:34:11Z</time></trkpt><trkpt lat="50.612627083298804" lon="3.1276164356630227"><ele>45.0</ele><time>2026-04-19T10:34:13Z</time></trkpt><trkpt lat="50.61260125825962" lon="3.127485931382961"><ele>46.0</ele><time>2026-04-19T10:34:15Z</time></trkpt><trkpt lat="50.6125868227699" lon="3.1273509064731466"><ele>46.0</ele><time>2026-04-19T10:34:17Z</time></trkpt><trkpt lat="50.61257837970649" lon="3.1272182673150852"><ele>46.0</ele><time>2026-04-19T10:34:19Z</time></trkpt><trkpt lat="50.612578566625906" lon="3.12709111813303"><ele>46.0</ele><time>2026-04-19T10:34:21Z</time></trkpt><trkpt lat="50.61257701297765" lon="3.1269556978345205"><ele>46.0</ele><time>2026-04-19T10:34:23Z</time></trkpt><trkpt lat="50.612580959357956" lon="3.1268222908612917"><ele>46.0</ele><time>2026-04-19T10:34:25Z</time></trkpt><trkpt lat="50.61257532028823" lon="3.126688313090901"><ele>46.0</ele><time>2026-04-19T10:34:27Z</time></trkpt><trkpt lat="50.612578235434725" lon="3.1265396361407602"><ele>45.199999999999996</ele><time>2026-04-19T10:34:29Z</time></trkpt><trkpt lat="50.612582941597346" lon="3.126390327631973"><ele>44.4</ele><time>2026-04-19T10:34:31Z</time></trkpt><trkpt lat="50.612591387469486" lon="3.126236931979963"><ele>43.6</ele><time>2026-04-19T10:34:33Z</time></trkpt><trkpt lat="50.612604896147104" lon="3.1260897122701086"><ele>42.8</ele><time>2026-04-19T10:34:35Z</time></trkpt><trkpt lat="50.612613300411404" lon="3.1259314104143585"><ele>42.0</ele><time>2026-04-19T10:34:37Z</time></trkpt><trkpt lat="50.61263410182504" lon="3.1257734095836236"><ele>41.4</ele><time>2026-04-19T10:34:39Z</time></trkpt><trkpt lat="50.612668540859865" lon="3.1256318539792605"><ele>40.800000000000004</ele><time>2026-04-19T10:34:41Z</time></trkpt><trkpt lat="50.612685166512556" lon="3.1254720400709157"><ele>40.2</ele><time>2026-04-19T10:34:43Z</time></trkpt><trkpt lat="50.612725205962406" lon="3.1253329846802362"><ele>39.6</ele><time>2026-04-19T10:34:45Z</time></trkpt><trkpt lat="50.61275551491272" lon="3.125188777003097"><ele>39.0</ele><time>2026-04-19T10:34:47Z</time></trkpt><trkpt lat="50.612783178556384" lon="3.1250397135686194"><ele>39.0</ele><time>2026-04-19T10:34:49Z</time></trkpt><trkpt lat="50.612821991335146" lon="3.124900345743209"><ele>39.0</ele><time>2026-04-19T10:34:51Z</time></trkpt><trkpt lat="50.612878907907614" lon="3.1247896649165776"><ele>39.0</ele><time>2026-04-19T10:34:53Z</time></trkpt><trkpt lat="50.612918165074426" lon="3.1246610294796073"><ele>39.0</ele><time>2026-04-19T10:34:55Z</time></trkpt><trkpt lat="50.61294500656531" lon="3.124534015953759"><ele>39.0</ele><time>2026-04-19T10:34:57Z</time></trkpt><trkpt lat="50.61300431109463" lon="3.124437792561069"><ele>39.0</ele><time>2026-04-19T10:34:59Z</time></trkpt><trkpt lat="50.61295128602678" lon="3.1243273900454627"><ele>39.166666666666664</ele><time>2026-04-19T10:35:03Z</time></trkpt><trkpt lat="50.61287287323646" lon="3.1242667328219915"><ele>39.333333333333336</ele><time>2026-04-19T10:35:06Z</time></trkpt><trkpt lat="50.61281620727697" lon="3.1242206938217847"><ele>39.5</ele><time>2026-04-19T10:35:08Z</time></trkpt><trkpt lat="50.61273732045437" lon="3.1241451754110905"><ele>39.66666666666667</ele><time>2026-04-19T10:35:10Z</time></trkpt><trkpt lat="50.61265282926971" lon="3.1240651183029375"><ele>39.833333333333336</ele><time>2026-04-19T10:35:12Z</time></trkpt><trkpt lat="50.612571143534474" lon="3.1239675194694017"><ele>40.0</ele><time>2026-04-19T10:35:14Z</time></trkpt><trkpt lat="50.61248987454732" lon="3.123921236786492"><ele>40.66666666666667</ele><time>2026-04-19T10:35:16Z</time></trkpt><trkpt lat="50.61241215552046" lon="3.123845658352672"><ele>41.333333333333336</ele><time>2026-04-19T10:35:18Z</time></trkpt><trkpt lat="50.612329005948155" lon="3.1237914466252414"><ele>42.0</ele><time>2026-04-19T10:35:20Z</time></trkpt><trkpt lat="50.612258873707226" lon="3.123713259292265"><ele>42.666666666666664</ele><time>2026-04-19T10:35:22Z</time></trkpt><trkpt lat="50.612192177180646" lon="3.1236298955890733"><ele>43.33333333333333</ele><time>2026-04-19T10:35:24Z</time></trkpt><trkpt lat="50.61210930956137" lon="3.1235842789865824"><ele>44.0</ele><time>2026-04-19T10:35:26Z</time></trkpt><trkpt lat="50.612012690486836" lon="3.123614825971945"><ele>44.0</ele><time>2026-04-19T10:35:28Z</time></trkpt><trkpt lat="50.61193227423762" lon="3.123620976199316"><ele>44.0</ele><time>2026-04-19T10:35:30Z</time></trkpt><trkpt lat="50.61185167343398" lon="3.1236506232948913"><ele>44.0</ele><time>2026-04-19T10:35:32Z</time></trkpt><trkpt lat="50.6117823373452" lon="3.1236708861040596"><ele>44.0</ele><time>2026-04-19T10:35:34Z</time></trkpt><trkpt lat="50.61174122400998" lon="3.1235938559887186"><ele>44.0</ele><time>2026-04-19T10:35:37Z</time></trkpt><trkpt lat="50.611710466086755" lon="3.1235057342310646"><ele>44.0</ele><time>2026-04-19T10:35:40Z</time></trkpt><trkpt lat="50.6116845219484" lon="3.123409562174502"><ele>44.0</ele><time>2026-04-19T10:35:43Z</time></trkpt><trkpt lat="50.61162523999147" lon="3.123289368876687"><ele>44.0</ele><time>2026-04-19T10:35:46Z</time></trkpt><trkpt lat="50.611591771118924" lon="3.1231977957042485"><ele>44.0</ele><time>2026-04-19T10:35:48Z</time></trkpt><trkpt lat="50.61160120846946" lon="3.1230689906069675"><ele>44.0</ele><time>2026-04-19T10:35:50Z</time></trkpt><trkpt lat="50.61161828116911" lon="3.1229237084235617"><ele>44.0</ele><time>2026-04-19T10:35:52Z</time></trkpt><trkpt lat="50.61159148550807" lon="3.122760063813596"><ele>44.0</ele><time>2026-04-19T10:35:54Z</time></trkpt><trkpt lat="50.61151682847638" lon="3.1226132960529673"><ele>43.25</ele><time>2026-04-19T10:35:56Z</time></trkpt><trkpt lat="50.61161697496404" lon="3.122361580773715"><ele>42.5</ele><time>2026-04-19T10:35:57Z</time></trkpt><trkpt lat="50.61154134360464" lon="3.1222191140916964"><ele>41.75</ele><time>2026-04-19T10:35:59Z</time></trkpt><trkpt lat="50.61146324636119" lon="3.122072002169441"><ele>41.0</ele><time>2026-04-19T10:36:01Z</time></trkpt><trkpt lat="50.611396320943086" lon="3.121945934576453"><ele>41.0</ele><time>2026-04-19T10:36:03Z</time></trkpt><trkpt lat="50.61135115043413" lon="3.1218615503352813"><ele>41.0</ele><time>2026-04-19T10:36:04Z</time></trkpt><trkpt lat="50.61127798406772" lon="3.121716723658631"><ele>41.0</ele><time>2026-04-19T10:36:06Z</time></trkpt><trkpt lat="50.61120053676539" lon="3.121563423095338"><ele>41.0</ele><time>2026-04-19T10:36:08Z</time></trkpt><trkpt lat="50.61113652494284" lon="3.121436876673927"><ele>41.0</ele><time>2026-04-19T10:36:10Z</time></trkpt><trkpt lat="50.611068419189934" lon="3.121301619736656"><ele>40.599999999999994</ele><time>2026-04-19T10:36:12Z</time></trkpt><trkpt lat="50.61102080530821" lon="3.1212062582758935"><ele>40.199999999999996</ele><time>2026-04-19T10:36:13Z</time></trkpt><trkpt lat="50.610962682701654" lon="3.1210898497796675"><ele>39.8</ele><time>2026-04-19T10:36:15Z</time></trkpt><trkpt lat="50.6108950342371" lon="3.1209543628503242"><ele>39.4</ele><time>2026-04-19T10:36:17Z</time></trkpt><trkpt lat="50.61082703743658" lon="3.1208181783255258"><ele>39.0</ele><time>2026-04-19T10:36:19Z</time></trkpt><trkpt lat="50.61075976037201" lon="3.12068343524128"><ele>39.0</ele><time>2026-04-19T10:36:21Z</time></trkpt><trkpt lat="50.610692159818576" lon="3.1205480442264957"><ele>39.0</ele><time>2026-04-19T10:36:23Z</time></trkpt><trkpt lat="50.61061814695971" lon="3.1203998106547357"><ele>39.0</ele><time>2026-04-19T10:36:25Z</time></trkpt><trkpt lat="50.61054051708605" lon="3.1202443328731837"><ele>39.0</ele><time>2026-04-19T10:36:27Z</time></trkpt><trkpt lat="50.610501272990206" lon="3.1201657344647056"><ele>39.0</ele><time>2026-04-19T10:36:28Z</time></trkpt><trkpt lat="50.61045926734189" lon="3.1200812645401235"><ele>39.0</ele><time>2026-04-19T10:36:29Z</time></trkpt><trkpt lat="50.61041340179931" lon="3.1199878036179887"><ele>39.0</ele><time>2026-04-19T10:36:31Z</time></trkpt><trkpt lat="50.61034665318987" lon="3.1198525267730486"><ele>39.0</ele><time>2026-04-19T10:36:33Z</time></trkpt><trkpt lat="50.6102787492312" lon="3.1197158513428116"><ele>39.0</ele><time>2026-04-19T10:36:35Z</time></trkpt><trkpt lat="50.61020784929493" lon="3.119573145511937"><ele>39.0</ele><time>2026-04-19T10:36:37Z</time></trkpt><trkpt lat="50.61013793551009" lon="3.11943242499621"><ele>39.4</ele><time>2026-04-19T10:36:39Z</time></trkpt><trkpt lat="50.61006961236015" lon="3.119294905790512"><ele>39.8</ele><time>2026-04-19T10:36:41Z</time></trkpt><trkpt lat="50.61000426181205" lon="3.1191633698806056"><ele>40.199999999999996</ele><time>2026-04-19T10:36:43Z</time></trkpt><trkpt lat="50.609937739893454" lon="3.1190302676835095"><ele>40.599999999999994</ele><time>2026-04-19T10:36:45Z</time></trkpt><trkpt lat="50.60986960710703" lon="3.1188945060964075"><ele>41.0</ele><time>2026-04-19T10:36:47Z</time></trkpt><trkpt lat="50.6098020698873" lon="3.118759930905601"><ele>41.0</ele><time>2026-04-19T10:36:49Z</time></trkpt><trkpt lat="50.60973104842052" lon="3.1186184136639237"><ele>41.0</ele><time>2026-04-19T10:36:51Z</time></trkpt><trkpt lat="50.60965912183225" lon="3.1184750940265"><ele>41.0</ele><time>2026-04-19T10:36:53Z</time></trkpt><trkpt lat="50.60958850161538" lon="3.1183343759025153"><ele>41.0</ele><time>2026-04-19T10:36:55Z</time></trkpt><trkpt lat="50.609513496609146" lon="3.1181849206799974"><ele>41.0</ele><time>2026-04-19T10:36:57Z</time></trkpt><trkpt lat="50.609444470619195" lon="3.1180461468551433"><ele>41.0</ele><time>2026-04-19T10:36:59Z</time></trkpt><trkpt lat="50.60937927580812" lon="3.1179148848668197"><ele>41.0</ele><time>2026-04-19T10:37:01Z</time></trkpt><trkpt lat="50.609307568073945" lon="3.117770509849807"><ele>41.0</ele><time>2026-04-19T10:37:03Z</time></trkpt><trkpt lat="50.60923996343565" lon="3.1176343959474715"><ele>41.0</ele><time>2026-04-19T10:37:05Z</time></trkpt><trkpt lat="50.60916965059019" lon="3.1174908321598136"><ele>40.8</ele><time>2026-04-19T10:37:07Z</time></trkpt><trkpt lat="50.609102309788234" lon="3.1173504193867063"><ele>40.599999999999994</ele><time>2026-04-19T10:37:09Z</time></trkpt><trkpt lat="50.6090369982755" lon="3.1172102897069016"><ele>40.4</ele><time>2026-04-19T10:37:11Z</time></trkpt><trkpt lat="50.60897901584449" lon="3.117073758071195"><ele>40.2</ele><time>2026-04-19T10:37:13Z</time></trkpt><trkpt lat="50.60892157198059" lon="3.1169304948767644"><ele>40.0</ele><time>2026-04-19T10:37:15Z</time></trkpt><trkpt lat="50.60886134373096" lon="3.116777585323831"><ele>40.0</ele><time>2026-04-19T10:37:17Z</time></trkpt><trkpt lat="50.608807168921714" lon="3.1166271826421355"><ele>40.0</ele><time>2026-04-19T10:37:19Z</time></trkpt><trkpt lat="50.60875436840477" lon="3.116463518049338"><ele>40.0</ele><time>2026-04-19T10:37:21Z</time></trkpt><trkpt lat="50.608713138725214" lon="3.116330902237529"><ele>40.0</ele><time>2026-04-19T10:37:23Z</time></trkpt><trkpt lat="50.60866526333833" lon="3.116158625647516"><ele>40.0</ele><time>2026-04-19T10:37:25Z</time></trkpt><trkpt lat="50.60862841045443" lon="3.115995293035387"><ele>40.75</ele><time>2026-04-19T10:37:27Z</time></trkpt><trkpt lat="50.60859598133399" lon="3.115854653493665"><ele>41.5</ele><time>2026-04-19T10:37:29Z</time></trkpt><trkpt lat="50.60857707398233" lon="3.1157379422546114"><ele>42.25</ele><time>2026-04-19T10:37:30Z</time></trkpt><trkpt lat="50.608545522205624" lon="3.1155797726774552"><ele>43.0</ele><time>2026-04-19T10:37:32Z</time></trkpt><trkpt lat="50.60859594022821" lon="3.1152130014961896"><ele>43.0</ele><time>2026-04-19T10:37:33Z</time></trkpt><trkpt lat="50.60851284672586" lon="3.115158572348147"><ele>43.0</ele><time>2026-04-19T10:37:36Z</time></trkpt><trkpt lat="50.60847711048066" lon="3.1150490766216747"><ele>43.0</ele><time>2026-04-19T10:37:38Z</time></trkpt><trkpt lat="50.608449657029404" lon="3.11494237583507"><ele>43.0</ele><time>2026-04-19T10:37:40Z</time></trkpt><trkpt lat="50.608429170033126" lon="3.1147601889162173"><ele>43.0</ele><time>2026-04-19T10:37:42Z</time></trkpt><trkpt lat="50.60841064792349" lon="3.114583743141165"><ele>43.0</ele><time>2026-04-19T10:37:44Z</time></trkpt><trkpt lat="50.60839718593915" lon="3.1143962092308515"><ele>43.0</ele><time>2026-04-19T10:37:46Z</time></trkpt><trkpt lat="50.608390410396446" lon="3.1142123390200096"><ele>43.0</ele><time>2026-04-19T10:37:48Z</time></trkpt><trkpt lat="50.60838691429742" lon="3.114032270520588"><ele>43.0</ele><time>2026-04-19T10:37:50Z</time></trkpt><trkpt lat="50.60838637790423" lon="3.113927003315071"><ele>43.0</ele><time>2026-04-19T10:37:51Z</time></trkpt><trkpt lat="50.60839046935592" lon="3.1137438253009084"><ele>43.0</ele><time>2026-04-19T10:37:53Z</time></trkpt><trkpt lat="50.608394983158064" lon="3.113640013189116"><ele>43.0</ele><time>2026-04-19T10:37:54Z</time></trkpt><trkpt lat="50.60840523021024" lon="3.1134504570430015"><ele>43.0</ele><time>2026-04-19T10:37:56Z</time></trkpt><trkpt lat="50.60841252409683" lon="3.1133446627975685"><ele>43.0</ele><time>2026-04-19T10:37:57Z</time></trkpt><trkpt lat="50.60842675122581" lon="3.1131619009000957"><ele>43.0</ele><time>2026-04-19T10:37:59Z</time></trkpt><trkpt lat="50.60844749347947" lon="3.1129704110263927"><ele>42.25</ele><time>2026-04-19T10:38:01Z</time></trkpt><trkpt lat="50.60847299190001" lon="3.112781223298302"><ele>41.5</ele><time>2026-04-19T10:38:03Z</time></trkpt><trkpt lat="50.60850313025852" lon="3.1125950819587214"><ele>40.75</ele><time>2026-04-19T10:38:05Z</time></trkpt><trkpt lat="50.60853765100527" lon="3.1124078726358664"><ele>40.0</ele><time>2026-04-19T10:38:07Z</time></trkpt><trkpt lat="50.60857712013899" lon="3.112217781523377"><ele>40.0</ele><time>2026-04-19T10:38:09Z</time></trkpt><trkpt lat="50.60861793389193" lon="3.1120425626834725"><ele>40.0</ele><time>2026-04-19T10:38:11Z</time></trkpt><trkpt lat="50.608641103551925" lon="3.1119495330424387"><ele>40.0</ele><time>2026-04-19T10:38:12Z</time></trkpt><trkpt lat="50.60868720489482" lon="3.11177170225631"><ele>40.0</ele><time>2026-04-19T10:38:14Z</time></trkpt><trkpt lat="50.60873576967389" lon="3.111593709157407"><ele>40.0</ele><time>2026-04-19T10:38:16Z</time></trkpt><trkpt lat="50.608784399008265" lon="3.1114169748133276"><ele>39.8</ele><time>2026-04-19T10:38:18Z</time></trkpt><trkpt lat="50.60883313858825" lon="3.111238404769094"><ele>39.6</ele><time>2026-04-19T10:38:20Z</time></trkpt><trkpt lat="50.60885811923092" lon="3.1111468816987546"><ele>39.4</ele><time>2026-04-19T10:38:21Z</time></trkpt><trkpt lat="50.60890799768785" lon="3.110964139089803"><ele>39.2</ele><time>2026-04-19T10:38:23Z</time></trkpt><trkpt lat="50.60893315810221" lon="3.11087242181864"><ele>39.0</ele><time>2026-04-19T10:38:24Z</time></trkpt><trkpt lat="50.608983053597626" lon="3.110692084340785"><ele>39.0</ele><time>2026-04-19T10:38:26Z</time></trkpt><trkpt lat="50.60903210201779" lon="3.110509732412278"><ele>39.0</ele><time>2026-04-19T10:38:28Z</time></trkpt><trkpt lat="50.60907547374983" lon="3.1103496420596604"><ele>39.0</ele><time>2026-04-19T10:38:30Z</time></trkpt><trkpt lat="50.60912162304293" lon="3.110184583028556"><ele>39.0</ele><time>2026-04-19T10:38:32Z</time></trkpt><trkpt lat="50.60916661163431" lon="3.110023675375618"><ele>39.0</ele><time>2026-04-19T10:38:34Z</time></trkpt><trkpt lat="50.60921353938245" lon="3.109855832578019"><ele>39.0</ele><time>2026-04-19T10:38:36Z</time></trkpt><trkpt lat="50.60925529194086" lon="3.109707201386369"><ele>39.0</ele><time>2026-04-19T10:38:38Z</time></trkpt><trkpt lat="50.609310450169644" lon="3.109544735324738"><ele>39.0</ele><time>2026-04-19T10:38:40Z</time></trkpt><trkpt lat="50.60935373503617" lon="3.109425951367852"><ele>39.0</ele><time>2026-04-19T10:38:42Z</time></trkpt><trkpt lat="50.60939911075041" lon="3.109319412422449"><ele>39.0</ele><time>2026-04-19T10:38:44Z</time></trkpt><trkpt lat="50.60941666944061" lon="3.1092099833989697"><ele>39.0</ele><time>2026-04-19T10:38:47Z</time></trkpt><trkpt lat="50.60913189959329" lon="3.108769936584939"><ele>38.666666666666664</ele><time>2026-04-19T10:38:50Z</time></trkpt><trkpt lat="50.6090869879379" lon="3.1086748452943955"><ele>38.333333333333336</ele><time>2026-04-19T10:38:53Z</time></trkpt><trkpt lat="50.609085957081774" lon="3.108536938611392"><ele>38.0</ele><time>2026-04-19T10:38:58Z</time></trkpt><trkpt lat="50.609105780040025" lon="3.108429403094492"><ele>37.66666666666667</ele><time>2026-04-19T10:39:01Z</time></trkpt><trkpt lat="50.60906202441175" lon="3.1083400000230794"><ele>37.333333333333336</ele><time>2026-04-19T10:39:04Z</time></trkpt><trkpt lat="50.60896594799319" lon="3.1083483994280927"><ele>37.0</ele><time>2026-04-19T10:39:06Z</time></trkpt><trkpt lat="50.60889051372897" lon="3.108403597211035"><ele>37.0</ele><time>2026-04-19T10:39:08Z</time></trkpt><trkpt lat="50.60880743038276" lon="3.1084035972138575"><ele>37.0</ele><time>2026-04-19T10:39:10Z</time></trkpt><trkpt lat="50.60873129818715" lon="3.1084207364140353"><ele>37.0</ele><time>2026-04-19T10:39:12Z</time></trkpt><trkpt lat="50.60868080825624" lon="3.1083107433072854"><ele>37.0</ele><time>2026-04-19T10:39:13Z</time></trkpt><trkpt lat="50.60858830919764" lon="3.1082935385857846"><ele>37.0</ele><time>2026-04-19T10:39:15Z</time></trkpt><trkpt lat="50.60849340937636" lon="3.1082786469219954"><ele>37.0</ele><time>2026-04-19T10:39:17Z</time></trkpt><trkpt lat="50.608393386267664" lon="3.1082419009802202"><ele>36.6</ele><time>2026-04-19T10:39:19Z</time></trkpt><trkpt lat="50.60829140565713" lon="3.1082007622901955"><ele>36.2</ele><time>2026-04-19T10:39:21Z</time></trkpt><trkpt lat="50.60819482057861" lon="3.1081465457868918"><ele>35.8</ele><time>2026-04-19T10:39:23Z</time></trkpt><trkpt lat="50.608095893096035" lon="3.1080931607234574"><ele>35.4</ele><time>2026-04-19T10:39:25Z</time></trkpt><trkpt lat="50.607995173011105" lon="3.108054281372299"><ele>35.0</ele><time>2026-04-19T10:39:27Z</time></trkpt><trkpt lat="50.607899491374546" lon="3.1079771655236876"><ele>35.8</ele><time>2026-04-19T10:39:29Z</time></trkpt><trkpt lat="50.60780278262491" lon="3.1078948891710487"><ele>36.6</ele><time>2026-04-19T10:39:31Z</time></trkpt><trkpt lat="50.607709648665185" lon="3.1078142822452413"><ele>37.4</ele><time>2026-04-19T10:39:33Z</time></trkpt><trkpt lat="50.60762091071148" lon="3.107734716235786"><ele>38.2</ele><time>2026-04-19T10:39:35Z</time></trkpt><trkpt lat="50.60753468240304" lon="3.1076549700526894"><ele>39.0</ele><time>2026-04-19T10:39:37Z</time></trkpt><trkpt lat="50.607461668740854" lon="3.107568894301531"><ele>39.0</ele><time>2026-04-19T10:39:39Z</time></trkpt><trkpt lat="50.607411303385234" lon="3.1074754725814664"><ele>39.0</ele><time>2026-04-19T10:39:41Z</time></trkpt><trkpt lat="50.60735410211114" lon="3.1074091685155873"><ele>39.0</ele><time>2026-04-19T10:39:43Z</time></trkpt><trkpt lat="50.60729473048216" lon="3.1073428500758147"><ele>39.0</ele><time>2026-04-19T10:39:45Z</time></trkpt><trkpt lat="50.60724312277076" lon="3.1072852039985595"><ele>39.0</ele><time>2026-04-19T10:39:47Z</time></trkpt><trkpt lat="50.607190196296145" lon="3.107225823498241"><ele>39.0</ele><time>2026-04-19T10:39:49Z</time></trkpt><trkpt lat="50.60713215493795" lon="3.107158549712925"><ele>39.0</ele><time>2026-04-19T10:39:51Z</time></trkpt><trkpt lat="50.60707193726174" lon="3.1070835872954343"><ele>39.0</ele><time>2026-04-19T10:39:53Z</time></trkpt><trkpt lat="50.60701115600615" lon="3.1069973386041685"><ele>39.0</ele><time>2026-04-19T10:39:55Z</time></trkpt><trkpt lat="50.606949565571284" lon="3.1069025522895695"><ele>39.0</ele><time>2026-04-19T10:39:57Z</time></trkpt><trkpt lat="50.60697826972817" lon="3.1067635844732795"><ele>39.0</ele><time>2026-04-19T10:39:58Z</time></trkpt><trkpt lat="50.60691830785491" lon="3.106668679436529"><ele>39.0</ele><time>2026-04-19T10:40:00Z</time></trkpt><trkpt lat="50.606853113677495" lon="3.106583610264305"><ele>39.0</ele><time>2026-04-19T10:40:02Z</time></trkpt><trkpt lat="50.60680656705877" lon="3.1064924222564834"><ele>39.166666666666664</ele><time>2026-04-19T10:40:04Z</time></trkpt><trkpt lat="50.60674787415889" lon="3.1063731280658584"><ele>39.333333333333336</ele><time>2026-04-19T10:40:07Z</time></trkpt><trkpt lat="50.60667941174208" lon="3.1062825491768122"><ele>39.5</ele><time>2026-04-19T10:40:10Z</time></trkpt><trkpt lat="50.6066360062735" lon="3.1061970440843925"><ele>39.66666666666667</ele><time>2026-04-19T10:40:12Z</time></trkpt><trkpt lat="50.60657534837908" lon="3.1061526933254604"><ele>39.833333333333336</ele><time>2026-04-19T10:40:14Z</time></trkpt><trkpt lat="50.60651416744736" lon="3.1061093216038937"><ele>40.0</ele><time>2026-04-19T10:40:16Z</time></trkpt><trkpt lat="50.606447661733384" lon="3.1060823960293087"><ele>40.0</ele><time>2026-04-19T10:40:18Z</time></trkpt><trkpt lat="50.60638237904395" lon="3.106033571407072"><ele>40.0</ele><time>2026-04-19T10:40:20Z</time></trkpt><trkpt lat="50.606333913073584" lon="3.1059569843034565"><ele>40.0</ele><time>2026-04-19T10:40:22Z</time></trkpt><trkpt lat="50.606281402952646" lon="3.105868658853034"><ele>40.0</ele><time>2026-04-19T10:40:24Z</time></trkpt><trkpt lat="50.60622187546629" lon="3.105773301838848"><ele>40.0</ele><time>2026-04-19T10:40:26Z</time></trkpt><trkpt lat="50.606168228436744" lon="3.1056778026333887"><ele>40.0</ele><time>2026-04-19T10:40:28Z</time></trkpt><trkpt lat="50.60609864054964" lon="3.1055670370383655"><ele>40.2</ele><time>2026-04-19T10:40:30Z</time></trkpt><trkpt lat="50.60602790417806" lon="3.1054611383465875"><ele>40.4</ele><time>2026-04-19T10:40:32Z</time></trkpt><trkpt lat="50.60596826750083" lon="3.1053382368680666"><ele>40.599999999999994</ele><time>2026-04-19T10:40:34Z</time></trkpt><trkpt lat="50.6058979336" lon="3.1052143334079525"><ele>40.8</ele><time>2026-04-19T10:40:36Z</time></trkpt><trkpt lat="50.605830631296065" lon="3.105087018246287"><ele>41.0</ele><time>2026-04-19T10:40:38Z</time></trkpt><trkpt lat="50.605748302270875" lon="3.104962795765862"><ele>40.199999999999996</ele><time>2026-04-19T10:40:40Z</time></trkpt><trkpt lat="50.60566936519404" lon="3.1048145454085097"><ele>39.4</ele><time>2026-04-19T10:40:42Z</time></trkpt><trkpt lat="50.60558707834871" lon="3.1046706867740186"><ele>38.6</ele><time>2026-04-19T10:40:44Z</time></trkpt><trkpt lat="50.60550395639782" lon="3.104517444639184"><ele>37.8</ele><time>2026-04-19T10:40:46Z</time></trkpt><trkpt lat="50.60546108797586" lon="3.104440125350899"><ele>37.0</ele><time>2026-04-19T10:40:47Z</time></trkpt><trkpt lat="50.60542225591809" lon="3.104354691886317"><ele>37.0</ele><time>2026-04-19T10:40:48Z</time></trkpt><trkpt lat="50.60536931559077" lon="3.1042923670366687"><ele>37.0</ele><time>2026-04-19T10:40:49Z</time></trkpt><trkpt lat="50.60532165093193" lon="3.104218214305571"><ele>37.0</ele><time>2026-04-19T10:40:50Z</time></trkpt><trkpt lat="50.60527308037107" lon="3.10414914953358"><ele>37.0</ele><time>2026-04-19T10:40:51Z</time></trkpt><trkpt lat="50.605222613518734" lon="3.104077134122013"><ele>37.0</ele><time>2026-04-19T10:40:52Z</time></trkpt><trkpt lat="50.60517131471275" lon="3.1040065847404836"><ele>37.0</ele><time>2026-04-19T10:40:53Z</time></trkpt><trkpt lat="50.605119059332324" lon="3.1039404030394713"><ele>37.0</ele><time>2026-04-19T10:40:54Z</time></trkpt><trkpt lat="50.60500944214807" lon="3.103826344925424"><ele>37.333333333333336</ele><time>2026-04-19T10:40:56Z</time></trkpt><trkpt lat="50.604954010408335" lon="3.1037654560847736"><ele>37.66666666666667</ele><time>2026-04-19T10:40:57Z</time></trkpt><trkpt lat="50.604904287097156" lon="3.103682792584296"><ele>38.0</ele><time>2026-04-19T10:40:58Z</time></trkpt><trkpt lat="50.604878430057" lon="3.103563181967968"><ele>38.333333333333336</ele><time>2026-04-19T10:40:59Z</time></trkpt><trkpt lat="50.60485289830609" lon="3.1034640683563843"><ele>38.666666666666664</ele><time>2026-04-19T10:41:00Z</time></trkpt><trkpt lat="50.60477221932924" lon="3.1034099819086705"><ele>39.0</ele><time>2026-04-19T10:41:02Z</time></trkpt><trkpt lat="50.604683383424195" lon="3.103423931224611"><ele>39.0</ele><time>2026-04-19T10:41:04Z</time></trkpt><trkpt lat="50.6045621452673" lon="3.103271477066557"><ele>39.0</ele><time>2026-04-19T10:41:06Z</time></trkpt><trkpt lat="50.60448875060837" lon="3.10313727159676"><ele>39.0</ele><time>2026-04-19T10:41:08Z</time></trkpt><trkpt lat="50.60441106642984" lon="3.1030194372806217"><ele>39.0</ele><time>2026-04-19T10:41:10Z</time></trkpt><trkpt lat="50.604334834362355" lon="3.1029073816095383"><ele>40.0</ele><time>2026-04-19T10:41:12Z</time></trkpt><trkpt lat="50.6042633582373" lon="3.102795727158095"><ele>41.0</ele><time>2026-04-19T10:41:14Z</time></trkpt><trkpt lat="50.604176258036084" lon="3.1026870428858118"><ele>42.0</ele><time>2026-04-19T10:41:16Z</time></trkpt><trkpt lat="50.60408483778614" lon="3.1025922554926058"><ele>43.0</ele><time>2026-04-19T10:41:18Z</time></trkpt><trkpt lat="50.6040045233411" lon="3.1024917635692386"><ele>44.0</ele><time>2026-04-19T10:41:20Z</time></trkpt><trkpt lat="50.60392989480049" lon="3.1023761628512956"><ele>44.400000000000006</ele><time>2026-04-19T10:41:22Z</time></trkpt><trkpt lat="50.60385802674239" lon="3.1022888927842"><ele>44.8</ele><time>2026-04-19T10:41:24Z</time></trkpt><trkpt lat="50.60379815195343" lon="3.102139245896764"><ele>45.2</ele><time>2026-04-19T10:41:25Z</time></trkpt><trkpt lat="50.60372649946309" lon="3.1020143161402056"><ele>45.599999999999994</ele><time>2026-04-19T10:41:26Z</time></trkpt><trkpt lat="50.603651576353364" lon="3.101967626287269"><ele>46.0</ele><time>2026-04-19T10:41:29Z</time></trkpt><trkpt lat="50.60358474953933" lon="3.1018371281334187"><ele>46.4</ele><time>2026-04-19T10:41:31Z</time></trkpt><trkpt lat="50.60351777004785" lon="3.1016940581802457"><ele>46.8</ele><time>2026-04-19T10:41:33Z</time></trkpt><trkpt lat="50.60346619420615" lon="3.1016037589313252"><ele>47.199999999999996</ele><time>2026-04-19T10:41:35Z</time></trkpt><trkpt lat="50.603386683914025" lon="3.101474689029965"><ele>47.599999999999994</ele><time>2026-04-19T10:41:37Z</time></trkpt><trkpt lat="50.60332049419859" lon="3.1013466632012734"><ele>48.0</ele><time>2026-04-19T10:41:39Z</time></trkpt><trkpt lat="50.60325901436844" lon="3.101222385725686"><ele>47.333333333333336</ele><time>2026-04-19T10:41:41Z</time></trkpt><trkpt lat="50.603196587460715" lon="3.1011463795073095"><ele>46.666666666666664</ele><time>2026-04-19T10:41:43Z</time></trkpt><trkpt lat="50.603146915265036" lon="3.101050855800933"><ele>46.0</ele><time>2026-04-19T10:41:45Z</time></trkpt><trkpt lat="50.60309395216939" lon="3.1009263208750406"><ele>45.33333333333333</ele><time>2026-04-19T10:41:47Z</time></trkpt><trkpt lat="50.60306086308262" lon="3.1008119946266963"><ele>44.666666666666664</ele><time>2026-04-19T10:41:49Z</time></trkpt><trkpt lat="50.60302422620289" lon="3.1007092637616056"><ele>44.0</ele><time>2026-04-19T10:41:51Z</time></trkpt><trkpt lat="50.602966397146105" lon="3.100635367891754"><ele>44.2</ele><time>2026-04-19T10:41:53Z</time></trkpt><trkpt lat="50.60289619367481" lon="3.1006341328053826"><ele>44.400000000000006</ele><time>2026-04-19T10:41:54Z</time></trkpt><trkpt lat="50.60282703677168" lon="3.100491949339103"><ele>44.6</ele><time>2026-04-19T10:41:56Z</time></trkpt><trkpt lat="50.602787501577026" lon="3.1003381808447625"><ele>44.8</ele><time>2026-04-19T10:41:58Z</time></trkpt><trkpt lat="50.60273238472466" lon="3.100210037629952"><ele>45.0</ele><time>2026-04-19T10:42:00Z</time></trkpt><trkpt lat="50.60266417406136" lon="3.100104224652977"><ele>45.0</ele><time>2026-04-19T10:42:02Z</time></trkpt><trkpt lat="50.602612381592294" lon="3.099976905102787"><ele>45.0</ele><time>2026-04-19T10:42:04Z</time></trkpt><trkpt lat="50.60255743849863" lon="3.099874140638374"><ele>45.0</ele><time>2026-04-19T10:42:06Z</time></trkpt><trkpt lat="50.60250742841626" lon="3.0997725943076984"><ele>45.0</ele><time>2026-04-19T10:42:08Z</time></trkpt><trkpt lat="50.6024642576416" lon="3.099671447654104"><ele>45.0</ele><time>2026-04-19T10:42:10Z</time></trkpt><trkpt lat="50.60239675709062" lon="3.099572626731821"><ele>45.0</ele><time>2026-04-19T10:42:13Z</time></trkpt><trkpt lat="50.602333980197145" lon="3.099466603832451"><ele>44.666666666666664</ele><time>2026-04-19T10:42:17Z</time></trkpt><trkpt lat="50.602286113267795" lon="3.0993697325288245"><ele>44.333333333333336</ele><time>2026-04-19T10:42:19Z</time></trkpt><trkpt lat="50.602237681017364" lon="3.099272588668201"><ele>44.0</ele><time>2026-04-19T10:42:21Z</time></trkpt><trkpt lat="50.602195495190095" lon="3.0991620736578285"><ele>43.66666666666667</ele><time>2026-04-19T10:42:23Z</time></trkpt><trkpt lat="50.60211368356437" lon="3.0990249807754546"><ele>43.333333333333336</ele><time>2026-04-19T10:42:25Z</time></trkpt><trkpt lat="50.60206140591704" lon="3.098909953086394"><ele>43.0</ele><time>2026-04-19T10:42:27Z</time></trkpt><trkpt lat="50.60200097789715" lon="3.0987907428105976"><ele>43.0</ele><time>2026-04-19T10:42:29Z</time></trkpt><trkpt lat="50.601937071211886" lon="3.09867161512652"><ele>43.0</ele><time>2026-04-19T10:42:31Z</time></trkpt><trkpt lat="50.60187265246762" lon="3.0985379823438035"><ele>43.0</ele><time>2026-04-19T10:42:33Z</time></trkpt><trkpt lat="50.60180715466558" lon="3.0984111838924324"><ele>43.0</ele><time>2026-04-19T10:42:35Z</time></trkpt><trkpt lat="50.601725491740744" lon="3.098293328706565"><ele>43.0</ele><time>2026-04-19T10:42:37Z</time></trkpt><trkpt lat="50.60163381235572" lon="3.0981852090443294"><ele>43.0</ele><time>2026-04-19T10:42:39Z</time></trkpt><trkpt lat="50.601544162643215" lon="3.0980914320547983"><ele>43.0</ele><time>2026-04-19T10:42:41Z</time></trkpt><trkpt lat="50.60142800932857" lon="3.0980059011235643"><ele>43.0</ele><time>2026-04-19T10:42:43Z</time></trkpt><trkpt lat="50.60133581425716" lon="3.097923358912958"><ele>43.0</ele><time>2026-04-19T10:42:45Z</time></trkpt><trkpt lat="50.6012640267792" lon="3.0978149725337105"><ele>43.0</ele><time>2026-04-19T10:42:47Z</time></trkpt><trkpt lat="50.601184706925764" lon="3.097711072580911"><ele>43.16666666666667</ele><time>2026-04-19T10:42:49Z</time></trkpt><trkpt lat="50.601110469488106" lon="3.097626233766646"><ele>43.333333333333336</ele><time>2026-04-19T10:42:51Z</time></trkpt><trkpt lat="50.601093988489616" lon="3.0975246331031077"><ele>43.5</ele><time>2026-04-19T10:42:52Z</time></trkpt><trkpt lat="50.60107125315762" lon="3.0974051488094334"><ele>43.666666666666664</ele><time>2026-04-19T10:42:54Z</time></trkpt><trkpt lat="50.60100158746938" lon="3.097401304411445"><ele>43.83333333333333</ele><time>2026-04-19T10:42:59Z</time></trkpt><trkpt lat="50.600939468241954" lon="3.0974741117111746"><ele>44.0</ele><time>2026-04-19T10:43:01Z</time></trkpt><trkpt lat="50.60088229255396" lon="3.0975260466550063"><ele>44.0</ele><time>2026-04-19T10:43:03Z</time></trkpt><trkpt lat="50.600791063549735" lon="3.0974548162645466"><ele>44.0</ele><time>2026-04-19T10:43:07Z</time></trkpt><trkpt lat="50.60075296826198" lon="3.0973231515349418"><ele>44.0</ele><time>2026-04-19T10:43:09Z</time></trkpt><trkpt lat="50.6007067431435" lon="3.0972219993195025"><ele>44.0</ele><time>2026-04-19T10:43:10Z</time></trkpt><trkpt lat="50.600638457899336" lon="3.09704104451797"><ele>44.0</ele><time>2026-04-19T10:43:12Z</time></trkpt><trkpt lat="50.60059453465911" lon="3.096952852524119"><ele>42.0</ele><time>2026-04-19T10:43:13Z</time></trkpt><trkpt lat="50.60054724312318" lon="3.0968481249414355"><ele>42.0</ele><time>2026-04-19T10:43:14Z</time></trkpt><trkpt lat="50.600498301454856" lon="3.096733070279812"><ele>42.0</ele><time>2026-04-19T10:43:15Z</time></trkpt><trkpt lat="50.60045551214106" lon="3.096626330069351"><ele>42.0</ele><time>2026-04-19T10:43:16Z</time></trkpt><trkpt lat="50.600405430731776" lon="3.0965002180536816"><ele>42.0</ele><time>2026-04-19T10:43:18Z</time></trkpt></trkseg></trk></gpx>